Time,TemperatureF,DewpointF,PressureIn,WindDirection,WindDirectionDegrees,WindSpeedMPH,WindSpeedGustMPH,Humidity,HourlyPrecipIn,Conditions,Clouds,dailyrainin,SoftwareType,DateUTC
2013-01-14 00:00:00,2.3,0.0,29.82,SW,231,0.0,0.0,90,0.00,,---,0.00,VWS V14.01,2013-01-14 07:00:00,
2013-01-14 00:01:00,2.3,0.0,29.82,SW,231,0.0,0.0,90,0.00,,---,0.00,VWS V14.01,2013-01-14 07:01:00,
2013-01-14 00:02:00,2.3,0.0,29.82,SW,231,0.0,0.0,90,0.00,,---,0.00,VWS V14.01,2013-01-14 07:02:00,
2013-01-14 00:03:00,2.3,0.0,29.82,SW,231,0.0,0.0,90,0.00,,---,0.00,VWS V14.01,2013-01-14 07:03:00,
2013-01-14 00:04:00,2.3,0.0,29.82,SW,231,0.0,0.0,90,0.00,,---,0.00,VWS V14.01,2013-01-14 07:04:00,
2013-01-14 00:05:00,2.3,0.0,29.82,SW,230,0.0,0.0,90,0.00,,---,0.00,VWS V14.01,2013-01-14 07:05:00,
2013-01-14 00:06:00,2.5,0.2,29.82,SW,223,0.0,0.0,90,0.00,,---,0.00,VWS V14.01,2013-01-14 07:06:00,
2013-01-14 00:07:00,2.5,0.2,29.82,SW,223,0.0,0.0,90,0.00,,---,0.00,VWS V14.01,2013-01-14 07:07:00,
2013-01-14 00:08:00,2.7,0.4,29.82,SW,223,0.0,0.0,90,0.00,,---,0.00,VWS V14.01,2013-01-14 07:08:00,
2013-01-14 00:09:00,2.8,0.6,29.82,South,172,0.0,0.0,90,0.00,,---,0.00,VWS V14.01,2013-01-14 07:09:00,
2013-01-14 00:10:00,3.0,0.8,29.82,South,172,0.0,0.0,90,0.00,,---,0.00,VWS V14.01,2013-01-14 07:10:00,
2013-01-14 00:11:00,3.2,0.9,29.82,South,172,0.0,0.0,90,0.00,,---,0.00,VWS V14.01,2013-01-14 07:11:00,
2013-01-14 00:12:00,3.4,1.1,29.82,South,172,0.0,0.0,90,0.00,,---,0.00,VWS V14.01,2013-01-14 07:12:00,
2013-01-14 00:13:00,3.6,1.3,29.82,South,172,0.0,0.0,90,0.00,,---,0.00,VWS V14.01,2013-01-14 07:13:00,
2013-01-14 00:14:00,3.7,1.5,29.82,South,172,0.0,0.0,90,0.00,,---,0.00,VWS V14.01,2013-01-14 07:14:00,
2013-01-14 00:15:00,3.7,1.5,29.82,South,172,0.0,0.0,90,0.00,,---,0.00,VWS V14.01,2013-01-14 07:15:00,
2013-01-14 00:16:00,3.7,1.5,29.82,South,172,0.0,0.0,90,0.00,,---,0.00,VWS V14.01,2013-01-14 07:16:00,
2013-01-14 00:17:00,3.7,1.5,29.82,South,172,0.0,0.0,90,0.00,,---,0.00,VWS V14.01,2013-01-14 07:17:00,
2013-01-14 00:18:00,3.7,1.5,29.82,South,172,0.0,0.0,90,0.00,,---,0.00,VWS V14.01,2013-01-14 07:18:00,
2013-01-14 00:19:00,3.7,1.5,29.82,South,172,0.0,0.0,90,0.00,,---,0.00,VWS V14.01,2013-01-14 07:19:00,
2013-01-14 00:20:00,3.6,1.3,29.82,WSW,241,0.0,0.0,90,0.00,,---,0.00,VWS V14.01,2013-01-14 07:20:00,
2013-01-14 00:21:00,3.2,0.9,29.82,WSW,248,0.0,0.0,90,0.00,,---,0.00,VWS V14.01,2013-01-14 07:21:00,
2013-01-14 00:22:00,3.2,0.9,29.82,WSW,248,0.0,0.0,90,0.00,,---,0.00,VWS V14.01,2013-01-14 07:22:00,
2013-01-14 00:23:00,3.0,0.8,29.82,WSW,248,0.0,0.0,90,0.00,,---,0.00,VWS V14.01,2013-01-14 07:23:00,
2013-01-14 00:24:00,3.0,0.8,29.82,SW,218,0.0,0.0,90,0.00,,---,0.00,VWS V14.01,2013-01-14 07:24:00,
2013-01-14 00:25:00,3.2,0.9,29.82,SE,143,5.4,5.4,90,0.00,,---,0.00,VWS V14.01,2013-01-14 07:25:00,
2013-01-14 00:26:00,3.7,1.5,29.82,SE,145,3.6,5.4,90,0.00,,---,0.00,VWS V14.01,2013-01-14 07:26:00,
2013-01-14 00:27:00,3.7,1.5,29.82,West,274,2.7,3.6,90,0.00,,---,0.00,VWS V14.01,2013-01-14 07:27:00,
2013-01-14 00:28:00,3.7,1.5,29.82,West,281,0.0,3.1,90,0.00,,---,0.00,VWS V14.01,2013-01-14 07:28:00,
2013-01-14 00:29:00,3.6,1.3,29.82,West,281,2.2,2.2,90,0.00,,---,0.00,VWS V14.01,2013-01-14 07:29:00,
2013-01-14 00:30:00,3.6,1.3,29.82,West,281,0.0,2.7,90,0.00,,---,0.00,VWS V14.01,2013-01-14 07:30:00,
2013-01-14 00:31:00,3.4,1.1,29.82,West,281,0.0,0.0,90,0.00,,---,0.00,VWS V14.01,2013-01-14 07:31:00,
2013-01-14 00:32:00,3.2,0.9,29.82,West,281,0.0,0.0,90,0.00,,---,0.00,VWS V14.01,2013-01-14 07:32:00,
2013-01-14 00:33:00,3.0,0.8,29.82,West,281,0.0,0.0,90,0.00,,---,0.00,VWS V14.01,2013-01-14 07:33:00,
2013-01-14 00:34:00,3.0,0.8,29.82,West,281,0.0,0.0,90,0.00,,---,0.00,VWS V14.01,2013-01-14 07:34:00,
2013-01-14 00:35:00,2.8,0.6,29.82,West,281,0.0,0.0,90,0.00,,---,0.00,VWS V14.01,2013-01-14 07:35:00,
2013-01-14 00:36:00,2.8,0.6,29.82,West,281,0.0,0.0,90,0.00,,---,0.00,VWS V14.01,2013-01-14 07:36:00,
2013-01-14 00:37:00,2.7,0.4,29.82,West,281,0.0,0.0,90,0.00,,---,0.00,VWS V14.01,2013-01-14 07:37:00,
2013-01-14 00:38:00,2.7,0.4,29.82,West,281,0.0,0.0,90,0.00,,---,0.00,VWS V14.01,2013-01-14 07:38:00,
2013-01-14 00:39:00,2.5,0.2,29.82,West,281,0.0,0.0,90,0.00,,---,0.00,VWS V14.01,2013-01-14 07:39:00,
2013-01-14 00:40:00,2.5,0.2,29.82,West,281,0.0,0.0,90,0.00,,---,0.00,VWS V14.01,2013-01-14 07:40:00,
2013-01-14 00:41:00,2.5,0.2,29.82,West,281,0.0,0.0,90,0.00,,---,0.00,VWS V14.01,2013-01-14 07:41:00,
2013-01-14 00:42:00,2.3,0.0,29.82,West,281,0.0,0.0,90,0.00,,---,0.00,VWS V14.01,2013-01-14 07:42:00,
2013-01-14 00:43:00,2.1,-0.1,29.82,West,281,0.0,0.0,90,0.00,,---,0.00,VWS V14.01,2013-01-14 07:43:00,
2013-01-14 00:44:00,1.9,-0.3,29.82,West,281,0.0,0.0,90,0.00,,---,0.00,VWS V14.01,2013-01-14 07:44:00,
2013-01-14 00:45:00,1.9,-0.3,29.82,West,281,0.0,0.0,90,0.00,,---,0.00,VWS V14.01,2013-01-14 07:45:00,
2013-01-14 00:46:00,1.8,-0.5,29.82,West,281,0.0,0.0,90,0.00,,---,0.00,VWS V14.01,2013-01-14 07:46:00,
2013-01-14 00:47:00,1.8,-0.5,29.82,West,281,0.0,0.0,90,0.00,,---,0.00,VWS V14.01,2013-01-14 07:47:00,
2013-01-14 00:48:00,1.6,-0.7,29.82,West,281,0.0,0.0,90,0.00,,---,0.00,VWS V14.01,2013-01-14 07:48:00,
2013-01-14 00:49:00,1.6,-0.7,29.82,West,281,0.0,0.0,90,0.00,,---,0.00,VWS V14.01,2013-01-14 07:49:00,
2013-01-14 00:50:00,1.6,-0.7,29.82,West,281,0.0,0.0,90,0.00,,---,0.00,VWS V14.01,2013-01-14 07:50:00,
2013-01-14 00:51:00,1.4,-0.9,29.82,West,281,0.0,0.0,90,0.00,,---,0.00,VWS V14.01,2013-01-14 07:51:00,
2013-01-14 00:52:00,1.4,-0.9,29.82,West,281,0.0,0.0,90,0.00,,---,0.00,VWS V14.01,2013-01-14 07:52:00,
2013-01-14 00:53:00,1.2,-1.0,29.82,West,281,0.0,0.0,90,0.00,,---,0.00,VWS V14.01,2013-01-14 07:53:00,
2013-01-14 00:54:00,1.2,-1.0,29.82,West,281,0.0,0.0,90,0.00,,---,0.00,VWS V14.01,2013-01-14 07:54:00,
2013-01-14 00:55:00,1.2,-1.0,29.82,WNW,283,2.7,2.7,90,0.00,,---,0.00,VWS V14.01,2013-01-14 07:55:00,
2013-01-14 00:56:00,1.0,-1.2,29.82,WNW,283,0.0,3.6,90,0.00,,---,0.00,VWS V14.01,2013-01-14 07:56:00,
2013-01-14 00:57:00,1.0,-1.2,29.82,WNW,283,0.0,0.0,90,0.00,,---,0.00,VWS V14.01,2013-01-14 07:57:00,
2013-01-14 00:58:00,1.0,-1.2,29.82,WNW,289,3.1,3.1,90,0.00,,---,0.00,VWS V14.01,2013-01-14 07:58:00,
2013-01-14 00:59:00,1.2,-1.0,29.82,WNW,289,0.0,3.1,90,0.00,,---,0.00,VWS V14.01,2013-01-14 07:59:00,
2013-01-14 01:00:00,1.6,-0.7,29.82,WNW,289,0.0,0.0,90,0.00,,---,0.00,VWS V14.01,2013-01-14 08:00:00,
2013-01-14 01:01:00,1.9,-0.3,29.82,WNW,289,0.0,0.0,90,0.00,,---,0.00,VWS V14.01,2013-01-14 08:01:00,
2013-01-14 01:02:00,1.9,-0.3,29.82,WNW,289,0.0,0.0,90,0.00,,---,0.00,VWS V14.01,2013-01-14 08:02:00,
2013-01-14 01:03:00,1.9,-0.3,29.82,WNW,289,0.0,0.0,90,0.00,,---,0.00,VWS V14.01,2013-01-14 08:03:00,
2013-01-14 01:04:00,1.9,-0.3,29.82,WNW,289,0.0,0.0,90,0.00,,---,0.00,VWS V14.01,2013-01-14 08:04:00,
2013-01-14 01:05:00,1.6,-0.7,29.82,WNW,289,0.0,0.0,90,0.00,,---,0.00,VWS V14.01,2013-01-14 08:05:00,
2013-01-14 01:06:00,1.6,-0.7,29.82,WNW,289,0.0,0.0,90,0.00,,---,0.00,VWS V14.01,2013-01-14 08:06:00,
2013-01-14 01:07:00,1.6,-0.7,29.82,WNW,289,0.0,0.0,90,0.00,,---,0.00,VWS V14.01,2013-01-14 08:07:00,
2013-01-14 01:08:00,1.4,-0.9,29.82,WNW,289,0.0,0.0,90,0.00,,---,0.00,VWS V14.01,2013-01-14 08:08:00,
2013-01-14 01:09:00,1.4,-0.9,29.82,WNW,289,0.0,0.0,90,0.00,,---,0.00,VWS V14.01,2013-01-14 08:09:00,
2013-01-14 01:10:00,1.2,-1.0,29.85,WNW,289,0.0,0.0,90,0.00,,---,0.00,VWS V14.01,2013-01-14 08:10:00,
2013-01-14 01:11:00,1.0,-1.2,29.85,WNW,289,0.0,0.0,90,0.00,,---,0.00,VWS V14.01,2013-01-14 08:11:00,
2013-01-14 01:12:00,1.0,-1.2,29.85,WNW,289,0.0,0.0,90,0.00,,---,0.00,VWS V14.01,2013-01-14 08:12:00,
2013-01-14 01:13:00,0.9,-1.4,29.85,WNW,289,0.0,0.0,90,0.00,,---,0.00,VWS V14.01,2013-01-14 08:13:00,
2013-01-14 01:14:00,0.9,-1.4,29.85,WNW,289,0.0,0.0,90,0.00,,---,0.00,VWS V14.01,2013-01-14 08:14:00,
2013-01-14 01:15:00,0.7,-1.6,29.85,WNW,289,0.0,0.0,90,0.00,,---,0.00,VWS V14.01,2013-01-14 08:15:00,
2013-01-14 01:16:00,0.7,-1.6,29.85,WNW,289,0.0,0.0,90,0.00,,---,0.00,VWS V14.01,2013-01-14 08:16:00,
2013-01-14 01:17:00,0.7,-1.6,29.85,WNW,289,0.0,0.0,90,0.00,,---,0.00,VWS V14.01,2013-01-14 08:17:00,
2013-01-14 01:18:00,0.5,-1.7,29.85,WNW,289,0.0,0.0,90,0.00,,---,0.00,VWS V14.01,2013-01-14 08:18:00,
2013-01-14 01:19:00,0.3,-1.9,29.85,WNW,289,0.0,0.0,90,0.00,,---,0.00,VWS V14.01,2013-01-14 08:19:00,
2013-01-14 01:20:00,0.3,-1.9,29.85,WNW,289,0.0,0.0,90,0.00,,---,0.00,VWS V14.01,2013-01-14 08:20:00,
2013-01-14 01:21:00,0.3,-1.9,29.85,WNW,289,0.0,0.0,90,0.00,,---,0.00,VWS V14.01,2013-01-14 08:21:00,
2013-01-14 01:22:00,0.1,-2.1,29.85,WNW,289,0.0,0.0,90,0.00,,---,0.00,VWS V14.01,2013-01-14 08:22:00,
2013-01-14 01:23:00,0.1,-2.1,29.85,WNW,289,0.0,0.0,90,0.00,,---,0.00,VWS V14.01,2013-01-14 08:23:00,
2013-01-14 01:24:00,0.1,-2.1,29.85,WNW,289,0.0,0.0,90,0.00,,---,0.00,VWS V14.01,2013-01-14 08:24:00,
2013-01-14 01:25:00,0.1,-2.1,29.82,WNW,289,0.0,0.0,90,0.00,,---,0.00,VWS V14.01,2013-01-14 08:25:00,
2013-01-14 01:26:00,0.0,-2.3,29.82,WNW,289,0.0,0.0,90,0.00,,---,0.00,VWS V14.01,2013-01-14 08:26:00,
2013-01-14 01:27:00,0.0,-2.3,29.82,WNW,289,0.0,0.0,90,0.00,,---,0.00,VWS V14.01,2013-01-14 08:27:00,
2013-01-14 01:28:00,0.0,-2.3,29.82,WNW,289,0.0,0.0,90,0.00,,---,0.00,VWS V14.01,2013-01-14 08:28:00,
2013-01-14 01:29:00,0.0,-2.3,29.82,WNW,289,0.0,0.0,90,0.00,,---,0.00,VWS V14.01,2013-01-14 08:29:00,
2013-01-14 01:30:00,0.0,-2.3,29.82,WNW,289,0.0,0.0,90,0.00,,---,0.00,VWS V14.01,2013-01-14 08:30:00,
2013-01-14 01:31:00,0.0,-2.3,29.82,WNW,289,0.0,0.0,90,0.00,,---,0.00,VWS V14.01,2013-01-14 08:31:00,
2013-01-14 01:32:00,0.0,-2.3,29.82,WNW,289,0.0,0.0,90,0.00,,---,0.00,VWS V14.01,2013-01-14 08:32:00,
2013-01-14 01:33:00,0.0,-2.3,29.82,WNW,289,0.0,0.0,90,0.00,,---,0.00,VWS V14.01,2013-01-14 08:33:00,
2013-01-14 01:34:00,0.0,-2.3,29.82,WNW,289,0.0,0.0,90,0.00,,---,0.00,VWS V14.01,2013-01-14 08:34:00,
2013-01-14 01:35:00,0.0,-2.3,29.82,WNW,289,0.0,0.0,90,0.00,,---,0.00,VWS V14.01,2013-01-14 08:35:00,
2013-01-14 01:36:00,-0.2,-2.5,29.82,WNW,289,0.0,0.0,90,0.00,,---,0.00,VWS V14.01,2013-01-14 08:36:00,
2013-01-14 01:37:00,-0.2,-2.5,29.82,WNW,289,0.0,0.0,90,0.00,,---,0.00,VWS V14.01,2013-01-14 08:37:00,
2013-01-14 01:38:00,-0.4,-2.6,29.82,WNW,289,0.0,0.0,90,0.00,,---,0.00,VWS V14.01,2013-01-14 08:38:00,
2013-01-14 01:39:00,-0.4,-2.6,29.82,WNW,289,0.0,0.0,90,0.00,,---,0.00,VWS V14.01,2013-01-14 08:39:00,
2013-01-14 01:40:00,-0.6,-2.8,29.82,WNW,289,0.0,0.0,90,0.00,,---,0.00,VWS V14.01,2013-01-14 08:40:00,
2013-01-14 01:41:00,-0.6,-2.8,29.82,WNW,288,0.0,0.0,90,0.00,,---,0.00,VWS V14.01,2013-01-14 08:41:00,
2013-01-14 01:42:00,-0.6,-2.8,29.82,WNW,288,0.0,0.0,90,0.00,,---,0.00,VWS V14.01,2013-01-14 08:42:00,
2013-01-14 01:43:00,-0.6,-2.8,29.82,WNW,288,0.0,0.0,90,0.00,,---,0.00,VWS V14.01,2013-01-14 08:43:00,
2013-01-14 01:44:00,-0.6,-2.8,29.82,WNW,288,0.0,0.0,90,0.00,,---,0.00,VWS V14.01,2013-01-14 08:44:00,
2013-01-14 01:45:00,-0.6,-2.8,29.82,WNW,288,0.0,0.0,90,0.00,,---,0.00,VWS V14.01,2013-01-14 08:45:00,
2013-01-14 01:46:00,-0.6,-2.8,29.82,WNW,288,0.0,0.0,90,0.00,,---,0.00,VWS V14.01,2013-01-14 08:46:00,
2013-01-14 01:47:00,-0.6,-2.8,29.82,WNW,288,0.0,0.0,90,0.00,,---,0.00,VWS V14.01,2013-01-14 08:47:00,
2013-01-14 01:48:00,-0.6,-2.8,29.82,WNW,288,0.0,0.0,90,0.00,,---,0.00,VWS V14.01,2013-01-14 08:48:00,
2013-01-14 01:49:00,-0.6,-2.8,29.82,WNW,291,0.0,0.0,90,0.00,,---,0.00,VWS V14.01,2013-01-14 08:49:00,
2013-01-14 01:50:00,-0.6,-2.8,29.82,WNW,292,0.0,3.1,90,0.00,,---,0.00,VWS V14.01,2013-01-14 08:50:00,
2013-01-14 01:51:00,-0.6,-2.8,29.82,WNW,292,0.0,0.0,90,0.00,,---,0.00,VWS V14.01,2013-01-14 08:51:00,
2013-01-14 01:52:00,-0.6,-2.8,29.82,WNW,292,0.0,0.0,90,0.00,,---,0.00,VWS V14.01,2013-01-14 08:52:00,
2013-01-14 01:53:00,-0.6,-2.8,29.82,WNW,292,4.0,4.0,90,0.00,,---,0.00,VWS V14.01,2013-01-14 08:53:00,
2013-01-14 01:54:00,-0.8,-3.0,29.82,West,268,4.0,4.0,90,0.00,,---,0.00,VWS V14.01,2013-01-14 08:54:00,
2013-01-14 01:55:00,-0.6,-2.8,29.85,WSW,257,3.1,4.0,90,0.00,,---,0.00,VWS V14.01,2013-01-14 08:55:00,
2013-01-14 01:56:00,-0.6,-2.8,29.85,WSW,257,0.0,3.1,90,0.00,,---,0.00,VWS V14.01,2013-01-14 08:56:00,
2013-01-14 01:57:00,-0.6,-2.8,29.85,WSW,257,0.0,0.0,90,0.00,,---,0.00,VWS V14.01,2013-01-14 08:57:00,
2013-01-14 01:58:00,-0.4,-2.6,29.85,West,265,3.6,3.6,90,0.00,,---,0.00,VWS V14.01,2013-01-14 08:58:00,
2013-01-14 01:59:00,-0.4,-2.6,29.85,West,265,0.0,3.6,90,0.00,,---,0.00,VWS V14.01,2013-01-14 08:59:00,
2013-01-14 02:00:00,-0.6,-2.8,29.85,West,265,0.0,0.0,90,0.00,,---,0.00,VWS V14.01,2013-01-14 09:00:00,
2013-01-14 02:01:00,-0.6,-2.8,29.85,West,265,0.0,0.0,90,0.00,,---,0.00,VWS V14.01,2013-01-14 09:01:00,
2013-01-14 02:02:00,-0.6,-2.8,29.85,West,268,2.7,3.6,90,0.00,,---,0.00,VWS V14.01,2013-01-14 09:02:00,
2013-01-14 02:03:00,-0.6,-2.8,29.85,West,278,2.7,3.1,90,0.00,,---,0.00,VWS V14.01,2013-01-14 09:03:00,
2013-01-14 02:04:00,-0.6,-2.8,29.85,West,276,0.0,2.7,90,0.00,,---,0.00,VWS V14.01,2013-01-14 09:04:00,
2013-01-14 02:05:00,-0.6,-2.8,29.85,West,276,0.0,0.0,90,0.00,,---,0.00,VWS V14.01,2013-01-14 09:05:00,
2013-01-14 02:06:00,-0.6,-2.8,29.85,West,278,0.0,0.0,90,0.00,,---,0.00,VWS V14.01,2013-01-14 09:06:00,
2013-01-14 02:07:00,-0.6,-2.8,29.85,West,280,0.0,0.0,90,0.00,,---,0.00,VWS V14.01,2013-01-14 09:07:00,
2013-01-14 02:08:00,-0.4,-2.6,29.85,West,280,0.0,0.0,90,0.00,,---,0.00,VWS V14.01,2013-01-14 09:08:00,
2013-01-14 02:09:00,-0.4,-2.6,29.85,West,280,0.0,0.0,90,0.00,,---,0.00,VWS V14.01,2013-01-14 09:09:00,
2013-01-14 02:10:00,-0.2,-2.5,29.82,West,267,4.0,4.0,90,0.00,,---,0.00,VWS V14.01,2013-01-14 09:10:00,
2013-01-14 02:11:00,0.0,-2.3,29.82,WSW,249,2.2,4.0,90,0.00,,---,0.00,VWS V14.01,2013-01-14 09:11:00,
2013-01-14 02:12:00,0.1,-2.1,29.82,West,271,2.7,2.7,90,0.00,,---,0.00,VWS V14.01,2013-01-14 09:12:00,
2013-01-14 02:13:00,0.1,-2.1,29.82,WNW,296,4.0,4.0,90,0.00,,---,0.00,VWS V14.01,2013-01-14 09:13:00,
2013-01-14 02:14:00,0.3,-1.9,29.82,WNW,293,3.1,4.0,90,0.00,,---,0.00,VWS V14.01,2013-01-14 09:14:00,
2013-01-14 02:15:00,0.3,-1.9,29.82,WNW,293,2.7,3.1,90,0.00,,---,0.00,VWS V14.01,2013-01-14 09:15:00,
2013-01-14 02:16:00,0.3,-1.9,29.82,WNW,295,3.6,4.0,90,0.00,,---,0.00,VWS V14.01,2013-01-14 09:16:00,
2013-01-14 02:17:00,0.3,-1.9,29.82,WNW,296,4.0,4.0,90,0.00,,---,0.00,VWS V14.01,2013-01-14 09:17:00,
2013-01-14 02:18:00,0.5,-1.7,29.82,WNW,296,2.2,4.0,90,0.00,,---,0.00,VWS V14.01,2013-01-14 09:18:00,
2013-01-14 02:19:00,0.5,-1.7,29.82,West,270,4.9,4.9,90,0.00,,---,0.00,VWS V14.01,2013-01-14 09:19:00,
2013-01-14 02:20:00,0.5,-1.7,29.82,West,269,3.1,4.9,90,0.00,,---,0.00,VWS V14.01,2013-01-14 09:20:00,
2013-01-14 02:21:00,0.7,-1.6,29.82,West,268,2.7,3.6,90,0.00,,---,0.00,VWS V14.01,2013-01-14 09:21:00,
2013-01-14 02:22:00,0.7,-1.6,29.82,West,278,3.6,3.6,90,0.00,,---,0.00,VWS V14.01,2013-01-14 09:22:00,
2013-01-14 02:23:00,0.7,-1.6,29.82,WNW,289,3.1,3.6,90,0.00,,---,0.00,VWS V14.01,2013-01-14 09:23:00,
2013-01-14 02:24:00,0.7,-1.6,29.82,WSW,248,4.0,4.0,90,0.00,,---,0.00,VWS V14.01,2013-01-14 09:24:00,
2013-01-14 02:25:00,1.0,-1.2,29.82,WSW,237,4.9,5.4,90,0.00,,---,0.00,VWS V14.01,2013-01-14 09:25:00,
2013-01-14 02:26:00,1.0,-1.2,29.82,SW,233,3.6,5.8,90,0.00,,---,0.00,VWS V14.01,2013-01-14 09:26:00,
2013-01-14 02:27:00,1.2,-1.0,29.82,West,278,4.0,4.0,90,0.00,,---,0.00,VWS V14.01,2013-01-14 09:27:00,
2013-01-14 02:28:00,1.4,-0.9,29.82,West,260,4.0,5.4,90,0.00,,---,0.00,VWS V14.01,2013-01-14 09:28:00,
2013-01-14 02:29:00,1.6,-0.7,29.82,West,259,2.2,4.0,90,0.00,,---,0.00,VWS V14.01,2013-01-14 09:29:00,
2013-01-14 02:30:00,1.8,-0.5,29.82,WSW,258,3.1,3.6,90,0.00,,---,0.00,VWS V14.01,2013-01-14 09:30:00,
2013-01-14 02:31:00,1.8,-0.5,29.82,WSW,258,2.7,3.1,90,0.00,,---,0.00,VWS V14.01,2013-01-14 09:31:00,
2013-01-14 02:32:00,1.9,-0.3,29.82,WSW,258,0.0,2.7,90,0.00,,---,0.00,VWS V14.01,2013-01-14 09:32:00,
2013-01-14 02:33:00,1.9,-0.3,29.82,WSW,258,2.7,3.1,90,0.00,,---,0.00,VWS V14.01,2013-01-14 09:33:00,
2013-01-14 02:34:00,1.9,-0.3,29.82,WSW,258,3.6,3.6,90,0.00,,---,0.00,VWS V14.01,2013-01-14 09:34:00,
2013-01-14 02:35:00,1.9,-0.3,29.82,WSW,256,4.9,4.9,90,0.00,,---,0.00,VWS V14.01,2013-01-14 09:35:00,
2013-01-14 02:36:00,1.9,-0.3,29.82,WSW,256,0.0,4.9,90,0.00,,---,0.00,VWS V14.01,2013-01-14 09:36:00,
2013-01-14 02:37:00,1.9,-0.3,29.82,WSW,255,0.0,0.0,90,0.00,,---,0.00,VWS V14.01,2013-01-14 09:37:00,
2013-01-14 02:38:00,1.9,-0.3,29.82,WSW,245,4.5,4.9,90,0.00,,---,0.00,VWS V14.01,2013-01-14 09:38:00,
2013-01-14 02:39:00,2.1,-0.1,29.82,WSW,246,3.1,4.5,90,0.00,,---,0.00,VWS V14.01,2013-01-14 09:39:00,
2013-01-14 02:40:00,2.3,0.0,29.85,WSW,247,3.1,3.6,90,0.00,,---,0.00,VWS V14.01,2013-01-14 09:40:00,
2013-01-14 02:41:00,2.3,0.0,29.85,WSW,247,3.1,3.1,90,0.00,,---,0.00,VWS V14.01,2013-01-14 09:41:00,
2013-01-14 02:42:00,2.5,0.2,29.85,WSW,246,2.7,3.1,90,0.00,,---,0.00,VWS V14.01,2013-01-14 09:42:00,
2013-01-14 02:43:00,2.5,0.2,29.85,WSW,242,3.1,5.8,90,0.00,,---,0.00,VWS V14.01,2013-01-14 09:43:00,
2013-01-14 02:44:00,2.7,0.4,29.85,WSW,241,3.6,3.6,90,0.00,,---,0.00,VWS V14.01,2013-01-14 09:44:00,
2013-01-14 02:45:00,2.8,0.6,29.85,WSW,241,3.1,4.0,90,0.00,,---,0.00,VWS V14.01,2013-01-14 09:45:00,
2013-01-14 02:46:00,2.8,0.6,29.85,WSW,241,4.0,4.9,90,0.00,,---,0.00,VWS V14.01,2013-01-14 09:46:00,
2013-01-14 02:47:00,2.8,0.6,29.85,WSW,241,0.0,4.0,90,0.00,,---,0.00,VWS V14.01,2013-01-14 09:47:00,
2013-01-14 02:48:00,2.8,0.6,29.85,WSW,241,0.0,0.0,90,0.00,,---,0.00,VWS V14.01,2013-01-14 09:48:00,
2013-01-14 02:49:00,2.8,0.6,29.85,WSW,258,3.1,3.6,90,0.00,,---,0.00,VWS V14.01,2013-01-14 09:49:00,
2013-01-14 02:50:00,2.8,0.6,29.85,WSW,245,3.1,4.9,90,0.00,,---,0.00,VWS V14.01,2013-01-14 09:50:00,
2013-01-14 02:51:00,2.8,0.6,29.85,WSW,247,3.1,3.1,90,0.00,,---,0.00,VWS V14.01,2013-01-14 09:51:00,
2013-01-14 02:52:00,2.8,0.6,29.85,WSW,245,3.6,4.0,90,0.00,,---,0.00,VWS V14.01,2013-01-14 09:52:00,
2013-01-14 02:53:00,2.7,0.4,29.85,WSW,241,2.7,5.4,90,0.00,,---,0.00,VWS V14.01,2013-01-14 09:53:00,
2013-01-14 02:54:00,2.7,0.4,29.85,WSW,241,0.0,2.7,90,0.00,,---,0.00,VWS V14.01,2013-01-14 09:54:00,
2013-01-14 02:55:00,2.7,0.4,29.85,WSW,258,4.0,4.0,90,0.00,,---,0.00,VWS V14.01,2013-01-14 09:55:00,
2013-01-14 02:56:00,2.7,0.4,29.85,West,264,2.7,4.0,90,0.00,,---,0.00,VWS V14.01,2013-01-14 09:56:00,
2013-01-14 02:57:00,2.7,0.4,29.85,West,264,0.0,2.7,90,0.00,,---,0.00,VWS V14.01,2013-01-14 09:57:00,
2013-01-14 02:58:00,2.7,0.4,29.85,West,263,0.0,2.2,90,0.00,,---,0.00,VWS V14.01,2013-01-14 09:58:00,
2013-01-14 02:59:00,2.5,0.2,29.85,West,264,0.0,0.0,90,0.00,,---,0.00,VWS V14.01,2013-01-14 09:59:00,
2013-01-14 03:00:00,2.5,0.2,29.85,West,263,0.0,0.0,90,0.00,,---,0.00,VWS V14.01,2013-01-14 10:00:00,
2013-01-14 03:01:00,2.1,-0.1,29.85,West,263,2.7,3.6,90,0.00,,---,0.00,VWS V14.01,2013-01-14 10:01:00,
2013-01-14 03:02:00,2.1,-0.1,29.85,West,265,3.1,3.1,90,0.00,,---,0.00,VWS V14.01,2013-01-14 10:02:00,
2013-01-14 03:03:00,2.1,-0.1,29.85,West,266,0.0,3.6,90,0.00,,---,0.00,VWS V14.01,2013-01-14 10:03:00,
2013-01-14 03:04:00,2.5,0.2,29.85,West,267,2.2,2.2,90,0.00,,---,0.00,VWS V14.01,2013-01-14 10:04:00,
2013-01-14 03:05:00,2.5,0.2,29.85,WNW,295,0.0,3.6,90,0.00,,---,0.00,VWS V14.01,2013-01-14 10:05:00,
2013-01-14 03:06:00,2.8,0.6,29.85,WNW,295,0.0,0.0,90,0.00,,---,0.00,VWS V14.01,2013-01-14 10:06:00,
2013-01-14 03:07:00,2.8,0.6,29.85,WNW,295,0.0,2.2,90,0.00,,---,0.00,VWS V14.01,2013-01-14 10:07:00,
2013-01-14 03:08:00,3.0,0.8,29.85,WNW,295,0.0,0.0,90,0.00,,---,0.00,VWS V14.01,2013-01-14 10:08:00,
2013-01-14 03:09:00,3.0,0.8,29.85,WNW,294,0.0,0.0,90,0.00,,---,0.00,VWS V14.01,2013-01-14 10:09:00,
2013-01-14 03:10:00,2.8,0.6,29.82,WNW,294,0.0,0.0,90,0.00,,---,0.00,VWS V14.01,2013-01-14 10:10:00,
2013-01-14 03:11:00,2.8,0.6,29.82,WNW,294,0.0,0.0,90,0.00,,---,0.00,VWS V14.01,2013-01-14 10:11:00,
2013-01-14 03:12:00,2.8,0.6,29.82,WNW,294,0.0,0.0,90,0.00,,---,0.00,VWS V14.01,2013-01-14 10:12:00,
2013-01-14 03:13:00,2.8,0.6,29.82,WNW,294,0.0,0.0,90,0.00,,---,0.00,VWS V14.01,2013-01-14 10:13:00,
2013-01-14 03:14:00,2.7,0.4,29.82,WNW,294,0.0,0.0,90,0.00,,---,0.00,VWS V14.01,2013-01-14 10:14:00,
2013-01-14 03:15:00,2.5,0.2,29.82,WNW,295,0.0,0.0,90,0.00,,---,0.00,VWS V14.01,2013-01-14 10:15:00,
2013-01-14 03:16:00,2.5,0.2,29.82,WNW,294,0.0,0.0,90,0.00,,---,0.00,VWS V14.01,2013-01-14 10:16:00,
2013-01-14 03:17:00,2.3,0.0,29.82,WNW,294,0.0,0.0,90,0.00,,---,0.00,VWS V14.01,2013-01-14 10:17:00,
2013-01-14 03:18:00,2.1,-0.1,29.82,WNW,294,0.0,0.0,90,0.00,,---,0.00,VWS V14.01,2013-01-14 10:18:00,
2013-01-14 03:19:00,2.1,-0.1,29.82,WNW,294,0.0,0.0,90,0.00,,---,0.00,VWS V14.01,2013-01-14 10:19:00,
2013-01-14 03:20:00,1.9,-0.3,29.82,WNW,294,0.0,0.0,90,0.00,,---,0.00,VWS V14.01,2013-01-14 10:20:00,
2013-01-14 03:21:00,1.9,-0.3,29.82,WNW,294,0.0,0.0,90,0.00,,---,0.00,VWS V14.01,2013-01-14 10:21:00,
2013-01-14 03:22:00,1.9,-0.3,29.82,WNW,294,0.0,0.0,90,0.00,,---,0.00,VWS V14.01,2013-01-14 10:22:00,
2013-01-14 03:23:00,1.8,-0.5,29.82,WNW,294,0.0,0.0,90,0.00,,---,0.00,VWS V14.01,2013-01-14 10:23:00,
2013-01-14 03:24:00,1.8,-0.5,29.82,WNW,294,0.0,0.0,90,0.00,,---,0.00,VWS V14.01,2013-01-14 10:24:00,
2013-01-14 03:25:00,1.6,-0.7,29.85,WNW,294,0.0,0.0,90,0.00,,---,0.00,VWS V14.01,2013-01-14 10:25:00,
2013-01-14 03:26:00,1.6,-0.7,29.85,WNW,294,0.0,0.0,90,0.00,,---,0.00,VWS V14.01,2013-01-14 10:26:00,
2013-01-14 03:27:00,1.6,-0.7,29.85,WNW,294,0.0,0.0,90,0.00,,---,0.00,VWS V14.01,2013-01-14 10:27:00,
2013-01-14 03:28:00,1.4,-0.9,29.85,WNW,294,0.0,0.0,90,0.00,,---,0.00,VWS V14.01,2013-01-14 10:28:00,
2013-01-14 03:29:00,1.2,-1.0,29.85,WNW,294,0.0,0.0,90,0.00,,---,0.00,VWS V14.01,2013-01-14 10:29:00,
2013-01-14 03:30:00,1.2,-1.0,29.85,WNW,294,0.0,0.0,90,0.00,,---,0.00,VWS V14.01,2013-01-14 10:30:00,
2013-01-14 03:31:00,1.2,-1.0,29.85,WNW,294,0.0,0.0,90,0.00,,---,0.00,VWS V14.01,2013-01-14 10:31:00,
2013-01-14 03:32:00,1.2,-1.0,29.85,WNW,294,0.0,0.0,90,0.00,,---,0.00,VWS V14.01,2013-01-14 10:32:00,
2013-01-14 03:33:00,1.2,-1.0,29.85,WNW,294,0.0,0.0,90,0.00,,---,0.00,VWS V14.01,2013-01-14 10:33:00,
2013-01-14 03:34:00,1.0,-1.2,29.85,WNW,294,0.0,0.0,90,0.00,,---,0.00,VWS V14.01,2013-01-14 10:34:00,
2013-01-14 03:35:00,1.0,-1.2,29.85,WNW,294,0.0,0.0,90,0.00,,---,0.00,VWS V14.01,2013-01-14 10:35:00,
2013-01-14 03:36:00,1.0,-1.2,29.85,WNW,293,3.1,3.1,90,0.00,,---,0.00,VWS V14.01,2013-01-14 10:36:00,
2013-01-14 03:37:00,1.0,-1.2,29.85,WNW,293,3.1,3.1,90,0.00,,---,0.00,VWS V14.01,2013-01-14 10:37:00,
2013-01-14 03:38:00,1.0,-1.2,29.85,WNW,290,3.1,3.1,90,0.00,,---,0.00,VWS V14.01,2013-01-14 10:38:00,
2013-01-14 03:39:00,1.2,-1.0,29.85,WNW,284,4.0,4.0,90,0.00,,---,0.00,VWS V14.01,2013-01-14 10:39:00,
2013-01-14 03:40:00,1.2,-1.0,29.82,West,269,3.1,4.0,90,0.00,,---,0.00,VWS V14.01,2013-01-14 10:40:00,
2013-01-14 03:41:00,1.6,-0.7,29.82,West,269,3.6,3.6,90,0.00,,---,0.00,VWS V14.01,2013-01-14 10:41:00,
2013-01-14 03:42:00,1.6,-0.7,29.82,West,262,5.4,5.4,90,0.00,,---,0.00,VWS V14.01,2013-01-14 10:42:00,
2013-01-14 03:43:00,1.8,-0.5,29.82,SW,227,5.4,5.8,90,0.00,,---,0.00,VWS V14.01,2013-01-14 10:43:00,
2013-01-14 03:44:00,1.9,-0.3,29.82,WNW,297,3.1,5.4,90,0.00,,---,0.00,VWS V14.01,2013-01-14 10:44:00,
2013-01-14 03:45:00,2.3,0.0,29.82,WNW,294,2.2,3.1,90,0.00,,---,0.00,VWS V14.01,2013-01-14 10:45:00,
2013-01-14 03:46:00,2.5,0.2,29.82,WSW,252,4.0,4.9,90,0.00,,---,0.00,VWS V14.01,2013-01-14 10:46:00,
2013-01-14 03:47:00,2.5,0.2,29.82,WSW,258,3.1,4.0,90,0.00,,---,0.00,VWS V14.01,2013-01-14 10:47:00,
2013-01-14 03:48:00,2.5,0.2,29.82,WSW,248,5.4,5.4,90,0.00,,---,0.00,VWS V14.01,2013-01-14 10:48:00,
2013-01-14 03:49:00,2.7,0.4,29.82,West,269,3.6,5.4,90,0.00,,---,0.00,VWS V14.01,2013-01-14 10:49:00,
2013-01-14 03:50:00,2.7,0.4,29.82,WSW,255,5.4,5.4,90,0.00,,---,0.00,VWS V14.01,2013-01-14 10:50:00,
2013-01-14 03:51:00,2.8,0.6,29.82,WSW,245,4.0,5.4,90,0.00,,---,0.00,VWS V14.01,2013-01-14 10:51:00,
2013-01-14 03:52:00,2.8,0.6,29.82,WSW,256,3.1,4.0,90,0.00,,---,0.00,VWS V14.01,2013-01-14 10:52:00,
2013-01-14 03:53:00,3.0,0.8,29.82,WSW,252,3.6,4.9,90,0.00,,---,0.00,VWS V14.01,2013-01-14 10:53:00,
2013-01-14 03:54:00,3.2,0.9,29.82,WSW,252,2.7,4.0,90,0.00,,---,0.00,VWS V14.01,2013-01-14 10:54:00,
2013-01-14 03:55:00,3.2,0.9,29.85,WSW,247,4.9,4.9,90,0.00,,---,0.00,VWS V14.01,2013-01-14 10:55:00,
2013-01-14 03:56:00,3.2,0.9,29.85,WSW,255,3.1,4.9,90,0.00,,---,0.00,VWS V14.01,2013-01-14 10:56:00,
2013-01-14 03:57:00,3.2,0.9,29.85,WSW,251,2.7,4.9,90,0.00,,---,0.00,VWS V14.01,2013-01-14 10:57:00,
2013-01-14 03:58:00,3.4,1.1,29.85,SW,236,4.0,4.0,90,0.00,,---,0.00,VWS V14.01,2013-01-14 10:58:00,
2013-01-14 03:59:00,3.4,1.1,29.85,West,259,4.0,4.0,90,0.00,,---,0.00,VWS V14.01,2013-01-14 10:59:00,
2013-01-14 04:00:00,3.6,1.3,29.85,WSW,250,3.1,4.0,90,0.00,,---,0.00,VWS V14.01,2013-01-14 11:00:00,
2013-01-14 04:01:00,3.6,1.3,29.85,WSW,239,4.9,4.9,90,0.00,,---,0.00,VWS V14.01,2013-01-14 11:01:00,
2013-01-14 04:02:00,3.7,1.5,29.85,SW,231,5.4,5.8,90,0.00,,---,0.00,VWS V14.01,2013-01-14 11:02:00,
2013-01-14 04:03:00,3.7,1.5,29.85,SW,227,3.1,5.4,90,0.00,,---,0.00,VWS V14.01,2013-01-14 11:03:00,
2013-01-14 04:04:00,3.7,1.5,29.85,SW,224,5.8,5.8,90,0.00,,---,0.00,VWS V14.01,2013-01-14 11:04:00,
2013-01-14 04:05:00,3.9,1.6,29.85,WSW,252,2.2,5.8,90,0.00,,---,0.00,VWS V14.01,2013-01-14 11:05:00,
2013-01-14 04:06:00,3.9,1.6,29.85,SW,218,5.4,5.4,90,0.00,,---,0.00,VWS V14.01,2013-01-14 11:06:00,
2013-01-14 04:07:00,4.1,1.8,29.85,SW,233,3.1,5.8,90,0.00,,---,0.00,VWS V14.01,2013-01-14 11:07:00,
2013-01-14 04:08:00,4.1,1.8,29.85,SW,233,0.0,3.1,90,0.00,,---,0.00,VWS V14.01,2013-01-14 11:08:00,
2013-01-14 04:09:00,4.1,1.8,29.85,WSW,237,4.0,4.0,90,0.00,,---,0.00,VWS V14.01,2013-01-14 11:09:00,
2013-01-14 04:10:00,4.1,1.8,29.85,West,268,0.0,4.0,90,0.00,,---,0.00,VWS V14.01,2013-01-14 11:10:00,
2013-01-14 04:11:00,4.1,1.8,29.85,NW,305,4.0,4.0,90,0.00,,---,0.00,VWS V14.01,2013-01-14 11:11:00,
2013-01-14 04:12:00,4.1,1.8,29.85,WSW,241,5.8,6.3,90,0.00,,---,0.00,VWS V14.01,2013-01-14 11:12:00,
2013-01-14 04:13:00,4.5,2.2,29.85,West,262,3.1,5.8,90,0.00,,---,0.00,VWS V14.01,2013-01-14 11:13:00,
2013-01-14 04:14:00,4.5,2.2,29.85,West,264,2.7,3.1,90,0.00,,---,0.00,VWS V14.01,2013-01-14 11:14:00,
2013-01-14 04:15:00,4.5,2.2,29.85,WSW,255,4.0,5.4,90,0.00,,---,0.00,VWS V14.01,2013-01-14 11:15:00,
2013-01-14 04:16:00,4.6,2.4,29.85,WSW,252,0.0,4.0,90,0.00,,---,0.00,VWS V14.01,2013-01-14 11:16:00,
2013-01-14 04:17:00,4.8,2.5,29.85,WSW,252,0.0,3.1,90,0.00,,---,0.00,VWS V14.01,2013-01-14 11:17:00,
2013-01-14 04:18:00,4.8,2.5,29.85,WSW,251,2.2,3.1,90,0.00,,---,0.00,VWS V14.01,2013-01-14 11:18:00,
2013-01-14 04:19:00,4.6,2.4,29.85,West,265,4.9,4.9,90,0.00,,---,0.00,VWS V14.01,2013-01-14 11:19:00,
2013-01-14 04:20:00,4.6,2.4,29.85,West,279,4.9,5.4,90,0.00,,---,0.00,VWS V14.01,2013-01-14 11:20:00,
2013-01-14 04:21:00,4.8,2.5,29.85,WNW,282,0.0,4.9,90,0.00,,---,0.00,VWS V14.01,2013-01-14 11:21:00,
2013-01-14 04:22:00,4.8,2.5,29.85,WSW,247,3.6,3.6,90,0.00,,---,0.00,VWS V14.01,2013-01-14 11:22:00,
2013-01-14 04:23:00,4.8,2.5,29.85,WSW,249,2.7,3.6,90,0.00,,---,0.00,VWS V14.01,2013-01-14 11:23:00,
2013-01-14 04:24:00,4.8,2.5,29.85,SSW,204,6.3,6.3,90,0.00,,---,0.00,VWS V14.01,2013-01-14 11:24:00,
2013-01-14 04:25:00,4.8,2.5,29.85,WNW,295,0.0,6.3,90,0.00,,---,0.00,VWS V14.01,2013-01-14 11:25:00,
2013-01-14 04:26:00,4.8,2.5,29.85,WSW,244,3.1,5.8,90,0.00,,---,0.00,VWS V14.01,2013-01-14 11:26:00,
2013-01-14 04:27:00,4.8,2.5,29.85,West,279,3.1,4.0,90,0.00,,---,0.00,VWS V14.01,2013-01-14 11:27:00,
2013-01-14 04:28:00,5.0,2.7,29.85,West,263,3.1,4.0,90,0.00,,---,0.00,VWS V14.01,2013-01-14 11:28:00,
2013-01-14 04:29:00,5.0,2.7,29.85,West,263,2.7,5.4,90,0.00,,---,0.00,VWS V14.01,2013-01-14 11:29:00,
2013-01-14 04:30:00,5.0,2.7,29.85,West,263,3.6,3.6,90,0.00,,---,0.00,VWS V14.01,2013-01-14 11:30:00,
2013-01-14 04:31:00,5.0,2.7,29.85,West,265,2.2,3.6,90,0.00,,---,0.00,VWS V14.01,2013-01-14 11:31:00,
2013-01-14 04:32:00,5.0,2.7,29.85,WSW,257,4.9,6.3,90,0.00,,---,0.00,VWS V14.01,2013-01-14 11:32:00,
2013-01-14 04:33:00,5.0,2.7,29.85,WNW,292,4.0,4.9,90,0.00,,---,0.00,VWS V14.01,2013-01-14 11:33:00,
2013-01-14 04:34:00,5.0,2.7,29.85,West,277,3.1,4.0,90,0.00,,---,0.00,VWS V14.01,2013-01-14 11:34:00,
2013-01-14 04:35:00,5.0,2.7,29.85,WNW,295,2.2,5.8,90,0.00,,---,0.00,VWS V14.01,2013-01-14 11:35:00,
2013-01-14 04:36:00,5.0,2.7,29.85,West,270,3.6,5.8,90,0.00,,---,0.00,VWS V14.01,2013-01-14 11:36:00,
2013-01-14 04:37:00,5.0,2.7,29.85,West,268,4.0,5.4,90,0.00,,---,0.00,VWS V14.01,2013-01-14 11:37:00,
2013-01-14 04:38:00,5.0,2.7,29.85,West,273,3.1,4.0,90,0.00,,---,0.00,VWS V14.01,2013-01-14 11:38:00,
2013-01-14 04:39:00,5.0,2.7,29.85,West,266,4.0,6.3,90,0.00,,---,0.00,VWS V14.01,2013-01-14 11:39:00,
2013-01-14 04:40:00,5.0,2.7,29.82,West,261,5.4,6.3,90,0.00,,---,0.00,VWS V14.01,2013-01-14 11:40:00,
2013-01-14 04:41:00,5.0,2.7,29.82,WSW,256,4.9,5.4,90,0.00,,---,0.00,VWS V14.01,2013-01-14 11:41:00,
2013-01-14 04:42:00,5.0,2.7,29.82,West,276,5.8,6.3,90,0.00,,---,0.00,VWS V14.01,2013-01-14 11:42:00,
2013-01-14 04:43:00,5.0,2.7,29.82,WNW,294,5.4,5.8,90,0.00,,---,0.00,VWS V14.01,2013-01-14 11:43:00,
2013-01-14 04:44:00,5.0,2.7,29.82,WSW,252,4.0,5.4,90,0.00,,---,0.00,VWS V14.01,2013-01-14 11:44:00,
2013-01-14 04:45:00,4.8,2.5,29.82,WNW,286,4.9,5.8,90,0.00,,---,0.00,VWS V14.01,2013-01-14 11:45:00,
2013-01-14 04:46:00,4.8,2.5,29.82,West,259,8.7,8.7,90,0.00,,---,0.00,VWS V14.01,2013-01-14 11:46:00,
2013-01-14 04:47:00,4.8,2.5,29.82,WNW,303,6.3,8.7,90,0.00,,---,0.00,VWS V14.01,2013-01-14 11:47:00,
2013-01-14 04:48:00,4.8,2.5,29.82,West,279,8.3,8.3,90,0.00,,---,0.00,VWS V14.01,2013-01-14 11:48:00,
2013-01-14 04:49:00,4.8,2.5,29.82,West,267,6.3,8.3,90,0.00,,---,0.00,VWS V14.01,2013-01-14 11:49:00,
2013-01-14 04:50:00,5.0,2.7,29.82,West,262,6.3,6.3,90,0.00,,---,0.00,VWS V14.01,2013-01-14 11:50:00,
2013-01-14 04:51:00,4.8,2.5,29.82,WNW,299,3.6,6.3,90,0.00,,---,0.00,VWS V14.01,2013-01-14 11:51:00,
2013-01-14 04:52:00,4.8,2.5,29.82,WNW,287,0.0,3.6,90,0.00,,---,0.00,VWS V14.01,2013-01-14 11:52:00,
2013-01-14 04:53:00,4.6,2.4,29.82,WSW,241,3.6,4.0,90,0.00,,---,0.00,VWS V14.01,2013-01-14 11:53:00,
2013-01-14 04:54:00,4.6,2.4,29.82,WNW,282,4.0,5.4,90,0.00,,---,0.00,VWS V14.01,2013-01-14 11:54:00,
2013-01-14 04:55:00,4.6,2.4,29.82,WSW,238,6.3,6.3,90,0.00,,---,0.00,VWS V14.01,2013-01-14 11:55:00,
2013-01-14 04:56:00,4.5,2.2,29.82,WSW,240,0.0,6.3,90,0.00,,---,0.00,VWS V14.01,2013-01-14 11:56:00,
2013-01-14 04:57:00,4.5,2.2,29.82,West,274,2.2,5.8,90,0.00,,---,0.00,VWS V14.01,2013-01-14 11:57:00,
2013-01-14 04:58:00,4.5,2.2,29.82,SW,229,0.0,3.6,90,0.00,,---,0.00,VWS V14.01,2013-01-14 11:58:00,
2013-01-14 04:59:00,4.5,2.2,29.82,West,263,3.6,3.6,90,0.00,,---,0.00,VWS V14.01,2013-01-14 11:59:00,
2013-01-14 05:00:00,4.5,2.2,29.82,West,261,2.7,3.6,90,0.00,,---,0.00,VWS V14.01,2013-01-14 12:00:00,
2013-01-14 05:01:00,4.3,2.0,29.82,WSW,248,3.6,3.6,90,0.00,,---,0.00,VWS V14.01,2013-01-14 12:01:00,
2013-01-14 05:02:00,4.1,1.8,29.82,SW,216,0.0,3.6,90,0.00,,---,0.00,VWS V14.01,2013-01-14 12:02:00,
2013-01-14 05:03:00,4.1,1.8,29.82,SW,233,4.0,6.3,90,0.00,,---,0.00,VWS V14.01,2013-01-14 12:03:00,
2013-01-14 05:04:00,4.1,1.8,29.82,SW,224,0.0,4.0,90,0.00,,---,0.00,VWS V14.01,2013-01-14 12:04:00,
2013-01-14 05:05:00,3.9,1.6,29.82,SW,222,3.1,3.1,90,0.00,,---,0.00,VWS V14.01,2013-01-14 12:05:00,
2013-01-14 05:06:00,3.9,1.6,29.82,SW,222,0.0,3.1,90,0.00,,---,0.00,VWS V14.01,2013-01-14 12:06:00,
2013-01-14 05:07:00,3.9,1.6,29.82,West,274,2.2,5.8,90,0.00,,---,0.00,VWS V14.01,2013-01-14 12:07:00,
2013-01-14 05:08:00,3.7,1.5,29.82,WSW,244,6.3,7.6,90,0.00,,---,0.00,VWS V14.01,2013-01-14 12:08:00,
2013-01-14 05:09:00,3.7,1.5,29.82,West,265,3.6,6.3,90,0.00,,---,0.00,VWS V14.01,2013-01-14 12:09:00,
2013-01-14 05:10:00,4.1,1.8,29.82,WSW,252,4.9,4.9,90,0.00,,---,0.00,VWS V14.01,2013-01-14 12:10:00,
2013-01-14 05:11:00,4.3,2.0,29.82,SW,235,6.3,6.3,90,0.00,,---,0.00,VWS V14.01,2013-01-14 12:11:00,
2013-01-14 05:12:00,4.3,2.0,29.82,WNW,299,4.0,6.3,90,0.00,,---,0.00,VWS V14.01,2013-01-14 12:12:00,
2013-01-14 05:13:00,4.5,2.2,29.82,WNW,299,0.0,4.0,90,0.00,,---,0.00,VWS V14.01,2013-01-14 12:13:00,
2013-01-14 05:14:00,4.5,2.2,29.82,SW,227,5.8,5.8,90,0.00,,---,0.00,VWS V14.01,2013-01-14 12:14:00,
2013-01-14 05:15:00,4.5,2.2,29.82,SW,226,4.9,6.3,90,0.00,,---,0.00,VWS V14.01,2013-01-14 12:15:00,
2013-01-14 05:16:00,4.5,2.2,29.82,SW,222,0.0,4.9,90,0.00,,---,0.00,VWS V14.01,2013-01-14 12:16:00,
2013-01-14 05:17:00,4.5,2.2,29.82,SW,222,0.0,2.2,90,0.00,,---,0.00,VWS V14.01,2013-01-14 12:17:00,
2013-01-14 05:18:00,4.5,2.2,29.82,West,265,3.6,4.0,90,0.00,,---,0.00,VWS V14.01,2013-01-14 12:18:00,
2013-01-14 05:19:00,4.5,2.2,29.82,SSW,210,3.1,6.7,90,0.00,,---,0.00,VWS V14.01,2013-01-14 12:19:00,
2013-01-14 05:20:00,4.5,2.2,29.82,SE,129,2.7,4.0,90,0.00,,---,0.00,VWS V14.01,2013-01-14 12:20:00,
2013-01-14 05:21:00,4.5,2.2,29.82,SE,142,0.0,3.6,90,0.00,,---,0.00,VWS V14.01,2013-01-14 12:21:00,
2013-01-14 05:22:00,4.6,2.4,29.82,South,189,0.0,0.0,90,0.00,,---,0.00,VWS V14.01,2013-01-14 12:22:00,
2013-01-14 05:23:00,4.6,2.4,29.82,South,189,0.0,0.0,90,0.00,,---,0.00,VWS V14.01,2013-01-14 12:23:00,
2013-01-14 05:24:00,4.5,2.2,29.82,SSW,195,0.0,0.0,90,0.00,,---,0.00,VWS V14.01,2013-01-14 12:24:00,
2013-01-14 05:25:00,4.5,2.2,29.82,SSW,195,0.0,0.0,90,0.00,,---,0.00,VWS V14.01,2013-01-14 12:25:00,
2013-01-14 05:26:00,4.5,2.2,29.82,SSW,195,0.0,0.0,90,0.00,,---,0.00,VWS V14.01,2013-01-14 12:26:00,
2013-01-14 05:27:00,4.3,2.0,29.82,SSW,195,0.0,0.0,90,0.00,,---,0.00,VWS V14.01,2013-01-14 12:27:00,
2013-01-14 05:28:00,4.3,2.0,29.82,SSW,195,0.0,0.0,90,0.00,,---,0.00,VWS V14.01,2013-01-14 12:28:00,
2013-01-14 05:29:00,3.9,1.6,29.82,SSW,195,0.0,0.0,90,0.00,,---,0.00,VWS V14.01,2013-01-14 12:29:00,
2013-01-14 05:30:00,3.9,1.6,29.82,SSW,198,0.0,0.0,90,0.00,,---,0.00,VWS V14.01,2013-01-14 12:30:00,
2013-01-14 05:31:00,3.7,1.5,29.82,SSW,196,0.0,0.0,90,0.00,,---,0.00,VWS V14.01,2013-01-14 12:31:00,
2013-01-14 05:32:00,3.2,0.9,29.82,SSW,196,0.0,0.0,90,0.00,,---,0.00,VWS V14.01,2013-01-14 12:32:00,
2013-01-14 05:33:00,3.2,0.9,29.82,SSW,195,0.0,0.0,90,0.00,,---,0.00,VWS V14.01,2013-01-14 12:33:00,
2013-01-14 05:34:00,3.0,0.8,29.82,SSW,196,0.0,0.0,90,0.00,,---,0.00,VWS V14.01,2013-01-14 12:34:00,
2013-01-14 05:35:00,2.8,0.6,29.82,SSW,196,0.0,0.0,90,0.00,,---,0.00,VWS V14.01,2013-01-14 12:35:00,
2013-01-14 05:36:00,2.8,0.6,29.82,SSW,195,0.0,0.0,90,0.00,,---,0.00,VWS V14.01,2013-01-14 12:36:00,
2013-01-14 05:37:00,2.8,0.6,29.82,SSW,196,0.0,0.0,90,0.00,,---,0.00,VWS V14.01,2013-01-14 12:37:00,
2013-01-14 05:38:00,2.7,0.4,29.82,SSW,195,0.0,0.0,90,0.00,,---,0.00,VWS V14.01,2013-01-14 12:38:00,
2013-01-14 05:39:00,2.7,0.4,29.82,SSW,195,0.0,0.0,90,0.00,,---,0.00,VWS V14.01,2013-01-14 12:39:00,
2013-01-14 05:40:00,2.5,0.2,29.79,NE,52,0.0,0.0,90,0.00,,---,0.00,VWS V14.01,2013-01-14 12:40:00,
2013-01-14 05:41:00,2.5,0.2,29.79,NE,46,3.6,3.6,90,0.00,,---,0.00,VWS V14.01,2013-01-14 12:41:00,
2013-01-14 05:42:00,2.5,0.2,29.79,NE,46,0.0,3.6,90,0.00,,---,0.00,VWS V14.01,2013-01-14 12:42:00,
2013-01-14 05:43:00,2.5,0.2,29.79,NE,46,0.0,0.0,90,0.00,,---,0.00,VWS V14.01,2013-01-14 12:43:00,
2013-01-14 05:44:00,2.3,0.0,29.79,NE,46,0.0,0.0,90,0.00,,---,0.00,VWS V14.01,2013-01-14 12:44:00,
2013-01-14 05:45:00,2.3,0.0,29.79,ENE,68,0.0,0.0,90,0.00,,---,0.00,VWS V14.01,2013-01-14 12:45:00,
2013-01-14 05:46:00,2.3,0.0,29.79,ENE,76,0.0,0.0,90,0.00,,---,0.00,VWS V14.01,2013-01-14 12:46:00,
2013-01-14 05:47:00,2.3,0.0,29.79,ENE,76,0.0,0.0,90,0.00,,---,0.00,VWS V14.01,2013-01-14 12:47:00,
2013-01-14 05:48:00,2.3,0.0,29.79,ENE,76,0.0,0.0,90,0.00,,---,0.00,VWS V14.01,2013-01-14 12:48:00,
2013-01-14 05:49:00,2.3,0.0,29.79,ENE,76,0.0,0.0,90,0.00,,---,0.00,VWS V14.01,2013-01-14 12:49:00,
2013-01-14 05:50:00,2.3,0.0,29.79,ENE,76,0.0,0.0,90,0.00,,---,0.00,VWS V14.01,2013-01-14 12:50:00,
2013-01-14 05:51:00,2.3,0.0,29.79,ENE,76,0.0,0.0,90,0.00,,---,0.00,VWS V14.01,2013-01-14 12:51:00,
2013-01-14 05:52:00,2.1,-0.1,29.79,ENE,76,0.0,0.0,90,0.00,,---,0.00,VWS V14.01,2013-01-14 12:52:00,
2013-01-14 05:53:00,2.1,-0.1,29.79,ENE,76,0.0,0.0,90,0.00,,---,0.00,VWS V14.01,2013-01-14 12:53:00,
2013-01-14 05:54:00,2.1,-0.1,29.79,ENE,76,0.0,0.0,90,0.00,,---,0.00,VWS V14.01,2013-01-14 12:54:00,
2013-01-14 05:55:00,1.9,-0.3,29.82,ENE,76,0.0,0.0,90,0.00,,---,0.00,VWS V14.01,2013-01-14 12:55:00,
2013-01-14 05:56:00,1.9,-0.3,29.82,ENE,77,0.0,0.0,90,0.00,,---,0.00,VWS V14.01,2013-01-14 12:56:00,
2013-01-14 05:57:00,1.9,-0.3,29.82,ENE,77,0.0,0.0,90,0.00,,---,0.00,VWS V14.01,2013-01-14 12:57:00,
2013-01-14 05:58:00,1.9,-0.3,29.82,ENE,77,0.0,0.0,90,0.00,,---,0.00,VWS V14.01,2013-01-14 12:58:00,
2013-01-14 05:59:00,1.9,-0.3,29.82,ENE,77,0.0,0.0,90,0.00,,---,0.00,VWS V14.01,2013-01-14 12:59:00,
2013-01-14 06:00:00,1.9,-0.3,29.82,ENE,78,0.0,0.0,90,0.00,,---,0.00,VWS V14.01,2013-01-14 13:00:00,
2013-01-14 06:01:00,1.8,-0.5,29.82,ENE,78,0.0,0.0,90,0.00,,---,0.00,VWS V14.01,2013-01-14 13:01:00,
2013-01-14 06:02:00,1.6,-0.7,29.82,East,83,0.0,0.0,90,0.00,,---,0.00,VWS V14.01,2013-01-14 13:02:00,
2013-01-14 06:03:00,1.6,-0.7,29.82,SE,128,0.0,0.0,90,0.00,,---,0.00,VWS V14.01,2013-01-14 13:03:00,
2013-01-14 06:04:00,1.2,-1.0,29.82,SE,133,0.0,0.0,90,0.00,,---,0.00,VWS V14.01,2013-01-14 13:04:00,
2013-01-14 06:05:00,1.2,-1.0,29.82,SE,133,0.0,0.0,90,0.00,,---,0.00,VWS V14.01,2013-01-14 13:05:00,
2013-01-14 06:06:00,1.2,-1.0,29.82,South,182,0.0,0.0,90,0.00,,---,0.00,VWS V14.01,2013-01-14 13:06:00,
2013-01-14 06:07:00,1.0,-1.2,29.82,SSW,200,0.0,0.0,90,0.00,,---,0.00,VWS V14.01,2013-01-14 13:07:00,
2013-01-14 06:08:00,0.9,-1.4,29.82,SSW,200,0.0,0.0,90,0.00,,---,0.00,VWS V14.01,2013-01-14 13:08:00,
2013-01-14 06:09:00,0.7,-1.6,29.82,SSW,200,0.0,0.0,90,0.00,,---,0.00,VWS V14.01,2013-01-14 13:09:00,
2013-01-14 06:10:00,0.7,-1.6,29.82,SSW,200,0.0,0.0,90,0.00,,---,0.00,VWS V14.01,2013-01-14 13:10:00,
2013-01-14 06:11:00,0.7,-1.6,29.82,SSW,200,0.0,0.0,90,0.00,,---,0.00,VWS V14.01,2013-01-14 13:11:00,
2013-01-14 06:12:00,0.5,-1.7,29.82,SSW,198,0.0,0.0,90,0.00,,---,0.00,VWS V14.01,2013-01-14 13:12:00,
2013-01-14 06:13:00,0.3,-1.9,29.82,South,170,0.0,0.0,90,0.00,,---,0.00,VWS V14.01,2013-01-14 13:13:00,
2013-01-14 06:14:00,0.3,-1.9,29.82,SSE,168,0.0,0.0,90,0.00,,---,0.00,VWS V14.01,2013-01-14 13:14:00,
2013-01-14 06:15:00,0.3,-1.9,29.82,SSE,168,0.0,0.0,90,0.00,,---,0.00,VWS V14.01,2013-01-14 13:15:00,
2013-01-14 06:16:00,0.1,-2.1,29.82,SSE,168,0.0,0.0,90,0.00,,---,0.00,VWS V14.01,2013-01-14 13:16:00,
2013-01-14 06:17:00,0.1,-2.1,29.82,SSE,168,0.0,0.0,90,0.00,,---,0.00,VWS V14.01,2013-01-14 13:17:00,
2013-01-14 06:18:00,0.1,-2.1,29.82,SSE,168,0.0,0.0,90,0.00,,---,0.00,VWS V14.01,2013-01-14 13:18:00,
2013-01-14 06:19:00,0.0,-2.3,29.82,SSE,168,0.0,0.0,90,0.00,,---,0.00,VWS V14.01,2013-01-14 13:19:00,
2013-01-14 06:20:00,0.0,-2.3,29.82,SSE,168,0.0,0.0,90,0.00,,---,0.00,VWS V14.01,2013-01-14 13:20:00,
2013-01-14 06:21:00,-0.2,-2.5,29.82,SSE,168,0.0,0.0,90,0.00,,---,0.00,VWS V14.01,2013-01-14 13:21:00,
2013-01-14 06:22:00,-0.2,-2.5,29.82,SSE,168,0.0,0.0,90,0.00,,---,0.00,VWS V14.01,2013-01-14 13:22:00,
2013-01-14 06:23:00,-0.4,-2.6,29.82,SSE,168,0.0,0.0,90,0.00,,---,0.00,VWS V14.01,2013-01-14 13:23:00,
2013-01-14 06:24:00,-0.4,-2.6,29.82,SSE,168,0.0,0.0,90,0.00,,---,0.00,VWS V14.01,2013-01-14 13:24:00,
2013-01-14 06:25:00,-0.6,-2.8,29.82,SSE,168,0.0,0.0,90,0.00,,---,0.00,VWS V14.01,2013-01-14 13:25:00,
2013-01-14 06:26:00,-0.6,-2.8,29.82,SSE,168,0.0,0.0,90,0.00,,---,0.00,VWS V14.01,2013-01-14 13:26:00,
2013-01-14 06:27:00,-0.6,-2.8,29.82,SSE,168,0.0,0.0,90,0.00,,---,0.00,VWS V14.01,2013-01-14 13:27:00,
2013-01-14 06:28:00,-0.8,-3.0,29.82,South,169,0.0,0.0,90,0.00,,---,0.00,VWS V14.01,2013-01-14 13:28:00,
2013-01-14 06:29:00,-0.8,-3.0,29.82,South,169,0.0,0.0,90,0.00,,---,0.00,VWS V14.01,2013-01-14 13:29:00,
2013-01-14 06:30:00,-0.8,-3.0,29.82,South,169,0.0,0.0,90,0.00,,---,0.00,VWS V14.01,2013-01-14 13:30:00,
2013-01-14 06:31:00,-0.8,-3.0,29.82,South,169,0.0,0.0,90,0.00,,---,0.00,VWS V14.01,2013-01-14 13:31:00,
2013-01-14 06:32:00,-0.8,-3.0,29.82,South,169,0.0,0.0,90,0.00,,---,0.00,VWS V14.01,2013-01-14 13:32:00,
2013-01-14 06:33:00,-0.8,-3.0,29.82,South,169,0.0,0.0,90,0.00,,---,0.00,VWS V14.01,2013-01-14 13:33:00,
2013-01-14 06:34:00,-0.8,-3.0,29.82,South,169,0.0,0.0,90,0.00,,---,0.00,VWS V14.01,2013-01-14 13:34:00,
2013-01-14 06:35:00,-0.8,-3.0,29.82,South,169,0.0,0.0,90,0.00,,---,0.00,VWS V14.01,2013-01-14 13:35:00,
2013-01-14 06:36:00,-0.6,-2.8,29.82,South,169,0.0,0.0,90,0.00,,---,0.00,VWS V14.01,2013-01-14 13:36:00,
2013-01-14 06:37:00,-0.6,-2.8,29.82,South,169,0.0,0.0,90,0.00,,---,0.00,VWS V14.01,2013-01-14 13:37:00,
2013-01-14 06:38:00,-0.6,-2.8,29.82,South,169,0.0,0.0,90,0.00,,---,0.00,VWS V14.01,2013-01-14 13:38:00,
2013-01-14 06:39:00,-0.6,-2.8,29.82,South,169,0.0,0.0,90,0.00,,---,0.00,VWS V14.01,2013-01-14 13:39:00,
2013-01-14 06:40:00,-0.6,-2.8,29.82,South,169,0.0,0.0,90,0.00,,---,0.00,VWS V14.01,2013-01-14 13:40:00,
2013-01-14 06:41:00,-0.4,-2.6,29.82,South,169,0.0,0.0,90,0.00,,---,0.00,VWS V14.01,2013-01-14 13:41:00,
2013-01-14 06:42:00,-0.2,-2.5,29.82,South,169,0.0,0.0,90,0.00,,---,0.00,VWS V14.01,2013-01-14 13:42:00,
2013-01-14 06:43:00,0.0,-2.3,29.82,South,169,0.0,0.0,90,0.00,,---,0.00,VWS V14.01,2013-01-14 13:43:00,
2013-01-14 06:44:00,0.0,-2.3,29.82,South,169,0.0,0.0,90,0.00,,---,0.00,VWS V14.01,2013-01-14 13:44:00,
2013-01-14 06:45:00,0.0,-2.3,29.82,South,169,0.0,0.0,90,0.00,,---,0.00,VWS V14.01,2013-01-14 13:45:00,
2013-01-14 06:46:00,-0.2,-2.5,29.82,South,169,0.0,0.0,90,0.00,,---,0.00,VWS V14.01,2013-01-14 13:46:00,
2013-01-14 06:47:00,-0.2,-2.5,29.82,South,169,0.0,0.0,90,0.00,,---,0.00,VWS V14.01,2013-01-14 13:47:00,
2013-01-14 06:48:00,-0.2,-2.5,29.82,South,169,0.0,0.0,90,0.00,,---,0.00,VWS V14.01,2013-01-14 13:48:00,
2013-01-14 06:49:00,-0.4,-2.6,29.82,South,169,0.0,0.0,90,0.00,,---,0.00,VWS V14.01,2013-01-14 13:49:00,
2013-01-14 06:50:00,-0.4,-2.6,29.82,South,169,0.0,0.0,90,0.00,,---,0.00,VWS V14.01,2013-01-14 13:50:00,
2013-01-14 06:51:00,-0.6,-2.8,29.82,South,170,0.0,0.0,90,0.00,,---,0.00,VWS V14.01,2013-01-14 13:51:00,
2013-01-14 06:52:00,-0.6,-2.8,29.82,South,169,0.0,0.0,90,0.00,,---,0.00,VWS V14.01,2013-01-14 13:52:00,
2013-01-14 06:53:00,-0.6,-2.8,29.82,South,170,0.0,0.0,90,0.00,,---,0.00,VWS V14.01,2013-01-14 13:53:00,
2013-01-14 06:54:00,-0.6,-2.8,29.82,South,170,0.0,0.0,90,0.00,,---,0.00,VWS V14.01,2013-01-14 13:54:00,
2013-01-14 06:55:00,-0.8,-3.0,29.82,South,170,0.0,0.0,90,0.00,,---,0.00,VWS V14.01,2013-01-14 13:55:00,
2013-01-14 06:56:00,-0.8,-3.0,29.82,South,177,0.0,0.0,90,0.00,,---,0.00,VWS V14.01,2013-01-14 13:56:00,
2013-01-14 06:57:00,-0.8,-3.0,29.82,South,177,0.0,0.0,90,0.00,,---,0.00,VWS V14.01,2013-01-14 13:57:00,
2013-01-14 06:58:00,-0.9,-3.2,29.82,South,177,0.0,0.0,90,0.00,,---,0.00,VWS V14.01,2013-01-14 13:58:00,
2013-01-14 06:59:00,-0.8,-3.0,29.82,South,177,0.0,0.0,90,0.00,,---,0.00,VWS V14.01,2013-01-14 13:59:00,
2013-01-14 07:00:00,-0.8,-3.0,29.82,South,177,0.0,0.0,90,0.00,,---,0.00,VWS V14.01,2013-01-14 14:00:00,
2013-01-14 07:01:00,-0.8,-3.0,29.82,South,177,0.0,0.0,90,0.00,,---,0.00,VWS V14.01,2013-01-14 14:01:00,
2013-01-14 07:02:00,-0.8,-3.0,29.82,South,177,0.0,0.0,90,0.00,,---,0.00,VWS V14.01,2013-01-14 14:02:00,
2013-01-14 07:03:00,-0.6,-2.8,29.82,South,177,0.0,0.0,90,0.00,,---,0.00,VWS V14.01,2013-01-14 14:03:00,
2013-01-14 07:04:00,-0.6,-2.8,29.82,South,177,0.0,0.0,90,0.00,,---,0.00,VWS V14.01,2013-01-14 14:04:00,
2013-01-14 07:05:00,-0.6,-2.8,29.82,South,187,0.0,0.0,90,0.00,,---,0.00,VWS V14.01,2013-01-14 14:05:00,
2013-01-14 07:06:00,-0.6,-2.8,29.82,West,272,0.0,3.6,90,0.00,,---,0.00,VWS V14.01,2013-01-14 14:06:00,
2013-01-14 07:07:00,-0.4,-2.6,29.82,West,272,0.0,0.0,90,0.00,,---,0.00,VWS V14.01,2013-01-14 14:07:00,
2013-01-14 07:08:00,-0.4,-2.6,29.82,West,272,0.0,0.0,90,0.00,,---,0.00,VWS V14.01,2013-01-14 14:08:00,
2013-01-14 07:09:00,-0.2,-2.5,29.82,West,272,0.0,0.0,90,0.00,,---,0.00,VWS V14.01,2013-01-14 14:09:00,
2013-01-14 07:10:00,-0.2,-2.5,29.82,West,272,0.0,0.0,90,0.00,,---,0.00,VWS V14.01,2013-01-14 14:10:00,
2013-01-14 07:11:00,-0.2,-2.5,29.82,West,272,0.0,0.0,90,0.00,,---,0.00,VWS V14.01,2013-01-14 14:11:00,
2013-01-14 07:12:00,0.0,-2.3,29.82,West,272,0.0,0.0,90,0.00,,---,0.00,VWS V14.01,2013-01-14 14:12:00,
2013-01-14 07:13:00,0.0,-2.3,29.82,West,272,0.0,0.0,90,0.00,,---,0.00,VWS V14.01,2013-01-14 14:13:00,
2013-01-14 07:14:00,0.0,-2.3,29.82,West,272,0.0,0.0,90,0.00,,---,0.00,VWS V14.01,2013-01-14 14:14:00,
2013-01-14 07:15:00,-0.2,-2.5,29.82,West,272,0.0,0.0,90,0.00,,---,0.00,VWS V14.01,2013-01-14 14:15:00,
2013-01-14 07:16:00,-0.2,-2.5,29.82,West,273,0.0,0.0,90,0.00,,---,0.00,VWS V14.01,2013-01-14 14:16:00,
2013-01-14 07:17:00,-0.2,-2.5,29.82,West,273,0.0,0.0,90,0.00,,---,0.00,VWS V14.01,2013-01-14 14:17:00,
2013-01-14 07:18:00,-0.2,-2.5,29.82,West,273,0.0,0.0,90,0.00,,---,0.00,VWS V14.01,2013-01-14 14:18:00,
2013-01-14 07:19:00,-0.2,-2.5,29.82,West,273,0.0,0.0,90,0.00,,---,0.00,VWS V14.01,2013-01-14 14:19:00,
2013-01-14 07:20:00,-0.2,-2.5,29.82,West,273,0.0,0.0,90,0.00,,---,0.00,VWS V14.01,2013-01-14 14:20:00,
2013-01-14 07:21:00,-0.2,-2.5,29.82,West,273,0.0,0.0,90,0.00,,---,0.00,VWS V14.01,2013-01-14 14:21:00,
2013-01-14 07:22:00,-0.2,-2.5,29.82,West,273,0.0,0.0,90,0.00,,---,0.00,VWS V14.01,2013-01-14 14:22:00,
2013-01-14 07:23:00,-0.2,-2.5,29.82,West,273,0.0,0.0,90,0.00,,---,0.00,VWS V14.01,2013-01-14 14:23:00,
2013-01-14 07:24:00,0.0,-2.3,29.82,West,273,0.0,0.0,90,0.00,,---,0.00,VWS V14.01,2013-01-14 14:24:00,
2013-01-14 07:25:00,0.0,-2.3,29.82,West,273,0.0,0.0,90,0.00,,---,0.00,VWS V14.01,2013-01-14 14:25:00,
2013-01-14 07:26:00,0.0,-2.3,29.82,West,273,0.0,0.0,90,0.00,,---,0.00,VWS V14.01,2013-01-14 14:26:00,
2013-01-14 07:27:00,0.0,-2.3,29.82,West,273,0.0,0.0,90,0.00,,---,0.00,VWS V14.01,2013-01-14 14:27:00,
2013-01-14 07:28:00,0.0,-2.3,29.82,West,273,0.0,0.0,90,0.00,,---,0.00,VWS V14.01,2013-01-14 14:28:00,
2013-01-14 07:29:00,0.0,-2.3,29.82,West,273,0.0,0.0,90,0.00,,---,0.00,VWS V14.01,2013-01-14 14:29:00,
2013-01-14 07:30:00,-0.2,-2.5,29.82,West,273,0.0,0.0,90,0.00,,---,0.00,VWS V14.01,2013-01-14 14:30:00,
2013-01-14 07:31:00,-0.2,-2.5,29.82,West,273,0.0,0.0,90,0.00,,---,0.00,VWS V14.01,2013-01-14 14:31:00,
2013-01-14 07:32:00,-0.2,-2.5,29.82,West,273,0.0,0.0,90,0.00,,---,0.00,VWS V14.01,2013-01-14 14:32:00,
2013-01-14 07:33:00,-0.2,-2.5,29.82,West,273,0.0,0.0,90,0.00,,---,0.00,VWS V14.01,2013-01-14 14:33:00,
2013-01-14 07:34:00,0.0,-2.3,29.82,West,273,0.0,0.0,90,0.00,,---,0.00,VWS V14.01,2013-01-14 14:34:00,
2013-01-14 07:35:00,0.0,-2.3,29.82,West,273,0.0,0.0,90,0.00,,---,0.00,VWS V14.01,2013-01-14 14:35:00,
2013-01-14 07:36:00,0.0,-2.3,29.82,West,273,0.0,0.0,90,0.00,,---,0.00,VWS V14.01,2013-01-14 14:36:00,
2013-01-14 07:37:00,0.0,-2.3,29.82,West,273,0.0,0.0,90,0.00,,---,0.00,VWS V14.01,2013-01-14 14:37:00,
2013-01-14 07:38:00,0.0,-2.3,29.82,West,273,0.0,0.0,90,0.00,,---,0.00,VWS V14.01,2013-01-14 14:38:00,
2013-01-14 07:39:00,0.0,-2.3,29.82,West,273,0.0,0.0,90,0.00,,---,0.00,VWS V14.01,2013-01-14 14:39:00,
2013-01-14 07:40:00,0.0,-2.3,29.82,West,273,0.0,0.0,90,0.00,,---,0.00,VWS V14.01,2013-01-14 14:40:00,
2013-01-14 07:41:00,0.0,-2.3,29.82,West,273,0.0,0.0,90,0.00,,---,0.00,VWS V14.01,2013-01-14 14:41:00,
2013-01-14 07:42:00,0.0,-2.3,29.82,West,273,0.0,0.0,90,0.00,,---,0.00,VWS V14.01,2013-01-14 14:42:00,
2013-01-14 07:43:00,0.1,-2.1,29.82,West,273,0.0,0.0,90,0.00,,---,0.00,VWS V14.01,2013-01-14 14:43:00,
2013-01-14 07:44:00,0.1,-2.1,29.82,West,272,0.0,2.2,90,0.00,,---,0.00,VWS V14.01,2013-01-14 14:44:00,
2013-01-14 07:45:00,0.3,-1.9,29.82,West,267,0.0,0.0,90,0.00,,---,0.00,VWS V14.01,2013-01-14 14:45:00,
2013-01-14 07:46:00,0.3,-1.9,29.82,West,267,0.0,0.0,90,0.00,,---,0.00,VWS V14.01,2013-01-14 14:46:00,
2013-01-14 07:47:00,0.5,-1.7,29.82,West,267,0.0,0.0,90,0.00,,---,0.00,VWS V14.01,2013-01-14 14:47:00,
2013-01-14 07:48:00,0.5,-1.7,29.82,West,267,0.0,0.0,90,0.00,,---,0.00,VWS V14.01,2013-01-14 14:48:00,
2013-01-14 07:49:00,0.7,-1.6,29.82,West,267,0.0,0.0,90,0.00,,---,0.00,VWS V14.01,2013-01-14 14:49:00,
2013-01-14 07:50:00,0.7,-1.6,29.82,West,267,0.0,0.0,90,0.00,,---,0.00,VWS V14.01,2013-01-14 14:50:00,
2013-01-14 07:51:00,0.7,-1.6,29.82,West,267,0.0,0.0,90,0.00,,---,0.00,VWS V14.01,2013-01-14 14:51:00,
2013-01-14 07:52:00,0.7,-1.6,29.82,West,267,0.0,0.0,90,0.00,,---,0.00,VWS V14.01,2013-01-14 14:52:00,
2013-01-14 07:53:00,0.9,-1.4,29.82,West,267,0.0,0.0,90,0.00,,---,0.00,VWS V14.01,2013-01-14 14:53:00,
2013-01-14 07:54:00,0.9,-1.4,29.82,West,267,0.0,0.0,90,0.00,,---,0.00,VWS V14.01,2013-01-14 14:54:00,
2013-01-14 07:55:00,1.0,-1.2,29.82,West,267,0.0,0.0,90,0.00,,---,0.00,VWS V14.01,2013-01-14 14:55:00,
2013-01-14 07:56:00,1.0,-1.2,29.82,West,267,0.0,0.0,90,0.00,,---,0.00,VWS V14.01,2013-01-14 14:56:00,
2013-01-14 07:57:00,1.2,-1.0,29.82,West,267,0.0,0.0,90,0.00,,---,0.00,VWS V14.01,2013-01-14 14:57:00,
2013-01-14 07:58:00,1.2,-1.0,29.82,West,267,0.0,0.0,90,0.00,,---,0.00,VWS V14.01,2013-01-14 14:58:00,
2013-01-14 07:59:00,1.4,-0.9,29.82,West,267,0.0,0.0,90,0.00,,---,0.00,VWS V14.01,2013-01-14 14:59:00,
2013-01-14 08:00:00,1.4,-0.9,29.82,West,267,0.0,0.0,90,0.00,,---,0.00,VWS V14.01,2013-01-14 15:00:00,
2013-01-14 08:01:00,1.6,-0.7,29.82,West,267,0.0,0.0,90,0.00,,---,0.00,VWS V14.01,2013-01-14 15:01:00,
2013-01-14 08:02:00,1.6,-0.7,29.82,West,267,0.0,0.0,90,0.00,,---,0.00,VWS V14.01,2013-01-14 15:02:00,
2013-01-14 08:03:00,1.8,-0.5,29.82,West,267,0.0,0.0,90,0.00,,---,0.00,VWS V14.01,2013-01-14 15:03:00,
2013-01-14 08:04:00,1.8,-0.5,29.82,West,267,0.0,0.0,90,0.00,,---,0.00,VWS V14.01,2013-01-14 15:04:00,
2013-01-14 08:05:00,1.9,-0.3,29.82,West,267,0.0,0.0,90,0.00,,---,0.00,VWS V14.01,2013-01-14 15:05:00,
2013-01-14 08:06:00,1.9,-0.3,29.82,West,267,0.0,0.0,90,0.00,,---,0.00,VWS V14.01,2013-01-14 15:06:00,
2013-01-14 08:07:00,1.9,-0.3,29.82,West,267,0.0,0.0,90,0.00,,---,0.00,VWS V14.01,2013-01-14 15:07:00,
2013-01-14 08:08:00,1.9,-0.3,29.82,West,267,0.0,0.0,90,0.00,,---,0.00,VWS V14.01,2013-01-14 15:08:00,
2013-01-14 08:09:00,1.9,-0.3,29.82,West,267,0.0,0.0,90,0.00,,---,0.00,VWS V14.01,2013-01-14 15:09:00,
2013-01-14 08:10:00,2.1,-0.1,29.82,West,267,0.0,0.0,90,0.00,,---,0.00,VWS V14.01,2013-01-14 15:10:00,
2013-01-14 08:11:00,2.1,-0.1,29.82,West,267,0.0,0.0,90,0.00,,---,0.00,VWS V14.01,2013-01-14 15:11:00,
2013-01-14 08:12:00,2.3,0.0,29.82,West,267,0.0,0.0,90,0.00,,---,0.00,VWS V14.01,2013-01-14 15:12:00,
2013-01-14 08:13:00,2.5,0.2,29.82,West,267,0.0,0.0,90,0.00,,---,0.00,VWS V14.01,2013-01-14 15:13:00,
2013-01-14 08:14:00,2.5,0.2,29.82,West,267,0.0,0.0,90,0.00,,---,0.00,VWS V14.01,2013-01-14 15:14:00,
2013-01-14 08:15:00,2.5,0.2,29.82,West,267,0.0,0.0,90,0.00,,---,0.00,VWS V14.01,2013-01-14 15:15:00,
2013-01-14 08:16:00,2.7,0.4,29.82,West,267,0.0,0.0,90,0.00,,---,0.00,VWS V14.01,2013-01-14 15:16:00,
2013-01-14 08:17:00,2.7,0.4,29.82,West,267,0.0,0.0,90,0.00,,---,0.00,VWS V14.01,2013-01-14 15:17:00,
2013-01-14 08:18:00,2.8,0.6,29.82,West,267,0.0,0.0,90,0.00,,---,0.00,VWS V14.01,2013-01-14 15:18:00,
2013-01-14 08:19:00,2.8,0.6,29.82,West,267,0.0,0.0,90,0.00,,---,0.00,VWS V14.01,2013-01-14 15:19:00,
2013-01-14 08:21:00,3.0,0.8,29.82,West,271,0.0,0.0,90,0.00,,---,0.00,VWS V14.01,2013-01-14 15:21:00,
2013-01-14 08:22:00,3.2,0.9,29.82,West,272,0.0,0.0,90,0.00,,---,0.00,VWS V14.01,2013-01-14 15:22:00,
2013-01-14 08:23:00,3.2,0.9,29.82,West,272,0.0,0.0,90,0.00,,---,0.00,VWS V14.01,2013-01-14 15:23:00,
2013-01-14 08:24:00,3.2,0.9,29.82,West,272,0.0,0.0,90,0.00,,---,0.00,VWS V14.01,2013-01-14 15:24:00,
2013-01-14 08:26:00,3.4,1.1,29.79,West,272,0.0,0.0,90,0.00,,---,0.00,VWS V14.01,2013-01-14 15:26:00,
2013-01-14 08:27:00,3.6,1.3,29.79,West,272,0.0,0.0,90,0.00,,---,0.00,VWS V14.01,2013-01-14 15:27:00,
2013-01-14 08:28:00,3.6,1.3,29.79,West,272,0.0,0.0,90,0.00,,---,0.00,VWS V14.01,2013-01-14 15:28:00,
2013-01-14 08:29:00,3.6,1.3,29.79,West,272,0.0,0.0,90,0.00,,---,0.00,VWS V14.01,2013-01-14 15:29:00,
2013-01-14 08:30:00,3.7,1.5,29.79,West,272,0.0,0.0,90,0.00,,---,0.00,VWS V14.01,2013-01-14 15:30:00,
2013-01-14 08:31:00,3.7,1.5,29.79,West,271,0.0,0.0,90,0.00,,---,0.00,VWS V14.01,2013-01-14 15:31:00,
2013-01-14 08:32:00,3.7,1.5,29.79,West,272,0.0,0.0,90,0.00,,---,0.00,VWS V14.01,2013-01-14 15:32:00,
2013-01-14 08:33:00,3.7,1.5,29.79,West,272,0.0,0.0,90,0.00,,---,0.00,VWS V14.01,2013-01-14 15:33:00,
2013-01-14 08:34:00,3.7,1.5,29.79,West,272,0.0,0.0,90,0.00,,---,0.00,VWS V14.01,2013-01-14 15:34:00,
2013-01-14 08:35:00,3.7,1.5,29.79,West,272,0.0,0.0,90,0.00,,---,0.00,VWS V14.01,2013-01-14 15:35:00,
2013-01-14 08:36:00,3.9,1.6,29.79,West,272,0.0,0.0,90,0.00,,---,0.00,VWS V14.01,2013-01-14 15:36:00,
2013-01-14 08:37:00,3.9,1.6,29.79,West,272,0.0,0.0,90,0.00,,---,0.00,VWS V14.01,2013-01-14 15:37:00,
2013-01-14 08:38:00,4.1,1.8,29.79,West,272,0.0,0.0,90,0.00,,---,0.00,VWS V14.01,2013-01-14 15:38:00,
2013-01-14 08:39:00,4.1,1.8,29.79,West,280,0.0,0.0,90,0.00,,---,0.00,VWS V14.01,2013-01-14 15:39:00,
2013-01-14 08:40:00,4.3,2.0,29.79,West,280,0.0,0.0,90,0.00,,---,0.00,VWS V14.01,2013-01-14 15:40:00,
2013-01-14 08:41:00,4.5,2.2,29.79,West,280,0.0,0.0,90,0.00,,---,0.00,VWS V14.01,2013-01-14 15:41:00,
2013-01-14 08:42:00,4.5,2.2,29.79,West,280,0.0,0.0,90,0.00,,---,0.00,VWS V14.01,2013-01-14 15:42:00,
2013-01-14 08:43:00,4.5,2.2,29.79,West,280,0.0,0.0,90,0.00,,---,0.00,VWS V14.01,2013-01-14 15:43:00,
2013-01-14 08:44:00,4.5,2.2,29.79,West,279,0.0,0.0,90,0.00,,---,0.00,VWS V14.01,2013-01-14 15:44:00,
2013-01-14 08:45:00,4.6,2.4,29.79,West,270,0.0,0.0,90,0.00,,---,0.00,VWS V14.01,2013-01-14 15:45:00,
2013-01-14 08:46:00,4.6,2.4,29.79,West,270,3.1,3.6,90,0.00,,---,0.00,VWS V14.01,2013-01-14 15:46:00,
2013-01-14 08:47:00,4.6,2.4,29.79,West,270,0.0,3.1,90,0.00,,---,0.00,VWS V14.01,2013-01-14 15:47:00,
2013-01-14 08:48:00,4.6,2.4,29.79,West,270,0.0,0.0,90,0.00,,---,0.00,VWS V14.01,2013-01-14 15:48:00,
2013-01-14 08:49:00,4.6,2.4,29.79,West,270,0.0,0.0,90,0.00,,---,0.00,VWS V14.01,2013-01-14 15:49:00,
2013-01-14 08:50:00,4.6,2.4,29.79,West,270,0.0,0.0,90,0.00,,---,0.00,VWS V14.01,2013-01-14 15:50:00,
2013-01-14 08:51:00,4.8,2.5,29.79,West,270,0.0,0.0,90,0.00,,---,0.00,VWS V14.01,2013-01-14 15:51:00,
2013-01-14 08:52:00,4.8,2.5,29.79,West,270,0.0,0.0,90,0.00,,---,0.00,VWS V14.01,2013-01-14 15:52:00,
2013-01-14 08:53:00,4.8,2.5,29.79,West,270,0.0,0.0,90,0.00,,---,0.00,VWS V14.01,2013-01-14 15:53:00,
2013-01-14 08:54:00,4.8,2.5,29.79,West,270,0.0,0.0,90,0.00,,---,0.00,VWS V14.01,2013-01-14 15:54:00,
2013-01-14 08:55:00,5.0,2.7,29.79,West,270,0.0,0.0,90,0.00,,---,0.00,VWS V14.01,2013-01-14 15:55:00,
2013-01-14 08:56:00,5.0,2.7,29.79,West,270,0.0,0.0,90,0.00,,---,0.00,VWS V14.01,2013-01-14 15:56:00,
2013-01-14 08:57:00,5.0,2.7,29.79,West,270,0.0,0.0,90,0.00,,---,0.00,VWS V14.01,2013-01-14 15:57:00,
2013-01-14 08:58:00,5.0,2.7,29.79,West,270,0.0,0.0,90,0.00,,---,0.00,VWS V14.01,2013-01-14 15:58:00,
2013-01-14 08:59:00,5.0,2.7,29.79,West,270,0.0,0.0,90,0.00,,---,0.00,VWS V14.01,2013-01-14 15:59:00,
2013-01-14 09:00:00,5.0,2.7,29.79,West,270,0.0,0.0,90,0.00,,---,0.00,VWS V14.01,2013-01-14 16:00:00,
2013-01-14 09:01:00,5.2,2.9,29.79,West,270,0.0,0.0,90,0.00,,---,0.00,VWS V14.01,2013-01-14 16:01:00,
2013-01-14 09:02:00,5.2,2.9,29.79,West,270,0.0,0.0,90,0.00,,---,0.00,VWS V14.01,2013-01-14 16:02:00,
2013-01-14 09:03:00,5.4,3.1,29.79,West,270,0.0,0.0,90,0.00,,---,0.00,VWS V14.01,2013-01-14 16:03:00,
2013-01-14 09:04:00,5.4,3.1,29.79,West,271,0.0,0.0,90,0.00,,---,0.00,VWS V14.01,2013-01-14 16:04:00,
2013-01-14 09:05:00,5.4,3.1,29.79,West,273,0.0,0.0,90,0.00,,---,0.00,VWS V14.01,2013-01-14 16:05:00,
2013-01-14 09:06:00,5.4,3.1,29.79,West,273,0.0,0.0,90,0.00,,---,0.00,VWS V14.01,2013-01-14 16:06:00,
2013-01-14 09:07:00,5.5,3.2,29.79,West,273,0.0,0.0,90,0.00,,---,0.00,VWS V14.01,2013-01-14 16:07:00,
2013-01-14 09:08:00,5.5,3.2,29.79,West,273,0.0,0.0,90,0.00,,---,0.00,VWS V14.01,2013-01-14 16:08:00,
2013-01-14 09:09:00,5.5,3.2,29.79,West,273,0.0,0.0,90,0.00,,---,0.00,VWS V14.01,2013-01-14 16:09:00,
2013-01-14 09:10:00,5.7,3.4,29.79,West,273,0.0,0.0,90,0.00,,---,0.00,VWS V14.01,2013-01-14 16:10:00,
2013-01-14 09:11:00,5.7,3.4,29.79,West,273,0.0,0.0,90,0.00,,---,0.00,VWS V14.01,2013-01-14 16:11:00,
2013-01-14 09:12:00,5.9,3.6,29.79,West,273,0.0,0.0,90,0.00,,---,0.00,VWS V14.01,2013-01-14 16:12:00,
2013-01-14 09:13:00,5.9,3.6,29.79,West,273,0.0,0.0,90,0.00,,---,0.00,VWS V14.01,2013-01-14 16:13:00,
2013-01-14 09:14:00,5.9,3.6,29.79,West,273,0.0,0.0,90,0.00,,---,0.00,VWS V14.01,2013-01-14 16:14:00,
2013-01-14 09:15:00,5.9,3.6,29.79,West,273,0.0,0.0,90,0.00,,---,0.00,VWS V14.01,2013-01-14 16:15:00,
2013-01-14 09:16:00,6.1,3.8,29.79,West,273,0.0,0.0,90,0.00,,---,0.00,VWS V14.01,2013-01-14 16:16:00,
2013-01-14 09:17:00,6.1,3.8,29.79,West,273,0.0,0.0,90,0.00,,---,0.00,VWS V14.01,2013-01-14 16:17:00,
2013-01-14 09:18:00,6.1,3.8,29.79,West,273,0.0,0.0,90,0.00,,---,0.00,VWS V14.01,2013-01-14 16:18:00,
2013-01-14 09:19:00,6.1,3.8,29.79,West,273,0.0,0.0,90,0.00,,---,0.00,VWS V14.01,2013-01-14 16:19:00,
2013-01-14 09:20:00,6.3,4.0,29.79,West,273,0.0,0.0,90,0.00,,---,0.00,VWS V14.01,2013-01-14 16:20:00,
2013-01-14 09:21:00,6.3,4.0,29.79,West,273,0.0,0.0,90,0.00,,---,0.00,VWS V14.01,2013-01-14 16:21:00,
2013-01-14 09:22:00,6.3,4.0,29.79,West,273,0.0,0.0,90,0.00,,---,0.00,VWS V14.01,2013-01-14 16:22:00,
2013-01-14 09:23:00,6.3,4.0,29.79,West,273,0.0,0.0,90,0.00,,---,0.00,VWS V14.01,2013-01-14 16:23:00,
2013-01-14 09:24:00,6.3,4.0,29.79,West,273,0.0,0.0,90,0.00,,---,0.00,VWS V14.01,2013-01-14 16:24:00,
2013-01-14 09:25:00,6.4,4.1,29.79,West,273,0.0,0.0,90,0.00,,---,0.00,VWS V14.01,2013-01-14 16:25:00,
2013-01-14 09:26:00,6.4,4.1,29.79,West,273,0.0,0.0,90,0.00,,---,0.00,VWS V14.01,2013-01-14 16:26:00,
2013-01-14 09:27:00,6.4,4.1,29.79,West,273,0.0,0.0,90,0.00,,---,0.00,VWS V14.01,2013-01-14 16:27:00,
2013-01-14 09:28:00,6.4,4.1,29.79,West,273,0.0,0.0,90,0.00,,---,0.00,VWS V14.01,2013-01-14 16:28:00,
2013-01-14 09:29:00,6.6,4.3,29.79,West,274,0.0,0.0,90,0.00,,---,0.00,VWS V14.01,2013-01-14 16:29:00,
2013-01-14 09:30:00,6.8,4.5,29.79,West,274,0.0,0.0,90,0.00,,---,0.00,VWS V14.01,2013-01-14 16:30:00,
2013-01-14 09:31:00,6.8,4.5,29.79,NNW,327,0.0,0.0,90,0.00,,---,0.00,VWS V14.01,2013-01-14 16:31:00,
2013-01-14 09:32:00,7.0,4.7,29.79,NNE,23,0.0,3.1,90,0.00,,---,0.00,VWS V14.01,2013-01-14 16:32:00,
2013-01-14 09:33:00,7.0,4.7,29.79,NNE,31,0.0,2.2,90,0.00,,---,0.00,VWS V14.01,2013-01-14 16:33:00,
2013-01-14 09:34:00,7.2,4.8,29.79,NE,37,0.0,0.0,90,0.00,,---,0.00,VWS V14.01,2013-01-14 16:34:00,
2013-01-14 09:35:00,7.2,4.8,29.79,NE,38,0.0,0.0,90,0.00,,---,0.00,VWS V14.01,2013-01-14 16:35:00,
2013-01-14 09:36:00,7.5,5.2,29.79,ENE,65,0.0,0.0,90,0.00,,---,0.00,VWS V14.01,2013-01-14 16:36:00,
2013-01-14 09:37:00,7.5,5.2,29.79,ENE,65,0.0,0.0,90,0.00,,---,0.00,VWS V14.01,2013-01-14 16:37:00,
2013-01-14 09:38:00,7.7,5.4,29.79,ENE,65,0.0,0.0,90,0.00,,---,0.00,VWS V14.01,2013-01-14 16:38:00,
2013-01-14 09:39:00,7.7,5.4,29.79,NE,45,2.7,6.3,90,0.00,,---,0.00,VWS V14.01,2013-01-14 16:39:00,
2013-01-14 09:40:00,7.9,5.6,29.82,NW,308,3.6,4.0,90,0.00,,---,0.00,VWS V14.01,2013-01-14 16:40:00,
2013-01-14 09:41:00,8.1,5.7,29.82,NW,308,0.0,3.6,90,0.00,,---,0.00,VWS V14.01,2013-01-14 16:41:00,
2013-01-14 09:42:00,8.1,5.7,29.82,NW,308,0.0,0.0,90,0.00,,---,0.00,VWS V14.01,2013-01-14 16:42:00,
2013-01-14 09:43:00,8.2,5.9,29.82,NW,308,0.0,0.0,90,0.00,,---,0.00,VWS V14.01,2013-01-14 16:43:00,
2013-01-14 09:44:00,8.2,5.9,29.82,NW,308,0.0,0.0,90,0.00,,---,0.00,VWS V14.01,2013-01-14 16:44:00,
2013-01-14 09:45:00,8.4,6.1,29.82,NW,308,0.0,0.0,90,0.00,,---,0.00,VWS V14.01,2013-01-14 16:45:00,
2013-01-14 09:46:00,8.4,6.1,29.82,NW,308,2.2,2.7,90,0.00,,---,0.00,VWS V14.01,2013-01-14 16:46:00,
2013-01-14 09:47:00,8.4,6.1,29.82,NW,308,0.0,2.2,90,0.00,,---,0.00,VWS V14.01,2013-01-14 16:47:00,
2013-01-14 09:48:00,8.4,6.1,29.82,NW,308,0.0,0.0,90,0.00,,---,0.00,VWS V14.01,2013-01-14 16:48:00,
2013-01-14 09:49:00,8.6,6.3,29.82,WNW,295,2.7,6.3,90,0.00,,---,0.00,VWS V14.01,2013-01-14 16:49:00,
2013-01-14 09:50:00,8.6,6.3,29.82,NW,310,0.0,2.7,90,0.00,,---,0.00,VWS V14.01,2013-01-14 16:50:00,
2013-01-14 09:51:00,8.8,6.4,29.82,WNW,302,0.0,0.0,90,0.00,,---,0.00,VWS V14.01,2013-01-14 16:51:00,
2013-01-14 09:52:00,8.8,6.4,29.82,SSW,209,3.6,4.5,90,0.00,,---,0.00,VWS V14.01,2013-01-14 16:52:00,
2013-01-14 09:53:00,9.0,6.6,29.82,West,264,5.4,6.3,90,0.00,,---,0.00,VWS V14.01,2013-01-14 16:53:00,
2013-01-14 09:54:00,9.1,6.8,29.82,WSW,249,3.1,5.8,90,0.00,,---,0.00,VWS V14.01,2013-01-14 16:54:00,
2013-01-14 09:55:00,9.1,6.8,29.82,SW,228,5.4,5.4,90,0.00,,---,0.00,VWS V14.01,2013-01-14 16:55:00,
2013-01-14 09:56:00,9.3,7.0,29.82,SW,229,3.1,5.4,90,0.00,,---,0.00,VWS V14.01,2013-01-14 16:56:00,
2013-01-14 09:57:00,9.3,7.0,29.82,SW,229,0.0,3.1,90,0.00,,---,0.00,VWS V14.01,2013-01-14 16:57:00,
2013-01-14 09:58:00,9.5,7.2,29.82,SSW,198,2.7,5.8,90,0.00,,---,0.00,VWS V14.01,2013-01-14 16:58:00,
2013-01-14 09:59:00,9.5,7.2,29.82,SE,144,4.0,6.3,90,0.00,,---,0.00,VWS V14.01,2013-01-14 16:59:00,
2013-01-14 10:00:00,9.5,7.2,29.82,SW,236,4.0,5.4,90,0.00,,---,0.00,VWS V14.01,2013-01-14 17:00:00,
2013-01-14 10:01:00,9.7,7.3,29.82,SW,235,0.0,4.0,90,0.00,,---,0.00,VWS V14.01,2013-01-14 17:01:00,
2013-01-14 10:02:00,9.7,7.3,29.82,SW,235,0.0,0.0,90,0.00,,---,0.00,VWS V14.01,2013-01-14 17:02:00,
2013-01-14 10:03:00,9.7,7.3,29.82,SSW,205,0.0,0.0,90,0.00,,---,0.00,VWS V14.01,2013-01-14 17:03:00,
2013-01-14 10:04:00,9.7,7.3,29.82,SSW,205,0.0,0.0,90,0.00,,---,0.00,VWS V14.01,2013-01-14 17:04:00,
2013-01-14 10:05:00,9.7,7.3,29.82,SSW,205,0.0,0.0,90,0.00,,---,0.00,VWS V14.01,2013-01-14 17:05:00,
2013-01-14 10:06:00,9.9,7.5,29.82,SSW,198,0.0,0.0,90,0.00,,---,0.00,VWS V14.01,2013-01-14 17:06:00,
2013-01-14 10:07:00,9.9,7.5,29.82,SE,141,0.0,0.0,90,0.00,,---,0.00,VWS V14.01,2013-01-14 17:07:00,
2013-01-14 10:08:00,9.9,7.5,29.82,SE,141,0.0,0.0,90,0.00,,---,0.00,VWS V14.01,2013-01-14 17:08:00,
2013-01-14 10:09:00,10.0,7.7,29.82,SE,141,0.0,0.0,90,0.00,,---,0.00,VWS V14.01,2013-01-14 17:09:00,
2013-01-14 10:10:00,10.0,7.7,29.79,SE,141,0.0,0.0,90,0.00,,---,0.00,VWS V14.01,2013-01-14 17:10:00,
2013-01-14 10:11:00,10.0,7.7,29.79,SE,142,0.0,0.0,90,0.00,,---,0.00,VWS V14.01,2013-01-14 17:11:00,
2013-01-14 10:12:00,10.0,7.7,29.79,SE,141,0.0,0.0,90,0.00,,---,0.00,VWS V14.01,2013-01-14 17:12:00,
2013-01-14 10:13:00,10.0,7.7,29.79,SE,141,0.0,0.0,90,0.00,,---,0.00,VWS V14.01,2013-01-14 17:13:00,
2013-01-14 10:14:00,10.0,7.7,29.79,ESE,118,4.0,4.0,90,0.00,,---,0.00,VWS V14.01,2013-01-14 17:14:00,
2013-01-14 10:15:00,10.0,7.7,29.79,ESE,120,3.6,4.9,90,0.00,,---,0.00,VWS V14.01,2013-01-14 17:15:00,
2013-01-14 10:16:00,10.2,7.9,29.79,SSE,149,2.7,3.6,90,0.00,,---,0.00,VWS V14.01,2013-01-14 17:16:00,
2013-01-14 10:17:00,10.2,7.9,29.79,SSE,155,0.0,4.0,90,0.00,,---,0.00,VWS V14.01,2013-01-14 17:17:00,
2013-01-14 10:18:00,10.2,7.9,29.79,East,81,3.1,3.6,90,0.00,,---,0.00,VWS V14.01,2013-01-14 17:18:00,
2013-01-14 10:19:00,10.2,7.9,29.79,East,79,0.0,3.1,90,0.00,,---,0.00,VWS V14.01,2013-01-14 17:19:00,
2013-01-14 10:20:00,10.2,7.9,29.79,ENE,69,5.8,5.8,90,0.00,,---,0.00,VWS V14.01,2013-01-14 17:20:00,
2013-01-14 10:21:00,10.2,7.9,29.79,NE,49,2.7,5.8,90,0.00,,---,0.00,VWS V14.01,2013-01-14 17:21:00,
2013-01-14 10:22:00,10.2,7.9,29.79,NE,48,2.7,3.1,90,0.00,,---,0.00,VWS V14.01,2013-01-14 17:22:00,
2013-01-14 10:23:00,10.2,7.9,29.79,East,85,4.5,4.5,90,0.00,,---,0.00,VWS V14.01,2013-01-14 17:23:00,
2013-01-14 10:24:00,10.2,7.9,29.79,ENE,61,3.6,4.5,90,0.00,,---,0.00,VWS V14.01,2013-01-14 17:24:00,
2013-01-14 10:25:00,10.2,7.9,29.79,ENE,65,0.0,3.6,90,0.00,,---,0.00,VWS V14.01,2013-01-14 17:25:00,
2013-01-14 10:26:00,10.2,7.9,29.79,ENE,65,0.0,0.0,90,0.00,,---,0.00,VWS V14.01,2013-01-14 17:26:00,
2013-01-14 10:27:00,10.2,7.9,29.79,ESE,116,0.0,0.0,90,0.00,,---,0.00,VWS V14.01,2013-01-14 17:27:00,
2013-01-14 10:28:00,10.0,7.7,29.79,SE,133,3.6,4.0,90,0.00,,---,0.00,VWS V14.01,2013-01-14 17:28:00,
2013-01-14 10:29:00,10.0,7.7,29.79,SE,145,3.6,3.6,90,0.00,,---,0.00,VWS V14.01,2013-01-14 17:29:00,
2013-01-14 10:30:00,10.0,7.7,29.79,ENE,57,2.7,3.6,90,0.00,,---,0.00,VWS V14.01,2013-01-14 17:30:00,
2013-01-14 10:31:00,9.9,7.5,29.79,ESE,123,5.4,5.4,90,0.00,,---,0.00,VWS V14.01,2013-01-14 17:31:00,
2013-01-14 10:32:00,9.9,7.5,29.79,ESE,105,0.0,5.8,90,0.00,,---,0.00,VWS V14.01,2013-01-14 17:32:00,
2013-01-14 10:33:00,9.7,7.3,29.79,ESE,113,3.1,4.0,90,0.00,,---,0.00,VWS V14.01,2013-01-14 17:33:00,
2013-01-14 10:34:00,9.7,7.3,29.79,ESE,111,0.0,3.1,90,0.00,,---,0.00,VWS V14.01,2013-01-14 17:34:00,
2013-01-14 10:35:00,9.7,7.3,29.79,ESE,111,0.0,0.0,90,0.00,,---,0.00,VWS V14.01,2013-01-14 17:35:00,
2013-01-14 10:36:00,9.7,7.3,29.79,ESE,111,2.2,2.2,90,0.00,,---,0.00,VWS V14.01,2013-01-14 17:36:00,
2013-01-14 10:37:00,9.7,7.3,29.79,SSE,147,0.0,2.2,90,0.00,,---,0.00,VWS V14.01,2013-01-14 17:37:00,
2013-01-14 10:38:00,9.7,7.3,29.79,SE,145,3.6,3.6,90,0.00,,---,0.00,VWS V14.01,2013-01-14 17:38:00,
2013-01-14 10:39:00,9.7,7.3,29.79,SSE,148,0.0,4.9,90,0.00,,---,0.00,VWS V14.01,2013-01-14 17:39:00,
2013-01-14 10:40:00,9.9,7.5,29.82,SSE,148,0.0,0.0,90,0.00,,---,0.00,VWS V14.01,2013-01-14 17:40:00,
2013-01-14 10:41:00,10.0,7.7,29.82,SE,137,0.0,4.0,90,0.00,,---,0.00,VWS V14.01,2013-01-14 17:41:00,
2013-01-14 10:42:00,10.0,7.7,29.82,SSE,161,0.0,0.0,90,0.00,,---,0.00,VWS V14.01,2013-01-14 17:42:00,
2013-01-14 10:43:00,10.0,7.7,29.82,SSE,151,0.0,0.0,90,0.00,,---,0.00,VWS V14.01,2013-01-14 17:43:00,
2013-01-14 10:44:00,10.2,7.9,29.82,SE,136,0.0,0.0,90,0.00,,---,0.00,VWS V14.01,2013-01-14 17:44:00,
2013-01-14 10:45:00,10.2,7.9,29.82,SE,136,0.0,0.0,90,0.00,,---,0.00,VWS V14.01,2013-01-14 17:45:00,
2013-01-14 10:46:00,10.2,7.9,29.82,SE,130,0.0,0.0,90,0.00,,---,0.00,VWS V14.01,2013-01-14 17:46:00,
2013-01-14 10:47:00,10.4,8.1,29.82,East,84,0.0,0.0,90,0.00,,---,0.00,VWS V14.01,2013-01-14 17:47:00,
2013-01-14 10:48:00,10.4,8.1,29.82,NE,55,0.0,2.7,90,0.00,,---,0.00,VWS V14.01,2013-01-14 17:48:00,
2013-01-14 10:49:00,10.4,8.1,29.82,NE,55,0.0,2.7,90,0.00,,---,0.00,VWS V14.01,2013-01-14 17:49:00,
2013-01-14 10:50:00,10.6,8.2,29.82,NE,55,0.0,0.0,90,0.00,,---,0.00,VWS V14.01,2013-01-14 17:50:00,
2013-01-14 10:51:00,10.6,8.2,29.82,NE,55,0.0,0.0,90,0.00,,---,0.00,VWS V14.01,2013-01-14 17:51:00,
2013-01-14 10:52:00,10.8,8.4,29.82,East,92,0.0,3.1,90,0.00,,---,0.00,VWS V14.01,2013-01-14 17:52:00,
2013-01-14 10:53:00,10.8,8.4,29.82,East,93,0.0,0.0,90,0.00,,---,0.00,VWS V14.01,2013-01-14 17:53:00,
2013-01-14 10:54:00,10.8,8.4,29.82,ESE,119,0.0,0.0,90,0.00,,---,0.00,VWS V14.01,2013-01-14 17:54:00,
2013-01-14 10:55:00,10.9,8.6,29.82,SE,136,0.0,0.0,90,0.00,,---,0.00,VWS V14.01,2013-01-14 17:55:00,
2013-01-14 10:56:00,10.9,8.6,29.82,SE,136,0.0,0.0,90,0.00,,---,0.00,VWS V14.01,2013-01-14 17:56:00,
2013-01-14 10:57:00,10.9,8.6,29.82,SE,136,0.0,0.0,90,0.00,,---,0.00,VWS V14.01,2013-01-14 17:57:00,
2013-01-14 10:58:00,10.9,8.6,29.82,SE,136,0.0,0.0,90,0.00,,---,0.00,VWS V14.01,2013-01-14 17:58:00,
2013-01-14 10:59:00,10.9,8.6,29.82,SE,136,0.0,0.0,90,0.00,,---,0.00,VWS V14.01,2013-01-14 17:59:00,
2013-01-14 11:00:00,10.9,8.6,29.82,SE,136,0.0,0.0,90,0.00,,---,0.00,VWS V14.01,2013-01-14 18:00:00,
2013-01-14 11:01:00,10.9,8.6,29.82,SE,136,0.0,0.0,90,0.00,,---,0.00,VWS V14.01,2013-01-14 18:01:00,
2013-01-14 11:02:00,10.9,8.6,29.82,SE,136,0.0,0.0,90,0.00,,---,0.00,VWS V14.01,2013-01-14 18:02:00,
2013-01-14 11:03:00,11.1,8.8,29.82,WSW,256,0.0,0.0,90,0.00,,---,0.00,VWS V14.01,2013-01-14 18:03:00,
2013-01-14 11:04:00,11.1,8.8,29.82,South,171,4.9,4.9,90,0.00,,---,0.00,VWS V14.01,2013-01-14 18:04:00,
2013-01-14 11:05:00,11.1,8.8,29.82,SSE,161,4.5,8.1,90,0.00,,---,0.00,VWS V14.01,2013-01-14 18:05:00,
2013-01-14 11:06:00,10.9,8.6,29.82,South,187,0.0,8.7,90,0.00,,---,0.00,VWS V14.01,2013-01-14 18:06:00,
2013-01-14 11:07:00,11.1,8.8,29.82,West,271,0.0,3.6,90,0.00,,---,0.00,VWS V14.01,2013-01-14 18:07:00,
2013-01-14 11:08:00,11.1,8.8,29.82,SSW,192,0.0,3.6,90,0.00,,---,0.00,VWS V14.01,2013-01-14 18:08:00,
2013-01-14 11:09:00,11.1,8.8,29.82,SW,234,0.0,0.0,90,0.00,,---,0.00,VWS V14.01,2013-01-14 18:09:00,
2013-01-14 11:10:00,11.3,8.9,29.79,West,271,0.0,0.0,90,0.00,,---,0.00,VWS V14.01,2013-01-14 18:10:00,
2013-01-14 11:11:00,11.3,8.9,29.79,West,266,2.2,2.2,90,0.00,,---,0.00,VWS V14.01,2013-01-14 18:11:00,
2013-01-14 11:12:00,11.3,8.9,29.79,NW,305,2.7,3.6,90,0.00,,---,0.00,VWS V14.01,2013-01-14 18:12:00,
2013-01-14 11:13:00,11.3,8.9,29.79,NNE,25,2.7,2.7,90,0.00,,---,0.00,VWS V14.01,2013-01-14 18:13:00,
2013-01-14 11:14:00,11.5,9.1,29.79,NE,41,3.6,4.0,90,0.00,,---,0.00,VWS V14.01,2013-01-14 18:14:00,
2013-01-14 11:15:00,11.5,9.1,29.79,NE,49,0.0,4.9,90,0.00,,---,0.00,VWS V14.01,2013-01-14 18:15:00,
2013-01-14 11:16:00,11.7,9.3,29.79,WNW,299,3.1,3.1,90,0.00,,---,0.00,VWS V14.01,2013-01-14 18:16:00,
2013-01-14 11:17:00,11.7,9.3,29.79,WNW,299,0.0,4.0,90,0.00,,---,0.00,VWS V14.01,2013-01-14 18:17:00,
2013-01-14 11:18:00,11.7,9.3,29.79,North,8,2.2,2.2,90,0.00,,---,0.00,VWS V14.01,2013-01-14 18:18:00,
2013-01-14 11:19:00,11.7,9.3,29.79,ENE,73,5.4,5.4,90,0.00,,---,0.00,VWS V14.01,2013-01-14 18:19:00,
2013-01-14 11:20:00,11.7,9.3,29.79,NE,49,0.0,5.4,90,0.00,,---,0.00,VWS V14.01,2013-01-14 18:20:00,
2013-01-14 11:21:00,11.3,8.9,29.79,ESE,115,11.0,11.0,90,0.00,,---,0.00,VWS V14.01,2013-01-14 18:21:00,
2013-01-14 11:22:00,10.6,8.2,29.79,ESE,122,12.3,12.8,90,0.00,,---,0.00,VWS V14.01,2013-01-14 18:22:00,
2013-01-14 11:23:00,10.0,7.7,29.79,SSE,158,8.7,12.8,90,0.00,,---,0.00,VWS V14.01,2013-01-14 18:23:00,
2013-01-14 11:24:00,9.9,7.5,29.79,SE,146,6.3,8.7,90,0.00,,---,0.00,VWS V14.01,2013-01-14 18:24:00,
2013-01-14 11:25:00,9.5,7.2,29.79,SE,130,4.9,7.6,90,0.00,,---,0.00,VWS V14.01,2013-01-14 18:25:00,
2013-01-14 11:26:00,9.7,7.3,29.79,ESE,102,3.1,4.9,90,0.00,,---,0.00,VWS V14.01,2013-01-14 18:26:00,
2013-01-14 11:27:00,9.7,7.3,29.79,SE,136,5.8,8.1,90,0.00,,---,0.00,VWS V14.01,2013-01-14 18:27:00,
2013-01-14 11:28:00,9.7,7.3,29.79,ESE,106,5.8,5.8,90,0.00,,---,0.00,VWS V14.01,2013-01-14 18:28:00,
2013-01-14 11:29:00,9.7,7.3,29.79,ESE,108,8.3,8.3,90,0.00,,---,0.00,VWS V14.01,2013-01-14 18:29:00,
2013-01-14 11:30:00,9.7,7.3,29.79,SE,129,6.3,8.3,90,0.00,,---,0.00,VWS V14.01,2013-01-14 18:30:00,
2013-01-14 11:31:00,9.7,7.3,29.79,SE,142,7.6,8.1,90,0.00,,---,0.00,VWS V14.01,2013-01-14 18:31:00,
2013-01-14 11:32:00,9.9,7.5,29.79,ESE,105,3.6,8.1,90,0.00,,---,0.00,VWS V14.01,2013-01-14 18:32:00,
2013-01-14 11:33:00,9.9,7.5,29.79,ESE,120,6.3,8.7,90,0.00,,---,0.00,VWS V14.01,2013-01-14 18:33:00,
2013-01-14 11:34:00,9.9,7.5,29.79,SE,133,10.1,10.1,90,0.00,,---,0.00,VWS V14.01,2013-01-14 18:34:00,
2013-01-14 11:35:00,11.3,8.9,29.79,East,101,0.0,12.8,90,0.00,,---,0.00,VWS V14.01,2013-01-14 18:35:00,
2013-01-14 11:36:00,11.3,8.9,29.79,SE,140,6.3,6.3,90,0.00,,---,0.00,VWS V14.01,2013-01-14 18:36:00,
2013-01-14 11:37:00,11.7,9.3,29.79,SE,135,8.3,10.5,90,0.00,,---,0.00,VWS V14.01,2013-01-14 18:37:00,
2013-01-14 11:38:00,11.7,9.3,29.79,ESE,122,4.9,8.3,90,0.00,,---,0.00,VWS V14.01,2013-01-14 18:38:00,
2013-01-14 11:39:00,11.8,9.5,29.79,East,83,3.1,7.6,90,0.00,,---,0.00,VWS V14.01,2013-01-14 18:39:00,
2013-01-14 11:40:00,11.8,9.5,29.79,ESE,108,0.0,4.9,90,0.00,,---,0.00,VWS V14.01,2013-01-14 18:40:00,
2013-01-14 11:41:00,11.8,9.5,29.79,SE,130,4.9,4.9,90,0.00,,---,0.00,VWS V14.01,2013-01-14 18:41:00,
2013-01-14 11:42:00,11.7,9.3,29.79,ESE,111,3.6,8.3,90,0.00,,---,0.00,VWS V14.01,2013-01-14 18:42:00,
2013-01-14 11:43:00,11.7,9.3,29.79,East,101,5.8,5.8,90,0.00,,---,0.00,VWS V14.01,2013-01-14 18:43:00,
2013-01-14 11:44:00,11.7,9.3,29.79,SE,127,10.1,10.1,90,0.00,,---,0.00,VWS V14.01,2013-01-14 18:44:00,
2013-01-14 11:45:00,11.1,8.8,29.79,SE,134,8.3,10.1,90,0.00,,---,0.00,VWS V14.01,2013-01-14 18:45:00,
2013-01-14 11:46:00,11.1,8.8,29.79,SE,135,10.5,10.5,90,0.00,,---,0.00,VWS V14.01,2013-01-14 18:46:00,
2013-01-14 11:47:00,10.8,8.4,29.79,SE,137,10.1,12.3,90,0.00,,---,0.00,VWS V14.01,2013-01-14 18:47:00,
2013-01-14 11:48:00,10.6,8.2,29.79,SE,140,10.5,10.5,90,0.00,,---,0.00,VWS V14.01,2013-01-14 18:48:00,
2013-01-14 11:49:00,10.4,8.1,29.79,SSE,157,10.1,10.5,90,0.00,,---,0.00,VWS V14.01,2013-01-14 18:49:00,
2013-01-14 11:50:00,10.4,8.1,29.79,ESE,116,9.6,11.0,90,0.00,,---,0.00,VWS V14.01,2013-01-14 18:50:00,
2013-01-14 11:51:00,10.4,8.1,29.79,SE,127,8.1,9.6,90,0.00,,---,0.00,VWS V14.01,2013-01-14 18:51:00,
2013-01-14 11:52:00,10.4,8.1,29.79,SSE,153,5.8,8.1,90,0.00,,---,0.00,VWS V14.01,2013-01-14 18:52:00,
2013-01-14 11:53:00,10.6,8.2,29.79,SE,132,8.1,8.1,90,0.00,,---,0.00,VWS V14.01,2013-01-14 18:53:00,
2013-01-14 11:54:00,10.6,8.2,29.79,SE,144,10.1,10.5,90,0.00,,---,0.00,VWS V14.01,2013-01-14 18:54:00,
2013-01-14 11:55:00,10.4,8.1,29.79,ESE,119,10.1,10.1,90,0.00,,---,0.00,VWS V14.01,2013-01-14 18:55:00,
2013-01-14 11:56:00,10.6,8.2,29.79,SE,135,6.3,10.1,90,0.00,,---,0.00,VWS V14.01,2013-01-14 18:56:00,
2013-01-14 11:57:00,10.6,8.2,29.79,SE,137,5.8,7.6,90,0.00,,---,0.00,VWS V14.01,2013-01-14 18:57:00,
2013-01-14 11:58:00,10.8,8.4,29.79,SE,130,5.4,6.3,90,0.00,,---,0.00,VWS V14.01,2013-01-14 18:58:00,
2013-01-14 11:59:00,10.8,8.4,29.79,SE,139,4.0,6.3,90,0.00,,---,0.00,VWS V14.01,2013-01-14 18:59:00,
2013-01-14 12:00:00,11.1,8.8,29.79,SE,138,13.2,13.2,90,0.00,,---,0.00,VWS V14.01,2013-01-14 19:00:00,
2013-01-14 12:01:00,10.9,8.6,29.79,ESE,108,11.0,13.2,90,0.00,,---,0.00,VWS V14.01,2013-01-14 19:01:00,
2013-01-14 12:02:00,10.9,8.6,29.79,SE,138,5.8,12.8,90,0.00,,---,0.00,VWS V14.01,2013-01-14 19:02:00,
2013-01-14 12:03:00,10.9,8.6,29.79,SE,129,6.7,13.2,90,0.00,,---,0.00,VWS V14.01,2013-01-14 19:03:00,
2013-01-14 12:04:00,11.1,8.8,29.79,SE,138,7.6,8.7,90,0.00,,---,0.00,VWS V14.01,2013-01-14 19:04:00,
2013-01-14 12:05:00,11.1,8.8,29.79,SE,132,7.6,8.1,90,0.00,,---,0.00,VWS V14.01,2013-01-14 19:05:00,
2013-01-14 12:06:00,11.3,8.9,29.79,SE,146,9.6,9.6,90,0.00,,---,0.00,VWS V14.01,2013-01-14 19:06:00,
2013-01-14 12:07:00,11.3,8.9,29.79,ESE,113,8.1,10.1,90,0.00,,---,0.00,VWS V14.01,2013-01-14 19:07:00,
2013-01-14 12:08:00,11.3,8.9,29.79,SE,132,8.3,10.1,90,0.00,,---,0.00,VWS V14.01,2013-01-14 19:08:00,
2013-01-14 12:09:00,11.3,8.9,29.79,SE,132,6.3,8.3,90,0.00,,---,0.00,VWS V14.01,2013-01-14 19:09:00,
2013-01-14 12:10:00,11.3,8.9,29.79,SE,127,6.3,7.6,90,0.00,,---,0.00,VWS V14.01,2013-01-14 19:10:00,
2013-01-14 12:11:00,11.7,9.3,29.79,SE,140,4.0,6.3,90,0.00,,---,0.00,VWS V14.01,2013-01-14 19:11:00,
2013-01-14 12:12:00,11.8,9.5,29.79,ESE,119,3.6,6.7,90,0.00,,---,0.00,VWS V14.01,2013-01-14 19:12:00,
2013-01-14 12:13:00,12.2,9.8,29.79,SSE,149,6.3,7.6,90,0.00,,---,0.00,VWS V14.01,2013-01-14 19:13:00,
2013-01-14 12:14:00,12.2,9.8,29.79,SE,134,8.1,10.5,90,0.00,,---,0.00,VWS V14.01,2013-01-14 19:14:00,
2013-01-14 12:15:00,12.4,10.0,29.79,SE,125,7.6,8.3,90,0.00,,---,0.00,VWS V14.01,2013-01-14 19:15:00,
2013-01-14 12:16:00,12.6,10.2,29.79,SSE,147,3.6,7.6,90,0.00,,---,0.00,VWS V14.01,2013-01-14 19:16:00,
2013-01-14 12:17:00,12.7,10.4,29.79,SSE,156,2.7,6.3,90,0.00,,---,0.00,VWS V14.01,2013-01-14 19:17:00,
2013-01-14 12:18:00,12.9,10.6,29.76,ESE,119,5.4,5.8,90,0.00,,---,0.00,VWS V14.01,2013-01-14 19:18:00,
2013-01-14 12:19:00,13.3,10.9,29.76,SE,146,4.0,8.1,90,0.00,,---,0.00,VWS V14.01,2013-01-14 19:19:00,
2013-01-14 12:20:00,13.3,10.9,29.76,SE,146,3.6,4.0,90,0.00,,---,0.00,VWS V14.01,2013-01-14 19:20:00,
2013-01-14 12:21:00,13.3,10.9,29.76,SE,134,7.6,7.6,90,0.00,,---,0.00,VWS V14.01,2013-01-14 19:21:00,
2013-01-14 12:22:00,13.3,10.9,29.76,SE,135,4.9,8.7,90,0.00,,---,0.00,VWS V14.01,2013-01-14 19:22:00,
2013-01-14 12:23:00,13.3,10.9,29.76,SE,130,6.3,6.3,90,0.00,,---,0.00,VWS V14.01,2013-01-14 19:23:00,
2013-01-14 12:24:00,13.1,10.7,29.76,SE,145,8.1,8.3,90,0.00,,---,0.00,VWS V14.01,2013-01-14 19:24:00,
2013-01-14 12:25:00,12.7,10.4,29.76,SE,131,7.6,11.0,90,0.00,,---,0.00,VWS V14.01,2013-01-14 19:25:00,
2013-01-14 12:26:00,12.6,10.2,29.76,SE,145,8.7,8.7,90,0.00,,---,0.00,VWS V14.01,2013-01-14 19:26:00,
2013-01-14 12:27:00,12.2,9.8,29.76,SE,131,10.1,10.1,90,0.00,,---,0.00,VWS V14.01,2013-01-14 19:27:00,
2013-01-14 12:28:00,12.2,9.8,29.76,SSE,156,8.3,11.0,90,0.00,,---,0.00,VWS V14.01,2013-01-14 19:28:00,
2013-01-14 12:29:00,12.4,10.0,29.76,SSE,147,5.4,8.3,90,0.00,,---,0.00,VWS V14.01,2013-01-14 19:29:00,
2013-01-14 12:30:00,12.4,10.0,29.76,ESE,123,8.1,8.1,90,0.00,,---,0.00,VWS V14.01,2013-01-14 19:30:00,
2013-01-14 12:31:00,12.2,9.8,29.76,SE,145,8.3,8.3,90,0.00,,---,0.00,VWS V14.01,2013-01-14 19:31:00,
2013-01-14 12:32:00,12.0,9.7,29.76,SE,146,3.6,8.3,90,0.00,,---,0.00,VWS V14.01,2013-01-14 19:32:00,
2013-01-14 12:33:00,12.0,9.7,29.76,SE,132,2.7,9.6,90,0.00,,---,0.00,VWS V14.01,2013-01-14 19:33:00,
2013-01-14 12:34:00,11.8,9.5,29.76,SSE,148,7.6,8.7,90,0.00,,---,0.00,VWS V14.01,2013-01-14 19:34:00,
2013-01-14 12:35:00,11.8,9.5,29.76,SE,136,5.8,7.6,90,0.00,,---,0.00,VWS V14.01,2013-01-14 19:35:00,
2013-01-14 12:36:00,11.8,9.5,29.76,ESE,105,7.6,8.7,90,0.00,,---,0.00,VWS V14.01,2013-01-14 19:36:00,
2013-01-14 12:37:00,11.7,9.3,29.76,SE,135,5.4,7.6,90,0.00,,---,0.00,VWS V14.01,2013-01-14 19:37:00,
2013-01-14 12:38:00,11.7,9.3,29.76,ESE,112,8.7,8.7,90,0.00,,---,0.00,VWS V14.01,2013-01-14 19:38:00,
2013-01-14 12:39:00,11.5,9.1,29.76,ESE,121,10.1,11.0,90,0.00,,---,0.00,VWS V14.01,2013-01-14 19:39:00,
2013-01-14 12:40:00,11.1,8.8,29.76,SE,136,10.5,11.0,90,0.00,,---,0.00,VWS V14.01,2013-01-14 19:40:00,
2013-01-14 12:41:00,11.3,8.9,29.76,SE,126,8.7,10.5,90,0.00,,---,0.00,VWS V14.01,2013-01-14 19:41:00,
2013-01-14 12:42:00,11.5,9.1,29.76,SE,142,8.3,8.7,90,0.00,,---,0.00,VWS V14.01,2013-01-14 19:42:00,
2013-01-14 12:44:00,11.8,9.5,29.76,SSE,149,6.7,8.3,90,0.00,,---,0.00,VWS V14.01,2013-01-14 19:44:00,
2013-01-14 12:45:00,12.0,9.7,29.76,SE,142,8.1,8.7,90,0.00,,---,0.00,VWS V14.01,2013-01-14 19:45:00,
2013-01-14 12:46:00,12.2,9.8,29.76,ESE,122,5.8,8.3,90,0.00,,---,0.00,VWS V14.01,2013-01-14 19:46:00,
2013-01-14 12:47:00,12.2,9.8,29.76,ESE,120,5.8,8.7,90,0.00,,---,0.00,VWS V14.01,2013-01-14 19:47:00,
2013-01-14 12:48:00,12.6,10.2,29.76,SE,124,4.9,10.5,90,0.00,,---,0.00,VWS V14.01,2013-01-14 19:48:00,
2013-01-14 12:49:00,12.6,10.2,29.76,ESE,123,7.6,9.6,90,0.00,,---,0.00,VWS V14.01,2013-01-14 19:49:00,
2013-01-14 12:50:00,12.6,10.2,29.76,SSE,149,8.7,8.7,90,0.00,,---,0.00,VWS V14.01,2013-01-14 19:50:00,
2013-01-14 12:51:00,12.6,10.2,29.76,ESE,120,6.3,8.7,90,0.00,,---,0.00,VWS V14.01,2013-01-14 19:51:00,
2013-01-14 12:52:00,12.6,10.2,29.76,SE,124,8.3,11.0,90,0.00,,---,0.00,VWS V14.01,2013-01-14 19:52:00,
2013-01-14 12:53:00,12.6,10.2,29.76,SE,130,8.1,10.1,90,0.00,,---,0.00,VWS V14.01,2013-01-14 19:53:00,
2013-01-14 12:54:00,12.6,10.2,29.76,SE,130,5.8,8.1,90,0.00,,---,0.00,VWS V14.01,2013-01-14 19:54:00,
2013-01-14 12:55:00,12.7,10.4,29.76,ESE,102,5.4,5.8,90,0.00,,---,0.00,VWS V14.01,2013-01-14 19:55:00,
2013-01-14 12:56:00,12.7,10.4,29.76,SE,125,5.8,5.8,90,0.00,,---,0.00,VWS V14.01,2013-01-14 19:56:00,
2013-01-14 12:57:00,13.1,10.7,29.76,SE,128,3.6,5.8,90,0.00,,---,0.00,VWS V14.01,2013-01-14 19:57:00,
2013-01-14 12:58:00,13.5,11.1,29.76,SE,138,4.9,6.3,90,0.00,,---,0.00,VWS V14.01,2013-01-14 19:58:00,
2013-01-14 12:59:00,13.8,11.4,29.76,SE,124,3.6,6.3,90,0.00,,---,0.00,VWS V14.01,2013-01-14 19:59:00,
2013-01-14 13:00:00,13.8,11.4,29.76,ESE,106,5.8,8.3,90,0.00,,---,0.00,VWS V14.01,2013-01-14 20:00:00,
2013-01-14 13:01:00,14.2,1.8,29.76,SE,137,8.1,10.1,57,0.00,,---,0.00,VWS V14.01,2013-01-14 20:01:00,
2013-01-14 13:02:00,14.2,1.0,29.76,SE,140,8.3,9.2,55,0.00,,---,0.00,VWS V14.01,2013-01-14 20:02:00,
2013-01-14 13:03:00,14.0,0.8,29.73,ESE,120,8.7,11.9,55,0.00,,---,0.00,VWS V14.01,2013-01-14 20:03:00,
2013-01-14 13:04:00,13.8,0.6,29.73,SE,137,7.6,10.1,55,0.00,,---,0.00,VWS V14.01,2013-01-14 20:04:00,
2013-01-14 13:05:00,13.8,0.6,29.73,SE,126,2.7,7.6,55,0.00,,---,0.00,VWS V14.01,2013-01-14 20:05:00,
2013-01-14 13:06:00,14.0,1.2,29.73,ESE,102,5.8,5.8,56,0.00,,---,0.00,VWS V14.01,2013-01-14 20:06:00,
2013-01-14 13:07:00,14.4,1.9,29.73,SE,128,3.1,5.8,57,0.00,,---,0.00,VWS V14.01,2013-01-14 20:07:00,
2013-01-14 13:08:00,14.5,1.7,29.73,SE,136,8.1,8.3,56,0.00,,---,0.00,VWS V14.01,2013-01-14 20:08:00,
2013-01-14 13:09:00,14.7,1.5,29.73,SE,133,3.6,8.7,55,0.00,,---,0.00,VWS V14.01,2013-01-14 20:09:00,
2013-01-14 13:10:00,14.7,1.5,29.73,SE,140,4.9,4.9,55,0.00,,---,0.00,VWS V14.01,2013-01-14 20:10:00,
2013-01-14 13:11:00,14.7,1.5,29.73,SSE,153,6.3,6.3,55,0.00,,---,0.00,VWS V14.01,2013-01-14 20:11:00,
2013-01-14 13:12:00,14.4,0.4,29.73,SE,136,10.5,10.5,53,0.00,,---,0.00,VWS V14.01,2013-01-14 20:12:00,
2013-01-14 13:13:00,14.4,-0.4,29.73,SE,128,6.3,10.5,51,0.00,,---,0.00,VWS V14.01,2013-01-14 20:13:00,
2013-01-14 13:14:00,14.2,-0.6,29.73,SE,145,8.1,8.3,51,0.00,,---,0.00,VWS V14.01,2013-01-14 20:14:00,
2013-01-14 13:15:00,14.0,-0.8,29.73,ESE,119,8.7,8.7,51,0.00,,---,0.00,VWS V14.01,2013-01-14 20:15:00,
2013-01-14 13:16:00,14.0,-0.8,29.73,SSE,149,8.1,8.7,51,0.00,,---,0.00,VWS V14.01,2013-01-14 20:16:00,
2013-01-14 13:17:00,14.0,-0.4,29.73,SE,128,7.2,8.7,52,0.00,,---,0.00,VWS V14.01,2013-01-14 20:17:00,
2013-01-14 13:18:00,14.0,-0.4,29.76,East,95,3.6,7.2,52,0.00,,---,0.00,VWS V14.01,2013-01-14 20:18:00,
2013-01-14 13:19:00,14.2,-0.2,29.76,ESE,110,5.4,6.3,52,0.00,,---,0.00,VWS V14.01,2013-01-14 20:19:00,
2013-01-14 13:20:00,14.4,0.8,29.76,ESE,115,2.2,5.8,54,0.00,,---,0.00,VWS V14.01,2013-01-14 20:20:00,
2013-01-14 13:21:00,14.4,1.2,29.76,SE,136,5.4,5.4,55,0.00,,---,0.00,VWS V14.01,2013-01-14 20:21:00,
2013-01-14 13:22:00,14.4,1.2,29.76,SE,134,5.8,5.8,55,0.00,,---,0.00,VWS V14.01,2013-01-14 20:22:00,
2013-01-14 13:23:00,14.5,0.9,29.76,SSE,165,3.1,8.3,54,0.00,,---,0.00,VWS V14.01,2013-01-14 20:23:00,
2013-01-14 13:24:00,14.7,1.5,29.76,South,169,0.0,4.0,55,0.00,,---,0.00,VWS V14.01,2013-01-14 20:24:00,
2013-01-14 13:25:00,14.9,2.0,29.76,SSE,158,0.0,0.0,56,0.00,,---,0.00,VWS V14.01,2013-01-14 20:25:00,
2013-01-14 13:26:00,14.9,2.0,29.76,SSE,155,7.2,7.2,56,0.00,,---,0.00,VWS V14.01,2013-01-14 20:26:00,
2013-01-14 13:27:00,15.3,2.4,29.76,SE,124,4.0,7.2,56,0.00,,---,0.00,VWS V14.01,2013-01-14 20:27:00,
2013-01-14 13:28:00,15.4,2.2,29.76,ESE,105,8.3,8.3,55,0.00,,---,0.00,VWS V14.01,2013-01-14 20:28:00,
2013-01-14 13:29:00,15.4,2.2,29.76,East,89,4.0,8.3,55,0.00,,---,0.00,VWS V14.01,2013-01-14 20:29:00,
2013-01-14 13:30:00,15.4,2.2,29.76,ENE,70,0.0,4.0,55,0.00,,---,0.00,VWS V14.01,2013-01-14 20:30:00,
2013-01-14 13:31:00,15.4,1.8,29.76,SSE,152,3.6,8.7,54,0.00,,---,0.00,VWS V14.01,2013-01-14 20:31:00,
2013-01-14 13:32:00,15.4,1.8,29.76,East,79,3.1,6.7,54,0.00,,---,0.00,VWS V14.01,2013-01-14 20:32:00,
2013-01-14 13:33:00,15.4,1.8,29.76,ESE,114,8.3,8.3,54,0.00,,---,0.00,VWS V14.01,2013-01-14 20:33:00,
2013-01-14 13:34:00,15.3,1.6,29.76,ESE,102,5.4,8.7,54,0.00,,---,0.00,VWS V14.01,2013-01-14 20:34:00,
2013-01-14 13:35:00,15.3,1.2,29.76,ENE,77,4.0,5.4,53,0.00,,---,0.00,VWS V14.01,2013-01-14 20:35:00,
2013-01-14 13:36:00,15.1,0.2,29.76,SE,125,8.3,8.3,51,0.00,,---,0.00,VWS V14.01,2013-01-14 20:36:00,
2013-01-14 13:37:00,14.9,-0.4,29.76,SE,138,10.1,10.5,50,0.00,,---,0.00,VWS V14.01,2013-01-14 20:37:00,
2013-01-14 13:38:00,14.9,-0.4,29.76,SE,136,5.8,10.1,50,0.00,,---,0.00,VWS V14.01,2013-01-14 20:38:00,
2013-01-14 13:39:00,14.9,0.1,29.76,SSE,158,0.0,5.8,51,0.00,,---,0.00,VWS V14.01,2013-01-14 20:39:00,
2013-01-14 13:40:00,14.9,0.9,29.76,SSE,160,3.6,3.6,53,0.00,,---,0.00,VWS V14.01,2013-01-14 20:40:00,
2013-01-14 13:41:00,15.1,0.6,29.76,SE,137,5.4,7.6,52,0.00,,---,0.00,VWS V14.01,2013-01-14 20:41:00,
2013-01-14 13:42:00,15.1,0.2,29.76,SE,131,2.7,5.8,51,0.00,,---,0.00,VWS V14.01,2013-01-14 20:42:00,
2013-01-14 13:43:00,15.1,1.0,29.76,South,171,0.0,2.7,53,0.00,,---,0.00,VWS V14.01,2013-01-14 20:43:00,
2013-01-14 13:44:00,15.1,1.4,29.76,South,171,0.0,0.0,54,0.00,,---,0.00,VWS V14.01,2013-01-14 20:44:00,
2013-01-14 13:45:00,15.1,1.4,29.76,ESE,122,3.6,3.6,54,0.00,,---,0.00,VWS V14.01,2013-01-14 20:45:00,
2013-01-14 13:46:00,15.1,1.8,29.76,ESE,110,3.1,3.6,55,0.00,,---,0.00,VWS V14.01,2013-01-14 20:46:00,
2013-01-14 13:47:00,15.3,2.4,29.76,ESE,108,0.0,3.1,56,0.00,,---,0.00,VWS V14.01,2013-01-14 20:47:00,
2013-01-14 13:48:00,15.3,2.4,29.73,NE,52,5.8,5.8,56,0.00,,---,0.00,VWS V14.01,2013-01-14 20:48:00,
2013-01-14 13:49:00,15.4,2.2,29.73,ENE,73,6.3,8.1,55,0.00,,---,0.00,VWS V14.01,2013-01-14 20:49:00,
2013-01-14 13:50:00,15.6,2.3,29.73,NE,49,4.0,6.3,55,0.00,,---,0.00,VWS V14.01,2013-01-14 20:50:00,
2013-01-14 13:51:00,15.4,2.2,29.73,NE,52,4.9,7.2,55,0.00,,---,0.00,VWS V14.01,2013-01-14 20:51:00,
2013-01-14 13:52:00,15.6,2.0,29.73,NE,50,3.6,7.6,54,0.00,,---,0.00,VWS V14.01,2013-01-14 20:52:00,
2013-01-14 13:53:00,15.4,1.8,29.73,East,92,7.2,11.0,54,0.00,,---,0.00,VWS V14.01,2013-01-14 20:53:00,
2013-01-14 13:54:00,15.4,1.8,29.73,NNE,27,10.1,10.1,54,0.00,,---,0.00,VWS V14.01,2013-01-14 20:54:00,
2013-01-14 13:55:00,15.6,2.0,29.73,NNW,346,0.0,10.1,54,0.00,,---,0.00,VWS V14.01,2013-01-14 20:55:00,
2013-01-14 13:56:00,15.8,2.5,29.73,NNE,33,5.8,5.8,55,0.00,,---,0.00,VWS V14.01,2013-01-14 20:56:00,
2013-01-14 13:57:00,15.8,2.5,29.73,NNW,339,3.1,5.8,55,0.00,,---,0.00,VWS V14.01,2013-01-14 20:57:00,
2013-01-14 13:58:00,15.8,2.9,29.73,NW,318,0.0,5.4,56,0.00,,---,0.00,VWS V14.01,2013-01-14 20:58:00,
2013-01-14 13:59:00,16.2,3.2,29.73,NNE,33,5.4,5.4,56,0.00,,---,0.00,VWS V14.01,2013-01-14 20:59:00,
2013-01-14 14:00:00,16.2,3.2,29.73,NE,45,3.6,5.8,56,0.00,,---,0.00,VWS V14.01,2013-01-14 21:00:00,
2013-01-14 14:01:00,16.5,4.0,29.73,NE,40,0.0,3.6,57,0.00,,---,0.00,VWS V14.01,2013-01-14 21:01:00,
2013-01-14 14:02:00,16.5,4.0,29.73,NW,311,6.3,6.3,57,0.00,,---,0.00,VWS V14.01,2013-01-14 21:02:00,
2013-01-14 14:03:00,16.5,3.6,29.76,NW,305,2.7,6.3,56,0.00,,---,0.00,VWS V14.01,2013-01-14 21:03:00,
2013-01-14 14:04:00,16.7,3.3,29.76,East,88,5.4,6.3,55,0.00,,---,0.00,VWS V14.01,2013-01-14 21:04:00,
2013-01-14 14:05:00,17.1,4.1,29.76,NE,50,5.4,5.8,56,0.00,,---,0.00,VWS V14.01,2013-01-14 21:05:00,
2013-01-14 14:06:00,17.1,4.1,29.76,NNE,27,0.0,5.4,56,0.00,,---,0.00,VWS V14.01,2013-01-14 21:06:00,
2013-01-14 14:07:00,17.2,4.6,29.76,North,0,3.6,3.6,57,0.00,,---,0.00,VWS V14.01,2013-01-14 21:07:00,
2013-01-14 14:08:00,17.2,4.6,29.76,NE,41,4.9,4.9,57,0.00,,---,0.00,VWS V14.01,2013-01-14 21:08:00,
2013-01-14 14:09:00,17.4,4.4,29.76,ESE,105,0.0,4.9,56,0.00,,---,0.00,VWS V14.01,2013-01-14 21:09:00,
2013-01-14 14:10:00,17.4,4.8,29.76,NE,40,3.1,3.1,57,0.00,,---,0.00,VWS V14.01,2013-01-14 21:10:00,
2013-01-14 14:11:00,17.4,4.8,29.76,NNW,336,5.4,5.4,57,0.00,,---,0.00,VWS V14.01,2013-01-14 21:11:00,
2013-01-14 14:12:00,17.4,4.8,29.76,NNW,337,3.1,7.6,57,0.00,,---,0.00,VWS V14.01,2013-01-14 21:12:00,
2013-01-14 14:13:00,17.6,5.0,29.76,NE,55,5.4,5.4,57,0.00,,---,0.00,VWS V14.01,2013-01-14 21:13:00,
2013-01-14 14:14:00,17.6,5.0,29.76,NE,38,5.4,7.6,57,0.00,,---,0.00,VWS V14.01,2013-01-14 21:14:00,
2013-01-14 14:15:00,17.4,4.4,29.76,NE,38,0.0,5.4,56,0.00,,---,0.00,VWS V14.01,2013-01-14 21:15:00,
2013-01-14 14:16:00,17.1,4.1,29.76,WNW,292,5.8,5.8,56,0.00,,---,0.00,VWS V14.01,2013-01-14 21:16:00,
2013-01-14 14:17:00,17.1,3.7,29.76,NNE,32,5.4,5.8,55,0.00,,---,0.00,VWS V14.01,2013-01-14 21:17:00,
2013-01-14 14:18:00,17.1,4.1,29.76,NNE,16,2.2,5.8,56,0.00,,---,0.00,VWS V14.01,2013-01-14 21:18:00,
2013-01-14 14:19:00,16.5,3.6,29.76,NE,39,2.7,5.4,56,0.00,,---,0.00,VWS V14.01,2013-01-14 21:19:00,
2013-01-14 14:20:00,16.3,3.4,29.76,NNW,342,0.0,4.9,56,0.00,,---,0.00,VWS V14.01,2013-01-14 21:20:00,
2013-01-14 14:21:00,15.8,2.9,29.76,NNW,345,0.0,0.0,56,0.00,,---,0.00,VWS V14.01,2013-01-14 21:21:00,
2013-01-14 14:22:00,15.6,2.7,29.76,NNW,344,0.0,0.0,56,0.00,,---,0.00,VWS V14.01,2013-01-14 21:22:00,
2013-01-14 14:23:00,15.3,2.8,29.76,NNE,29,0.0,4.0,57,0.00,,---,0.00,VWS V14.01,2013-01-14 21:23:00,
2013-01-14 14:24:00,15.3,2.8,29.76,NE,36,4.0,4.0,57,0.00,,---,0.00,VWS V14.01,2013-01-14 21:24:00,
2013-01-14 14:25:00,15.1,2.6,29.76,NE,49,8.1,8.1,57,0.00,,---,0.00,VWS V14.01,2013-01-14 21:25:00,
2013-01-14 14:26:00,14.5,2.1,29.76,ENE,68,8.7,10.1,57,0.00,,---,0.00,VWS V14.01,2013-01-14 21:26:00,
2013-01-14 14:27:00,14.4,1.5,29.76,NE,50,10.5,13.2,56,0.00,,---,0.00,VWS V14.01,2013-01-14 21:27:00,
2013-01-14 14:28:00,13.8,1.0,29.76,ENE,65,0.0,10.5,56,0.00,,---,0.00,VWS V14.01,2013-01-14 21:28:00,
2013-01-14 14:29:00,13.6,0.9,29.76,NE,38,2.2,5.8,56,0.00,,---,0.00,VWS V14.01,2013-01-14 21:29:00,
2013-01-14 14:30:00,13.3,0.5,29.76,NE,45,5.8,5.8,56,0.00,,---,0.00,VWS V14.01,2013-01-14 21:30:00,
2013-01-14 14:31:00,12.7,0.0,29.76,NNE,24,3.6,5.8,56,0.00,,---,0.00,VWS V14.01,2013-01-14 21:31:00,
2013-01-14 14:32:00,12.6,-0.2,29.76,ENE,70,4.9,8.3,56,0.00,,---,0.00,VWS V14.01,2013-01-14 21:32:00,
2013-01-14 14:33:00,12.2,-0.5,29.76,ENE,67,2.7,5.8,56,0.00,,---,0.00,VWS V14.01,2013-01-14 21:33:00,
2013-01-14 14:34:00,11.8,-0.8,29.76,ENE,69,8.1,8.1,56,0.00,,---,0.00,VWS V14.01,2013-01-14 21:34:00,
2013-01-14 14:35:00,11.7,-1.0,29.76,NE,54,4.5,8.1,56,0.00,,---,0.00,VWS V14.01,2013-01-14 21:35:00,
2013-01-14 14:36:00,11.3,-1.3,29.76,ENE,62,8.3,8.3,56,0.00,,---,0.00,VWS V14.01,2013-01-14 21:36:00,
2013-01-14 14:37:00,11.1,-1.5,29.76,NE,47,7.2,8.3,56,0.00,,---,0.00,VWS V14.01,2013-01-14 21:37:00,
2013-01-14 14:38:00,10.9,-1.7,29.76,ENE,78,10.5,10.5,56,0.00,,---,0.00,VWS V14.01,2013-01-14 21:38:00,
2013-01-14 14:39:00,10.6,-2.0,29.76,ENE,74,7.6,11.0,56,0.00,,---,0.00,VWS V14.01,2013-01-14 21:39:00,
2013-01-14 14:40:00,10.4,-2.2,29.76,East,97,8.7,9.2,56,0.00,,---,0.00,VWS V14.01,2013-01-14 21:40:00,
2013-01-14 14:41:00,10.4,-2.2,29.76,ENE,74,7.6,8.7,56,0.00,,---,0.00,VWS V14.01,2013-01-14 21:41:00,
2013-01-14 14:42:00,10.2,-2.3,29.76,NE,54,8.3,8.7,56,0.00,,---,0.00,VWS V14.01,2013-01-14 21:42:00,
2013-01-14 14:43:00,10.2,-2.3,29.76,ENE,73,11.0,11.0,56,0.00,,---,0.00,VWS V14.01,2013-01-14 21:43:00,
2013-01-14 14:44:00,9.9,-2.7,29.76,East,91,9.6,11.0,56,0.00,,---,0.00,VWS V14.01,2013-01-14 21:44:00,
2013-01-14 14:45:00,9.7,-2.8,29.76,NE,49,12.8,12.8,56,0.00,,---,0.00,VWS V14.01,2013-01-14 21:45:00,
2013-01-14 14:46:00,9.7,-2.8,29.76,ENE,67,8.7,12.8,56,0.00,,---,0.00,VWS V14.01,2013-01-14 21:46:00,
2013-01-14 14:47:00,9.5,-3.0,29.76,ESE,108,8.3,10.5,56,0.00,,---,0.00,VWS V14.01,2013-01-14 21:47:00,
2013-01-14 14:48:00,9.5,-3.0,29.79,East,83,6.3,10.1,56,0.00,,---,0.00,VWS V14.01,2013-01-14 21:48:00,
2013-01-14 14:49:00,9.3,-3.2,29.79,East,80,6.3,8.3,56,0.00,,---,0.00,VWS V14.01,2013-01-14 21:49:00,
2013-01-14 14:50:00,9.3,-3.2,29.79,East,84,13.2,13.2,56,0.00,,---,0.00,VWS V14.01,2013-01-14 21:50:00,
2013-01-14 14:51:00,9.3,-3.2,29.79,East,96,6.3,13.2,56,0.00,,---,0.00,VWS V14.01,2013-01-14 21:51:00,
2013-01-14 14:52:00,9.3,-3.2,29.79,NNE,23,6.3,7.6,56,0.00,,---,0.00,VWS V14.01,2013-01-14 21:52:00,
2013-01-14 14:53:00,9.3,-3.2,29.79,ENE,60,8.7,9.6,56,0.00,,---,0.00,VWS V14.01,2013-01-14 21:53:00,
2013-01-14 14:54:00,9.3,-3.2,29.79,ENE,76,8.7,11.0,56,0.00,,---,0.00,VWS V14.01,2013-01-14 21:54:00,
2013-01-14 14:55:00,9.3,-3.2,29.79,East,79,6.3,8.7,56,0.00,,---,0.00,VWS V14.01,2013-01-14 21:55:00,
2013-01-14 14:56:00,9.1,-3.4,29.79,East,82,8.3,9.6,56,0.00,,---,0.00,VWS V14.01,2013-01-14 21:56:00,
2013-01-14 14:57:00,9.1,-3.4,29.79,East,100,10.1,10.1,56,0.00,,---,0.00,VWS V14.01,2013-01-14 21:57:00,
2013-01-14 14:58:00,8.8,-3.7,29.79,ENE,75,8.1,10.5,56,0.00,,---,0.00,VWS V14.01,2013-01-14 21:58:00,
2013-01-14 14:59:00,8.8,-3.7,29.79,ENE,65,9.6,12.8,56,0.00,,---,0.00,VWS V14.01,2013-01-14 21:59:00,
2013-01-14 15:00:00,8.8,-3.7,29.79,NE,50,6.3,9.6,56,0.00,,---,0.00,VWS V14.01,2013-01-14 22:00:00,
2013-01-14 15:01:00,8.8,-3.7,29.79,NNE,30,7.6,8.3,56,0.00,,---,0.00,VWS V14.01,2013-01-14 22:01:00,
2013-01-14 15:02:00,8.8,-3.7,29.76,ENE,71,5.8,7.6,56,0.00,,---,0.00,VWS V14.01,2013-01-14 22:02:00,
2013-01-14 15:03:00,8.8,-3.7,29.76,East,99,6.3,6.3,56,0.00,,---,0.00,VWS V14.01,2013-01-14 22:03:00,
2013-01-14 15:04:00,9.0,-3.5,29.76,ENE,76,3.6,6.3,56,0.00,,---,0.00,VWS V14.01,2013-01-14 22:04:00,
2013-01-14 15:05:00,8.8,-3.7,29.76,East,95,7.2,7.2,56,0.00,,---,0.00,VWS V14.01,2013-01-14 22:05:00,
2013-01-14 15:06:00,8.8,-3.7,29.76,East,79,8.3,8.3,56,0.00,,---,0.00,VWS V14.01,2013-01-14 22:06:00,
2013-01-14 15:07:00,8.8,-3.7,29.76,ENE,66,7.6,8.3,56,0.00,,---,0.00,VWS V14.01,2013-01-14 22:07:00,
2013-01-14 15:08:00,8.8,-3.7,29.76,East,96,8.1,9.2,56,0.00,,---,0.00,VWS V14.01,2013-01-14 22:08:00,
2013-01-14 15:09:00,8.6,-3.9,29.76,East,93,8.7,8.7,56,0.00,,---,0.00,VWS V14.01,2013-01-14 22:09:00,
2013-01-14 15:10:00,8.6,-3.9,29.76,NE,56,6.3,8.7,56,0.00,,---,0.00,VWS V14.01,2013-01-14 22:10:00,
2013-01-14 15:11:00,8.6,-3.9,29.76,ENE,69,8.1,8.7,56,0.00,,---,0.00,VWS V14.01,2013-01-14 22:11:00,
2013-01-14 15:12:00,8.6,-3.9,29.76,ENE,71,5.4,8.7,56,0.00,,---,0.00,VWS V14.01,2013-01-14 22:12:00,
2013-01-14 15:13:00,8.6,-3.9,29.76,ENE,60,4.9,5.4,56,0.00,,---,0.00,VWS V14.01,2013-01-14 22:13:00,
2013-01-14 15:14:00,8.6,-3.9,29.76,NE,51,3.1,4.9,56,0.00,,---,0.00,VWS V14.01,2013-01-14 22:14:00,
2013-01-14 15:15:00,8.6,-3.9,29.76,ENE,78,8.1,8.1,56,0.00,,---,0.00,VWS V14.01,2013-01-14 22:15:00,
2013-01-14 15:16:00,8.6,-3.9,29.76,NE,45,3.1,8.1,56,0.00,,---,0.00,VWS V14.01,2013-01-14 22:16:00,
2013-01-14 15:17:00,8.8,-3.7,29.76,ENE,65,8.7,9.2,56,0.00,,---,0.00,VWS V14.01,2013-01-14 22:17:00,
2013-01-14 15:18:00,8.8,-3.7,29.79,East,93,8.1,10.1,56,0.00,,---,0.00,VWS V14.01,2013-01-14 22:18:00,
2013-01-14 15:19:00,8.8,-3.7,29.79,ENE,76,4.5,10.1,56,0.00,,---,0.00,VWS V14.01,2013-01-14 22:19:00,
2013-01-14 15:20:00,8.8,-3.7,29.79,ENE,75,6.3,6.3,56,0.00,,---,0.00,VWS V14.01,2013-01-14 22:20:00,
2013-01-14 15:21:00,8.8,-3.7,29.79,East,90,8.7,8.7,56,0.00,,---,0.00,VWS V14.01,2013-01-14 22:21:00,
2013-01-14 15:22:00,8.6,-3.9,29.79,East,86,8.1,8.7,56,0.00,,---,0.00,VWS V14.01,2013-01-14 22:22:00,
2013-01-14 15:23:00,8.6,-3.9,29.79,NE,53,6.3,8.7,56,0.00,,---,0.00,VWS V14.01,2013-01-14 22:23:00,
2013-01-14 15:24:00,8.6,-3.9,29.79,East,83,8.1,8.7,56,0.00,,---,0.00,VWS V14.01,2013-01-14 22:24:00,
2013-01-14 15:25:00,8.6,-3.9,29.79,ESE,104,7.2,8.1,56,0.00,,---,0.00,VWS V14.01,2013-01-14 22:25:00,
2013-01-14 15:26:00,8.6,-3.9,29.79,ENE,76,8.1,8.1,56,0.00,,---,0.00,VWS V14.01,2013-01-14 22:26:00,
2013-01-14 15:27:00,8.6,-3.9,29.79,East,79,8.1,8.1,56,0.00,,---,0.00,VWS V14.01,2013-01-14 22:27:00,
2013-01-14 15:28:00,8.6,-3.9,29.79,ENE,63,5.4,8.3,56,0.00,,---,0.00,VWS V14.01,2013-01-14 22:28:00,
2013-01-14 15:29:00,8.6,-3.9,29.79,East,81,4.0,6.7,56,0.00,,---,0.00,VWS V14.01,2013-01-14 22:29:00,
2013-01-14 15:30:00,8.6,-3.9,29.79,ESE,111,4.9,4.9,56,0.00,,---,0.00,VWS V14.01,2013-01-14 22:30:00,
2013-01-14 15:31:00,8.6,-3.9,29.79,ENE,78,5.8,8.1,56,0.00,,---,0.00,VWS V14.01,2013-01-14 22:31:00,
2013-01-14 15:32:00,8.6,-3.9,29.79,ESE,118,4.5,5.8,56,0.00,,---,0.00,VWS V14.01,2013-01-14 22:32:00,
2013-01-14 15:33:00,8.6,-3.9,29.79,East,84,6.3,8.3,56,0.00,,---,0.00,VWS V14.01,2013-01-14 22:33:00,
2013-01-14 15:34:00,8.6,-3.9,29.79,NE,53,4.9,8.3,56,0.00,,---,0.00,VWS V14.01,2013-01-14 22:34:00,
2013-01-14 15:35:00,8.6,-3.9,29.79,NE,55,4.9,5.4,56,0.00,,---,0.00,VWS V14.01,2013-01-14 22:35:00,
2013-01-14 15:36:00,8.6,-3.9,29.79,ENE,70,4.9,5.8,56,0.00,,---,0.00,VWS V14.01,2013-01-14 22:36:00,
2013-01-14 15:37:00,8.6,-3.9,29.79,ENE,74,3.6,5.8,56,0.00,,---,0.00,VWS V14.01,2013-01-14 22:37:00,
2013-01-14 15:38:00,8.6,-3.9,29.79,ENE,57,8.3,9.2,56,0.00,,---,0.00,VWS V14.01,2013-01-14 22:38:00,
2013-01-14 15:39:00,8.6,-3.9,29.79,ENE,73,8.1,8.3,56,0.00,,---,0.00,VWS V14.01,2013-01-14 22:39:00,
2013-01-14 15:40:00,8.4,-4.0,29.79,East,95,6.3,8.3,56,0.00,,---,0.00,VWS V14.01,2013-01-14 22:40:00,
2013-01-14 15:41:00,8.4,-4.0,29.79,ESE,102,5.4,8.1,56,0.00,,---,0.00,VWS V14.01,2013-01-14 22:41:00,
2013-01-14 15:42:00,8.4,-4.0,29.79,East,92,6.3,6.3,56,0.00,,---,0.00,VWS V14.01,2013-01-14 22:42:00,
2013-01-14 15:43:00,8.4,-4.0,29.79,NE,53,5.4,7.2,56,0.00,,---,0.00,VWS V14.01,2013-01-14 22:43:00,
2013-01-14 15:44:00,8.4,-4.0,29.79,NE,54,5.8,8.1,56,0.00,,---,0.00,VWS V14.01,2013-01-14 22:44:00,
2013-01-14 15:45:00,8.4,-4.0,29.79,ENE,73,6.3,6.3,56,0.00,,---,0.00,VWS V14.01,2013-01-14 22:45:00,
2013-01-14 15:46:00,8.4,-4.0,29.79,ENE,71,5.8,8.3,56,0.00,,---,0.00,VWS V14.01,2013-01-14 22:46:00,
2013-01-14 15:47:00,8.4,-4.0,29.79,ENE,61,4.9,8.3,56,0.00,,---,0.00,VWS V14.01,2013-01-14 22:47:00,
2013-01-14 15:48:00,8.2,-4.2,29.79,ENE,74,5.8,5.8,56,0.00,,---,0.00,VWS V14.01,2013-01-14 22:48:00,
2013-01-14 15:49:00,8.2,-4.2,29.79,ENE,70,4.9,7.6,56,0.00,,---,0.00,VWS V14.01,2013-01-14 22:49:00,
2013-01-14 15:50:00,8.2,-4.2,29.79,East,87,3.6,5.8,56,0.00,,---,0.00,VWS V14.01,2013-01-14 22:50:00,
2013-01-14 15:51:00,8.4,-4.0,29.79,ESE,103,2.7,5.8,56,0.00,,---,0.00,VWS V14.01,2013-01-14 22:51:00,
2013-01-14 15:52:00,8.4,-4.0,29.79,ESE,102,0.0,3.1,56,0.00,,---,0.00,VWS V14.01,2013-01-14 22:52:00,
2013-01-14 15:53:00,8.4,-4.0,29.79,ENE,59,5.4,5.8,56,0.00,,---,0.00,VWS V14.01,2013-01-14 22:53:00,
2013-01-14 15:54:00,8.4,-4.0,29.79,NE,49,3.6,5.4,56,0.00,,---,0.00,VWS V14.01,2013-01-14 22:54:00,
2013-01-14 15:55:00,8.4,-4.0,29.79,NE,54,5.8,5.8,56,0.00,,---,0.00,VWS V14.01,2013-01-14 22:55:00,
2013-01-14 15:56:00,8.4,-4.0,29.79,ENE,76,5.8,5.8,56,0.00,,---,0.00,VWS V14.01,2013-01-14 22:56:00,
2013-01-14 15:57:00,8.4,-4.0,29.79,ENE,68,7.6,7.6,56,0.00,,---,0.00,VWS V14.01,2013-01-14 22:57:00,
2013-01-14 15:58:00,8.4,-4.0,29.79,ENE,68,8.1,9.2,56,0.00,,---,0.00,VWS V14.01,2013-01-14 22:58:00,
2013-01-14 15:59:00,8.4,-4.0,29.79,East,92,6.3,8.1,56,0.00,,---,0.00,VWS V14.01,2013-01-14 22:59:00,
2013-01-14 16:00:00,8.4,-4.0,29.79,ENE,62,6.7,6.7,56,0.00,,---,0.00,VWS V14.01,2013-01-14 23:00:00,
2013-01-14 16:01:00,8.4,-4.0,29.79,ENE,68,2.7,6.7,56,0.00,,---,0.00,VWS V14.01,2013-01-14 23:01:00,
2013-01-14 16:02:00,8.4,-4.0,29.79,ENE,74,4.0,6.3,56,0.00,,---,0.00,VWS V14.01,2013-01-14 23:02:00,
2013-01-14 16:03:00,8.4,-4.0,29.76,ENE,72,0.0,4.0,56,0.00,,---,0.00,VWS V14.01,2013-01-14 23:03:00,
2013-01-14 16:04:00,8.4,-4.0,29.76,ENE,72,0.0,0.0,56,0.00,,---,0.00,VWS V14.01,2013-01-14 23:04:00,
2013-01-14 16:05:00,8.4,-4.0,29.76,ENE,72,0.0,0.0,56,0.00,,---,0.00,VWS V14.01,2013-01-14 23:05:00,
2013-01-14 16:06:00,8.4,-4.0,29.76,NE,55,4.9,4.9,56,0.00,,---,0.00,VWS V14.01,2013-01-14 23:06:00,
2013-01-14 16:07:00,8.4,-4.0,29.76,ENE,62,6.3,6.7,56,0.00,,---,0.00,VWS V14.01,2013-01-14 23:07:00,
2013-01-14 16:08:00,8.4,-4.0,29.76,ENE,75,8.7,8.7,56,0.00,,---,0.00,VWS V14.01,2013-01-14 23:08:00,
2013-01-14 16:09:00,8.4,-4.0,29.76,ENE,65,6.3,8.7,56,0.00,,---,0.00,VWS V14.01,2013-01-14 23:09:00,
2013-01-14 16:10:00,8.4,-4.0,29.76,ENE,74,5.8,8.7,56,0.00,,---,0.00,VWS V14.01,2013-01-14 23:10:00,
2013-01-14 16:11:00,8.4,-4.0,29.76,NE,53,4.9,5.8,56,0.00,,---,0.00,VWS V14.01,2013-01-14 23:11:00,
2013-01-14 16:12:00,8.4,-4.0,29.76,NE,51,0.0,5.4,56,0.00,,---,0.00,VWS V14.01,2013-01-14 23:12:00,
2013-01-14 16:13:00,8.4,-4.0,29.76,NE,53,0.0,3.1,56,0.00,,---,0.00,VWS V14.01,2013-01-14 23:13:00,
2013-01-14 16:14:00,8.4,-4.0,29.76,East,87,5.4,5.4,56,0.00,,---,0.00,VWS V14.01,2013-01-14 23:14:00,
2013-01-14 16:15:00,8.4,-4.0,29.76,ENE,63,5.8,5.8,56,0.00,,---,0.00,VWS V14.01,2013-01-14 23:15:00,
2013-01-14 16:16:00,8.4,-4.0,29.76,ENE,68,4.0,5.8,56,0.00,,---,0.00,VWS V14.01,2013-01-14 23:16:00,
2013-01-14 16:17:00,8.4,-4.0,29.76,East,81,3.6,4.0,56,0.00,,---,0.00,VWS V14.01,2013-01-14 23:17:00,
2013-01-14 16:18:00,8.4,-4.0,29.79,ENE,77,3.6,6.3,56,0.00,,---,0.00,VWS V14.01,2013-01-14 23:18:00,
2013-01-14 16:19:00,8.4,-4.0,29.79,ENE,63,6.3,6.3,56,0.00,,---,0.00,VWS V14.01,2013-01-14 23:19:00,
2013-01-14 16:20:00,8.4,-4.0,29.79,ENE,62,6.3,6.3,56,0.00,,---,0.00,VWS V14.01,2013-01-14 23:20:00,
2013-01-14 16:21:00,8.4,-4.0,29.79,ENE,78,5.4,6.3,56,0.00,,---,0.00,VWS V14.01,2013-01-14 23:21:00,
2013-01-14 16:22:00,8.4,-4.0,29.79,ENE,65,5.4,5.8,56,0.00,,---,0.00,VWS V14.01,2013-01-14 23:22:00,
2013-01-14 16:23:00,8.4,-4.0,29.79,ENE,77,5.8,5.8,56,0.00,,---,0.00,VWS V14.01,2013-01-14 23:23:00,
2013-01-14 16:24:00,8.4,-4.0,29.79,ENE,64,5.8,5.8,56,0.00,,---,0.00,VWS V14.01,2013-01-14 23:24:00,
2013-01-14 16:25:00,8.4,-4.0,29.79,ENE,77,5.8,5.8,56,0.00,,---,0.00,VWS V14.01,2013-01-14 23:25:00,
2013-01-14 16:26:00,8.4,-4.0,29.79,East,81,5.8,8.1,56,0.00,,---,0.00,VWS V14.01,2013-01-14 23:26:00,
2013-01-14 16:27:00,8.6,-3.9,29.79,East,84,2.7,6.3,56,0.00,,---,0.00,VWS V14.01,2013-01-14 23:27:00,
2013-01-14 16:28:00,8.6,-3.9,29.79,East,82,5.4,7.6,56,0.00,,---,0.00,VWS V14.01,2013-01-14 23:28:00,
2013-01-14 16:29:00,8.6,-3.9,29.79,East,93,5.8,6.3,56,0.00,,---,0.00,VWS V14.01,2013-01-14 23:29:00,
2013-01-14 16:30:00,8.6,-3.9,29.79,ENE,68,4.9,5.8,56,0.00,,---,0.00,VWS V14.01,2013-01-14 23:30:00,
2013-01-14 16:31:00,8.6,-3.9,29.79,ENE,69,4.9,5.4,56,0.00,,---,0.00,VWS V14.01,2013-01-14 23:31:00,
2013-01-14 16:32:00,8.6,-3.9,29.79,ENE,57,7.6,7.6,56,0.00,,---,0.00,VWS V14.01,2013-01-14 23:32:00,
2013-01-14 16:33:00,8.6,-3.9,29.82,NE,52,4.0,7.6,56,0.00,,---,0.00,VWS V14.01,2013-01-14 23:33:00,
2013-01-14 16:34:00,8.6,-3.9,29.82,NE,56,0.0,4.0,56,0.00,,---,0.00,VWS V14.01,2013-01-14 23:34:00,
2013-01-14 16:35:00,8.6,-3.9,29.82,East,100,3.1,7.6,56,0.00,,---,0.00,VWS V14.01,2013-01-14 23:35:00,
2013-01-14 16:36:00,8.6,-3.9,29.82,East,82,5.4,5.4,56,0.00,,---,0.00,VWS V14.01,2013-01-14 23:36:00,
2013-01-14 16:37:00,8.6,-3.9,29.82,East,96,4.0,5.4,56,0.00,,---,0.00,VWS V14.01,2013-01-14 23:37:00,
2013-01-14 16:38:00,8.6,-3.9,29.82,ENE,76,3.6,4.9,56,0.00,,---,0.00,VWS V14.01,2013-01-14 23:38:00,
2013-01-14 16:39:00,8.6,-3.9,29.82,East,88,3.6,6.3,56,0.00,,---,0.00,VWS V14.01,2013-01-14 23:39:00,
2013-01-14 16:40:00,8.6,-3.9,29.82,ESE,104,5.8,5.8,56,0.00,,---,0.00,VWS V14.01,2013-01-14 23:40:00,
2013-01-14 16:41:00,8.6,-3.9,29.82,East,94,2.7,5.8,56,0.00,,---,0.00,VWS V14.01,2013-01-14 23:41:00,
2013-01-14 16:42:00,8.6,-3.9,29.82,ESE,104,4.9,5.8,56,0.00,,---,0.00,VWS V14.01,2013-01-14 23:42:00,
2013-01-14 16:43:00,8.6,-3.9,29.82,East,97,3.1,5.4,56,0.00,,---,0.00,VWS V14.01,2013-01-14 23:43:00,
2013-01-14 16:44:00,8.6,-3.9,29.82,East,98,3.1,4.0,56,0.00,,---,0.00,VWS V14.01,2013-01-14 23:44:00,
2013-01-14 16:45:00,8.6,-3.9,29.82,ESE,108,4.9,5.4,56,0.00,,---,0.00,VWS V14.01,2013-01-14 23:45:00,
2013-01-14 16:46:00,8.4,-4.0,29.82,SE,128,6.3,6.3,56,0.00,,---,0.00,VWS V14.01,2013-01-14 23:46:00,
2013-01-14 16:47:00,8.4,-4.0,29.79,ESE,106,2.2,6.3,56,0.00,,---,0.00,VWS V14.01,2013-01-14 23:47:00,
2013-01-14 16:48:00,8.4,-4.0,29.79,East,88,3.1,4.0,56,0.00,,---,0.00,VWS V14.01,2013-01-14 23:48:00,
2013-01-14 16:49:00,8.4,-4.0,29.79,East,92,5.8,6.3,56,0.00,,---,0.00,VWS V14.01,2013-01-14 23:49:00,
2013-01-14 16:50:00,8.4,-4.0,29.79,ESE,118,2.7,6.3,56,0.00,,---,0.00,VWS V14.01,2013-01-14 23:50:00,
2013-01-14 16:51:00,8.4,-4.0,29.79,ESE,112,3.1,3.6,56,0.00,,---,0.00,VWS V14.01,2013-01-14 23:51:00,
2013-01-14 16:52:00,8.4,-4.0,29.79,SE,128,6.3,6.3,56,0.00,,---,0.00,VWS V14.01,2013-01-14 23:52:00,
2013-01-14 16:53:00,8.4,-4.0,29.79,ESE,115,6.3,6.3,56,0.00,,---,0.00,VWS V14.01,2013-01-14 23:53:00,
2013-01-14 16:54:00,8.1,-4.4,29.79,SE,133,7.6,8.1,56,0.00,,---,0.00,VWS V14.01,2013-01-14 23:54:00,
2013-01-14 16:55:00,8.1,-4.4,29.79,ESE,123,8.1,8.1,56,0.00,,---,0.00,VWS V14.01,2013-01-14 23:55:00,
2013-01-14 16:56:00,8.1,-4.4,29.79,East,84,4.0,8.1,56,0.00,,---,0.00,VWS V14.01,2013-01-14 23:56:00,
2013-01-14 16:57:00,8.2,-4.2,29.79,ESE,102,6.3,6.3,56,0.00,,---,0.00,VWS V14.01,2013-01-14 23:57:00,
2013-01-14 16:58:00,8.2,-4.2,29.79,ESE,105,2.2,6.3,56,0.00,,---,0.00,VWS V14.01,2013-01-14 23:58:00,
2013-01-14 16:59:00,8.2,-4.2,29.79,SE,137,5.4,5.8,56,0.00,,---,0.00,VWS V14.01,2013-01-14 23:59:00,
2013-01-14 17:00:00,8.2,-4.2,29.79,SE,138,3.6,5.4,56,0.00,,---,0.00,VWS V14.01,2013-01-15 00:00:00,
2013-01-14 17:01:00,8.2,-4.2,29.79,SE,127,4.0,7.6,56,0.00,,---,0.00,VWS V14.01,2013-01-15 00:01:00,
2013-01-14 17:02:00,8.1,-4.4,29.79,SE,133,5.8,6.3,56,0.00,,---,0.00,VWS V14.01,2013-01-15 00:02:00,
2013-01-14 17:03:00,8.1,-4.4,29.82,SE,127,3.1,6.3,56,0.00,,---,0.00,VWS V14.01,2013-01-15 00:03:00,
2013-01-14 17:04:00,8.1,-4.4,29.82,SE,128,6.7,6.7,56,0.00,,---,0.00,VWS V14.01,2013-01-15 00:04:00,
2013-01-14 17:05:00,8.1,-4.4,29.82,SE,130,7.6,7.6,56,0.00,,---,0.00,VWS V14.01,2013-01-15 00:05:00,
2013-01-14 17:06:00,8.1,-4.4,29.82,SE,139,6.3,7.6,56,0.00,,---,0.00,VWS V14.01,2013-01-15 00:06:00,
2013-01-14 17:07:00,8.1,-4.4,29.82,SE,127,3.6,6.3,56,0.00,,---,0.00,VWS V14.01,2013-01-15 00:07:00,
2013-01-14 17:08:00,8.1,-4.4,29.82,SE,139,4.0,5.8,56,0.00,,---,0.00,VWS V14.01,2013-01-15 00:08:00,
2013-01-14 17:09:00,8.1,-4.4,29.82,SE,134,8.1,8.1,56,0.00,,---,0.00,VWS V14.01,2013-01-15 00:09:00,
2013-01-14 17:10:00,8.1,-4.4,29.82,ESE,123,8.1,8.1,56,0.00,,---,0.00,VWS V14.01,2013-01-15 00:10:00,
2013-01-14 17:11:00,8.1,-4.4,29.82,ESE,119,6.3,8.3,56,0.00,,---,0.00,VWS V14.01,2013-01-15 00:11:00,
2013-01-14 17:12:00,8.2,-4.2,29.82,ESE,118,5.4,7.2,56,0.00,,---,0.00,VWS V14.01,2013-01-15 00:12:00,
2013-01-14 17:13:00,8.2,-4.2,29.82,SE,130,4.9,6.7,56,0.00,,---,0.00,VWS V14.01,2013-01-15 00:13:00,
2013-01-14 17:14:00,8.2,-4.2,29.82,SE,126,6.3,6.3,56,0.00,,---,0.00,VWS V14.01,2013-01-15 00:14:00,
2013-01-14 17:15:00,8.2,-4.2,29.82,ESE,108,3.1,6.3,56,0.00,,---,0.00,VWS V14.01,2013-01-15 00:15:00,
2013-01-14 17:16:00,8.4,-4.0,29.82,ESE,112,2.7,5.4,56,0.00,,---,0.00,VWS V14.01,2013-01-15 00:16:00,
2013-01-14 17:17:00,8.4,-4.0,29.82,ESE,121,6.3,6.3,56,0.00,,---,0.00,VWS V14.01,2013-01-15 00:17:00,
2013-01-14 17:18:00,8.4,-4.0,29.82,ESE,118,0.0,6.3,56,0.00,,---,0.00,VWS V14.01,2013-01-15 00:18:00,
2013-01-14 17:19:00,8.4,-4.0,29.82,SE,126,3.6,4.9,56,0.00,,---,0.00,VWS V14.01,2013-01-15 00:19:00,
2013-01-14 17:20:00,8.4,-4.0,29.82,East,90,4.0,4.0,56,0.00,,---,0.00,VWS V14.01,2013-01-15 00:20:00,
2013-01-14 17:21:00,8.4,-4.0,29.82,East,97,6.3,6.3,56,0.00,,---,0.00,VWS V14.01,2013-01-15 00:21:00,
2013-01-14 17:22:00,8.6,-3.9,29.82,East,89,4.9,6.3,56,0.00,,---,0.00,VWS V14.01,2013-01-15 00:22:00,
2013-01-14 17:23:00,8.6,-3.9,29.82,SE,126,4.9,5.8,56,0.00,,---,0.00,VWS V14.01,2013-01-15 00:23:00,
2013-01-14 17:24:00,8.6,-3.9,29.82,SE,124,5.4,6.3,56,0.00,,---,0.00,VWS V14.01,2013-01-15 00:24:00,
2013-01-14 17:25:00,8.6,-3.9,29.82,East,93,3.1,5.4,56,0.00,,---,0.00,VWS V14.01,2013-01-15 00:25:00,
2013-01-14 17:26:00,8.6,-3.9,29.82,ENE,77,3.6,5.8,56,0.00,,---,0.00,VWS V14.01,2013-01-15 00:26:00,
2013-01-14 17:27:00,8.6,-3.9,29.82,East,80,5.4,6.3,56,0.00,,---,0.00,VWS V14.01,2013-01-15 00:27:00,
2013-01-14 17:28:00,8.6,-3.9,29.82,East,92,3.1,5.4,56,0.00,,---,0.00,VWS V14.01,2013-01-15 00:28:00,
2013-01-14 17:29:00,8.6,-3.9,29.82,ESE,105,4.0,4.0,56,0.00,,---,0.00,VWS V14.01,2013-01-15 00:29:00,
2013-01-14 17:30:00,8.6,-3.9,29.82,East,95,4.9,5.8,56,0.00,,---,0.00,VWS V14.01,2013-01-15 00:30:00,
2013-01-14 17:31:00,8.8,-3.7,29.82,ENE,71,4.0,5.4,56,0.00,,---,0.00,VWS V14.01,2013-01-15 00:31:00,
2013-01-14 17:32:00,8.8,-3.7,29.82,ENE,66,3.6,4.9,56,0.00,,---,0.00,VWS V14.01,2013-01-15 00:32:00,
2013-01-14 17:33:00,8.8,-3.7,29.82,ENE,71,5.4,5.4,56,0.00,,---,0.00,VWS V14.01,2013-01-15 00:33:00,
2013-01-14 17:34:00,8.8,-3.7,29.82,East,86,3.1,5.8,56,0.00,,---,0.00,VWS V14.01,2013-01-15 00:34:00,
2013-01-14 17:35:00,8.8,-3.7,29.82,ESE,103,4.0,4.9,56,0.00,,---,0.00,VWS V14.01,2013-01-15 00:35:00,
2013-01-14 17:36:00,8.8,-3.7,29.82,East,90,3.1,4.0,56,0.00,,---,0.00,VWS V14.01,2013-01-15 00:36:00,
2013-01-14 17:37:00,8.8,-3.7,29.82,ESE,102,3.1,3.6,56,0.00,,---,0.00,VWS V14.01,2013-01-15 00:37:00,
2013-01-14 17:38:00,8.8,-3.7,29.82,East,95,2.7,4.9,56,0.00,,---,0.00,VWS V14.01,2013-01-15 00:38:00,
2013-01-14 17:39:00,8.8,-3.7,29.82,ESE,105,4.0,5.4,56,0.00,,---,0.00,VWS V14.01,2013-01-15 00:39:00,
2013-01-14 17:40:00,8.8,-3.7,29.82,ESE,109,2.7,4.0,56,0.00,,---,0.00,VWS V14.01,2013-01-15 00:40:00,
2013-01-14 17:41:00,8.8,-3.7,29.82,ESE,109,0.0,4.9,56,0.00,,---,0.00,VWS V14.01,2013-01-15 00:41:00,
2013-01-14 17:42:00,8.8,-3.7,29.82,ESE,115,3.1,3.6,56,0.00,,---,0.00,VWS V14.01,2013-01-15 00:42:00,
2013-01-14 17:43:00,8.8,-3.7,29.82,East,100,4.0,4.0,56,0.00,,---,0.00,VWS V14.01,2013-01-15 00:43:00,
2013-01-14 17:44:00,8.8,-3.7,29.82,East,99,2.7,4.0,56,0.00,,---,0.00,VWS V14.01,2013-01-15 00:44:00,
2013-01-14 17:45:00,8.8,-3.7,29.82,East,97,3.6,4.9,56,0.00,,---,0.00,VWS V14.01,2013-01-15 00:45:00,
2013-01-14 17:46:00,8.8,-3.7,29.82,ENE,77,3.6,4.0,56,0.00,,---,0.00,VWS V14.01,2013-01-15 00:46:00,
2013-01-14 17:47:00,8.8,-3.7,29.82,ENE,74,4.0,4.0,56,0.00,,---,0.00,VWS V14.01,2013-01-15 00:47:00,
2013-01-14 17:48:00,8.8,-3.7,29.79,ENE,61,4.9,4.9,56,0.00,,---,0.00,VWS V14.01,2013-01-15 00:48:00,
2013-01-14 17:49:00,8.8,-3.7,29.79,East,91,4.0,5.8,56,0.00,,---,0.00,VWS V14.01,2013-01-15 00:49:00,
2013-01-14 17:50:00,8.8,-3.7,29.79,East,90,2.7,4.0,56,0.00,,---,0.00,VWS V14.01,2013-01-15 00:50:00,
2013-01-14 17:51:00,8.8,-3.7,29.79,East,83,2.7,4.0,56,0.00,,---,0.00,VWS V14.01,2013-01-15 00:51:00,
2013-01-14 17:52:00,8.8,-3.7,29.79,East,83,0.0,2.7,56,0.00,,---,0.00,VWS V14.01,2013-01-15 00:52:00,
2013-01-14 17:53:00,8.8,-3.7,29.79,East,83,3.1,3.1,56,0.00,,---,0.00,VWS V14.01,2013-01-15 00:53:00,
2013-01-14 17:54:00,8.8,-3.7,29.79,East,83,3.1,3.6,56,0.00,,---,0.00,VWS V14.01,2013-01-15 00:54:00,
2013-01-14 17:55:00,8.8,-3.7,29.79,East,83,3.1,3.1,56,0.00,,---,0.00,VWS V14.01,2013-01-15 00:55:00,
2013-01-14 17:56:00,8.8,-3.7,29.79,East,79,2.7,3.1,56,0.00,,---,0.00,VWS V14.01,2013-01-15 00:56:00,
2013-01-14 17:57:00,8.8,-3.7,29.79,ENE,61,3.6,4.0,56,0.00,,---,0.00,VWS V14.01,2013-01-15 00:57:00,
2013-01-14 17:58:00,8.8,-3.7,29.79,ENE,61,3.1,3.6,56,0.00,,---,0.00,VWS V14.01,2013-01-15 00:58:00,
2013-01-14 17:59:00,8.8,-3.7,29.79,ENE,61,0.0,3.1,56,0.00,,---,0.00,VWS V14.01,2013-01-15 00:59:00,
2013-01-14 18:00:00,8.8,-3.7,29.79,ENE,58,3.1,3.1,56,0.00,,---,0.00,VWS V14.01,2013-01-15 01:00:00,
2013-01-14 18:01:00,8.8,-3.7,29.79,ENE,59,0.0,3.1,56,0.00,,---,0.00,VWS V14.01,2013-01-15 01:01:00,
2013-01-14 18:02:00,8.8,-3.7,29.79,NE,54,5.4,5.4,56,0.00,,---,0.00,VWS V14.01,2013-01-15 01:02:00,
2013-01-14 18:03:00,8.8,-3.7,29.82,ENE,58,2.7,5.4,56,0.00,,---,0.00,VWS V14.01,2013-01-15 01:03:00,
2013-01-14 18:04:00,8.8,-3.7,29.82,ENE,60,3.6,3.6,56,0.00,,---,0.00,VWS V14.01,2013-01-15 01:04:00,
2013-01-14 18:05:00,8.8,-3.7,29.82,ENE,63,3.1,3.6,56,0.00,,---,0.00,VWS V14.01,2013-01-15 01:05:00,
2013-01-14 18:06:00,8.8,-3.7,29.82,ENE,65,0.0,3.1,56,0.00,,---,0.00,VWS V14.01,2013-01-15 01:06:00,
2013-01-14 18:07:00,8.8,-3.7,29.82,ENE,67,0.0,0.0,56,0.00,,---,0.00,VWS V14.01,2013-01-15 01:07:00,
2013-01-14 18:08:00,8.8,-3.7,29.82,ENE,78,3.6,3.6,56,0.00,,---,0.00,VWS V14.01,2013-01-15 01:08:00,
2013-01-14 18:09:00,8.8,-3.7,29.82,East,90,0.0,5.4,56,0.00,,---,0.00,VWS V14.01,2013-01-15 01:09:00,
2013-01-14 18:10:00,8.8,-3.7,29.82,ENE,69,4.0,4.0,56,0.00,,---,0.00,VWS V14.01,2013-01-15 01:10:00,
2013-01-14 18:11:00,8.8,-3.7,29.82,ENE,69,2.7,4.0,56,0.00,,---,0.00,VWS V14.01,2013-01-15 01:11:00,
2013-01-14 18:12:00,8.8,-3.7,29.82,ENE,69,0.0,2.7,56,0.00,,---,0.00,VWS V14.01,2013-01-15 01:12:00,
2013-01-14 18:13:00,8.8,-3.7,29.82,ENE,69,3.6,4.0,56,0.00,,---,0.00,VWS V14.01,2013-01-15 01:13:00,
2013-01-14 18:14:00,8.8,-3.7,29.82,East,90,5.4,5.4,56,0.00,,---,0.00,VWS V14.01,2013-01-15 01:14:00,
2013-01-14 18:15:00,8.8,-3.7,29.82,East,97,4.0,5.4,56,0.00,,---,0.00,VWS V14.01,2013-01-15 01:15:00,
2013-01-14 18:16:00,8.8,-3.7,29.82,East,95,3.1,4.0,56,0.00,,---,0.00,VWS V14.01,2013-01-15 01:16:00,
2013-01-14 18:17:00,8.8,-3.7,29.82,East,89,0.0,4.0,56,0.00,,---,0.00,VWS V14.01,2013-01-15 01:17:00,
2013-01-14 18:18:00,8.8,-3.7,29.79,East,89,0.0,0.0,56,0.00,,---,0.00,VWS V14.01,2013-01-15 01:18:00,
2013-01-14 18:19:00,8.8,-3.7,29.79,East,89,0.0,0.0,56,0.00,,---,0.00,VWS V14.01,2013-01-15 01:19:00,
2013-01-14 18:20:00,8.8,-3.7,29.79,East,89,2.7,4.0,56,0.00,,---,0.00,VWS V14.01,2013-01-15 01:20:00,
2013-01-14 18:21:00,8.8,-3.7,29.79,ESE,102,2.7,2.7,56,0.00,,---,0.00,VWS V14.01,2013-01-15 01:21:00,
2013-01-14 18:22:00,8.8,-3.7,29.79,East,99,2.7,3.6,56,0.00,,---,0.00,VWS V14.01,2013-01-15 01:22:00,
2013-01-14 18:23:00,8.8,-3.7,29.79,East,99,0.0,3.1,56,0.00,,---,0.00,VWS V14.01,2013-01-15 01:23:00,
2013-01-14 18:24:00,8.8,-3.7,29.79,East,99,2.2,2.7,56,0.00,,---,0.00,VWS V14.01,2013-01-15 01:24:00,
2013-01-14 18:25:00,8.8,-3.7,29.79,East,99,3.6,3.6,56,0.00,,---,0.00,VWS V14.01,2013-01-15 01:25:00,
2013-01-14 18:26:00,8.8,-3.7,29.79,East,99,0.0,3.6,56,0.00,,---,0.00,VWS V14.01,2013-01-15 01:26:00,
2013-01-14 18:27:00,8.8,-3.7,29.79,East,99,0.0,2.7,56,0.00,,---,0.00,VWS V14.01,2013-01-15 01:27:00,
2013-01-14 18:28:00,8.8,-3.7,29.79,East,99,0.0,0.0,56,0.00,,---,0.00,VWS V14.01,2013-01-15 01:28:00,
2013-01-14 18:29:00,8.8,-3.7,29.79,East,99,0.0,0.0,56,0.00,,---,0.00,VWS V14.01,2013-01-15 01:29:00,
2013-01-14 18:30:00,8.8,-3.7,29.79,East,99,2.7,2.7,56,0.00,,---,0.00,VWS V14.01,2013-01-15 01:30:00,
2013-01-14 18:31:00,8.8,-3.7,29.79,East,99,0.0,3.1,56,0.00,,---,0.00,VWS V14.01,2013-01-15 01:31:00,
2013-01-14 18:32:00,8.8,-3.7,29.79,East,99,0.0,0.0,56,0.00,,---,0.00,VWS V14.01,2013-01-15 01:32:00,
2013-01-14 18:33:00,8.8,-3.7,29.82,East,97,2.7,4.5,56,0.00,,---,0.00,VWS V14.01,2013-01-15 01:33:00,
2013-01-14 18:34:00,9.0,-3.5,29.82,East,97,0.0,2.7,56,0.00,,---,0.00,VWS V14.01,2013-01-15 01:34:00,
2013-01-14 18:35:00,9.0,-3.5,29.82,East,97,0.0,0.0,56,0.00,,---,0.00,VWS V14.01,2013-01-15 01:35:00,
2013-01-14 18:36:00,9.0,-3.5,29.82,East,96,0.0,0.0,56,0.00,,---,0.00,VWS V14.01,2013-01-15 01:36:00,
2013-01-14 18:37:00,9.0,-3.5,29.82,East,97,0.0,0.0,56,0.00,,---,0.00,VWS V14.01,2013-01-15 01:37:00,
2013-01-14 18:38:00,9.0,-3.5,29.82,East,97,0.0,0.0,56,0.00,,---,0.00,VWS V14.01,2013-01-15 01:38:00,
2013-01-14 18:39:00,9.0,-3.5,29.82,East,97,0.0,4.0,56,0.00,,---,0.00,VWS V14.01,2013-01-15 01:39:00,
2013-01-14 18:40:00,9.0,-3.5,29.82,East,96,0.0,0.0,56,0.00,,---,0.00,VWS V14.01,2013-01-15 01:40:00,
2013-01-14 18:41:00,9.0,-3.5,29.82,East,97,0.0,0.0,56,0.00,,---,0.00,VWS V14.01,2013-01-15 01:41:00,
2013-01-14 18:42:00,9.0,-3.5,29.82,East,97,0.0,0.0,56,0.00,,---,0.00,VWS V14.01,2013-01-15 01:42:00,
2013-01-14 18:43:00,9.0,-3.5,29.82,East,96,0.0,0.0,56,0.00,,---,0.00,VWS V14.01,2013-01-15 01:43:00,
2013-01-14 18:44:00,9.1,-3.4,29.82,East,97,0.0,0.0,56,0.00,,---,0.00,VWS V14.01,2013-01-15 01:44:00,
2013-01-14 18:45:00,9.1,-3.4,29.82,East,97,0.0,0.0,56,0.00,,---,0.00,VWS V14.01,2013-01-15 01:45:00,
2013-01-14 18:46:00,9.1,-3.4,29.82,East,96,0.0,0.0,56,0.00,,---,0.00,VWS V14.01,2013-01-15 01:46:00,
2013-01-14 18:47:00,9.1,-3.4,29.82,East,97,0.0,0.0,56,0.00,,---,0.00,VWS V14.01,2013-01-15 01:47:00,
2013-01-14 18:48:00,9.1,-3.4,29.82,East,96,0.0,0.0,56,0.00,,---,0.00,VWS V14.01,2013-01-15 01:48:00,
2013-01-14 18:49:00,9.1,-3.4,29.82,East,96,0.0,0.0,56,0.00,,---,0.00,VWS V14.01,2013-01-15 01:49:00,
2013-01-14 18:50:00,9.1,-3.4,29.82,East,97,0.0,0.0,56,0.00,,---,0.00,VWS V14.01,2013-01-15 01:50:00,
2013-01-14 18:51:00,9.1,-3.4,29.82,East,96,0.0,0.0,56,0.00,,---,0.00,VWS V14.01,2013-01-15 01:51:00,
2013-01-14 18:52:00,9.1,-3.4,29.82,East,96,0.0,0.0,56,0.00,,---,0.00,VWS V14.01,2013-01-15 01:52:00,
2013-01-14 18:53:00,9.1,-3.4,29.82,East,96,0.0,0.0,56,0.00,,---,0.00,VWS V14.01,2013-01-15 01:53:00,
2013-01-14 18:54:00,9.1,-3.4,29.82,East,96,0.0,0.0,56,0.00,,---,0.00,VWS V14.01,2013-01-15 01:54:00,
2013-01-14 18:55:00,9.1,-3.4,29.82,East,96,0.0,0.0,56,0.00,,---,0.00,VWS V14.01,2013-01-15 01:55:00,
2013-01-14 18:56:00,9.1,-3.4,29.82,East,96,0.0,0.0,56,0.00,,---,0.00,VWS V14.01,2013-01-15 01:56:00,
2013-01-14 18:57:00,9.1,-3.4,29.82,East,96,0.0,0.0,56,0.00,,---,0.00,VWS V14.01,2013-01-15 01:57:00,
2013-01-14 18:58:00,9.1,-3.4,29.82,East,96,0.0,0.0,56,0.00,,---,0.00,VWS V14.01,2013-01-15 01:58:00,
2013-01-14 18:59:00,9.1,-3.4,29.82,East,97,0.0,0.0,56,0.00,,---,0.00,VWS V14.01,2013-01-15 01:59:00,
2013-01-14 19:00:00,9.1,-3.4,29.82,East,96,0.0,0.0,56,0.00,,---,0.00,VWS V14.01,2013-01-15 02:00:00,
2013-01-14 19:01:00,9.3,-3.2,29.82,East,96,0.0,0.0,56,0.00,,---,0.00,VWS V14.01,2013-01-15 02:01:00,
2013-01-14 19:02:00,9.3,-3.2,29.82,East,97,0.0,0.0,56,0.00,,---,0.00,VWS V14.01,2013-01-15 02:02:00,
2013-01-14 19:03:00,9.3,-3.2,29.82,East,96,0.0,0.0,56,0.00,,---,0.00,VWS V14.01,2013-01-15 02:03:00,
2013-01-14 19:04:00,9.3,-3.2,29.82,East,96,0.0,0.0,56,0.00,,---,0.00,VWS V14.01,2013-01-15 02:04:00,
2013-01-14 19:05:00,9.3,-3.2,29.82,East,96,0.0,0.0,56,0.00,,---,0.00,VWS V14.01,2013-01-15 02:05:00,
2013-01-14 19:06:00,9.3,-3.2,29.82,East,96,0.0,0.0,56,0.00,,---,0.00,VWS V14.01,2013-01-15 02:06:00,
2013-01-14 19:07:00,9.3,-3.2,29.82,East,96,0.0,0.0,56,0.00,,---,0.00,VWS V14.01,2013-01-15 02:07:00,
2013-01-14 19:08:00,9.3,-3.2,29.82,East,96,0.0,0.0,56,0.00,,---,0.00,VWS V14.01,2013-01-15 02:08:00,
2013-01-14 19:09:00,9.3,-3.2,29.82,East,96,0.0,0.0,56,0.00,,---,0.00,VWS V14.01,2013-01-15 02:09:00,
2013-01-14 19:10:00,9.3,-3.2,29.82,East,96,0.0,0.0,56,0.00,,---,0.00,VWS V14.01,2013-01-15 02:10:00,
2013-01-14 19:11:00,9.3,-3.2,29.82,East,96,0.0,0.0,56,0.00,,---,0.00,VWS V14.01,2013-01-15 02:11:00,
2013-01-14 19:12:00,9.3,-3.2,29.82,East,96,0.0,0.0,56,0.00,,---,0.00,VWS V14.01,2013-01-15 02:12:00,
2013-01-14 19:13:00,9.3,-3.2,29.82,East,96,0.0,0.0,56,0.00,,---,0.00,VWS V14.01,2013-01-15 02:13:00,
2013-01-14 19:14:00,9.3,-3.2,29.82,East,97,0.0,0.0,56,0.00,,---,0.00,VWS V14.01,2013-01-15 02:14:00,
2013-01-14 19:15:00,9.3,-3.2,29.82,East,96,0.0,0.0,56,0.00,,---,0.00,VWS V14.01,2013-01-15 02:15:00,
2013-01-14 19:16:00,9.3,-3.2,29.82,East,96,0.0,0.0,56,0.00,,---,0.00,VWS V14.01,2013-01-15 02:16:00,
2013-01-14 19:17:00,9.3,-3.2,29.82,East,96,0.0,0.0,56,0.00,,---,0.00,VWS V14.01,2013-01-15 02:17:00,
2013-01-14 19:18:00,9.3,-3.2,29.82,East,96,0.0,0.0,56,0.00,,---,0.00,VWS V14.01,2013-01-15 02:18:00,
2013-01-14 19:19:00,9.3,-3.2,29.82,East,96,0.0,0.0,56,0.00,,---,0.00,VWS V14.01,2013-01-15 02:19:00,
2013-01-14 19:20:00,9.3,-3.2,29.82,East,96,0.0,0.0,56,0.00,,---,0.00,VWS V14.01,2013-01-15 02:20:00,
2013-01-14 19:21:00,9.3,-3.2,29.82,East,97,0.0,0.0,56,0.00,,---,0.00,VWS V14.01,2013-01-15 02:21:00,
2013-01-14 19:22:00,9.3,-3.2,29.82,East,96,0.0,0.0,56,0.00,,---,0.00,VWS V14.01,2013-01-15 02:22:00,
2013-01-14 19:23:00,9.3,-3.2,29.82,East,96,0.0,0.0,56,0.00,,---,0.00,VWS V14.01,2013-01-15 02:23:00,
2013-01-14 19:24:00,9.5,-3.0,29.82,East,97,0.0,0.0,56,0.00,,---,0.00,VWS V14.01,2013-01-15 02:24:00,
2013-01-14 19:25:00,9.5,-3.0,29.82,East,96,0.0,0.0,56,0.00,,---,0.00,VWS V14.01,2013-01-15 02:25:00,
2013-01-14 19:26:00,9.5,-3.0,29.82,East,96,0.0,0.0,56,0.00,,---,0.00,VWS V14.01,2013-01-15 02:26:00,
2013-01-14 19:27:00,9.5,-3.0,29.82,East,96,0.0,0.0,56,0.00,,---,0.00,VWS V14.01,2013-01-15 02:27:00,
2013-01-14 19:28:00,9.5,-3.0,29.82,East,96,0.0,0.0,56,0.00,,---,0.00,VWS V14.01,2013-01-15 02:28:00,
2013-01-14 19:29:00,9.5,-3.0,29.82,East,96,0.0,0.0,56,0.00,,---,0.00,VWS V14.01,2013-01-15 02:29:00,
2013-01-14 19:30:00,9.5,-3.0,29.82,East,96,0.0,0.0,56,0.00,,---,0.00,VWS V14.01,2013-01-15 02:30:00,
2013-01-14 19:31:00,9.7,-2.8,29.82,East,96,0.0,0.0,56,0.00,,---,0.00,VWS V14.01,2013-01-15 02:31:00,
2013-01-14 19:32:00,9.7,-2.8,29.82,East,96,0.0,0.0,56,0.00,,---,0.00,VWS V14.01,2013-01-15 02:32:00,
2013-01-14 19:33:00,9.7,-2.8,29.82,East,96,0.0,0.0,56,0.00,,---,0.00,VWS V14.01,2013-01-15 02:33:00,
2013-01-14 19:34:00,9.7,-2.8,29.82,East,97,0.0,0.0,56,0.00,,---,0.00,VWS V14.01,2013-01-15 02:34:00,
2013-01-14 19:35:00,9.7,-2.8,29.82,East,96,0.0,0.0,56,0.00,,---,0.00,VWS V14.01,2013-01-15 02:35:00,
2013-01-14 19:36:00,9.7,-2.8,29.82,East,96,0.0,0.0,56,0.00,,---,0.00,VWS V14.01,2013-01-15 02:36:00,
2013-01-14 19:37:00,9.7,-2.8,29.82,East,96,0.0,0.0,56,0.00,,---,0.00,VWS V14.01,2013-01-15 02:37:00,
2013-01-14 19:38:00,9.7,-2.8,29.82,East,96,2.2,2.2,56,0.00,,---,0.00,VWS V14.01,2013-01-15 02:38:00,
2013-01-14 19:39:00,9.7,-2.8,29.82,East,96,0.0,2.2,56,0.00,,---,0.00,VWS V14.01,2013-01-15 02:39:00,
2013-01-14 19:40:00,9.7,-2.8,29.82,East,96,0.0,0.0,56,0.00,,---,0.00,VWS V14.01,2013-01-15 02:40:00,
2013-01-14 19:41:00,9.7,-2.8,29.82,East,96,0.0,0.0,56,0.00,,---,0.00,VWS V14.01,2013-01-15 02:41:00,
2013-01-14 19:42:00,9.7,-2.8,29.82,East,96,0.0,0.0,56,0.00,,---,0.00,VWS V14.01,2013-01-15 02:42:00,
2013-01-14 19:43:00,9.7,-2.8,29.82,East,96,0.0,0.0,56,0.00,,---,0.00,VWS V14.01,2013-01-15 02:43:00,
2013-01-14 19:44:00,9.7,-2.8,29.82,East,96,2.2,2.2,56,0.00,,---,0.00,VWS V14.01,2013-01-15 02:44:00,
2013-01-14 19:45:00,9.7,-2.8,29.82,East,96,0.0,2.2,56,0.00,,---,0.00,VWS V14.01,2013-01-15 02:45:00,
2013-01-14 19:46:00,9.7,-2.8,29.82,East,96,0.0,2.2,56,0.00,,---,0.00,VWS V14.01,2013-01-15 02:46:00,
2013-01-14 19:47:00,9.7,-2.8,29.82,East,97,0.0,0.0,56,0.00,,---,0.00,VWS V14.01,2013-01-15 02:47:00,
2013-01-14 19:48:00,9.7,-2.8,29.82,East,96,0.0,0.0,56,0.00,,---,0.00,VWS V14.01,2013-01-15 02:48:00,
2013-01-14 19:49:00,9.7,-2.8,29.82,East,96,0.0,0.0,56,0.00,,---,0.00,VWS V14.01,2013-01-15 02:49:00,
2013-01-14 19:50:00,9.7,-2.8,29.82,East,97,0.0,0.0,56,0.00,,---,0.00,VWS V14.01,2013-01-15 02:50:00,
2013-01-14 19:51:00,9.7,-2.8,29.82,East,96,0.0,0.0,56,0.00,,---,0.00,VWS V14.01,2013-01-15 02:51:00,
2013-01-14 19:52:00,9.7,-2.8,29.82,East,96,0.0,0.0,56,0.00,,---,0.00,VWS V14.01,2013-01-15 02:52:00,
2013-01-14 19:53:00,9.9,-2.7,29.82,East,96,0.0,0.0,56,0.00,,---,0.00,VWS V14.01,2013-01-15 02:53:00,
2013-01-14 19:54:00,9.9,-2.7,29.82,East,96,0.0,0.0,56,0.00,,---,0.00,VWS V14.01,2013-01-15 02:54:00,
2013-01-14 19:55:00,9.9,-2.7,29.82,East,96,0.0,0.0,56,0.00,,---,0.00,VWS V14.01,2013-01-15 02:55:00,
2013-01-14 19:56:00,9.9,-2.7,29.82,East,96,0.0,0.0,56,0.00,,---,0.00,VWS V14.01,2013-01-15 02:56:00,
2013-01-14 19:57:00,9.9,-2.7,29.82,East,97,0.0,0.0,56,0.00,,---,0.00,VWS V14.01,2013-01-15 02:57:00,
2013-01-14 19:58:00,10.0,-2.5,29.82,East,96,0.0,0.0,56,0.00,,---,0.00,VWS V14.01,2013-01-15 02:58:00,
2013-01-14 19:59:00,10.0,-2.5,29.82,East,97,0.0,0.0,56,0.00,,---,0.00,VWS V14.01,2013-01-15 02:59:00,
2013-01-14 20:00:00,10.0,-2.5,29.82,East,96,0.0,0.0,56,0.00,,---,0.00,VWS V14.01,2013-01-15 03:00:00,
2013-01-14 20:01:00,10.0,-2.5,29.82,East,96,0.0,0.0,56,0.00,,---,0.00,VWS V14.01,2013-01-15 03:01:00,
2013-01-14 20:02:00,10.0,-2.5,29.82,East,86,3.6,3.6,56,0.00,,---,0.00,VWS V14.01,2013-01-15 03:02:00,
2013-01-14 20:03:00,10.2,-2.3,29.82,ENE,72,4.0,4.0,56,0.00,,---,0.00,VWS V14.01,2013-01-15 03:03:00,
2013-01-14 20:04:00,10.2,-2.3,29.82,ENE,64,3.1,4.5,56,0.00,,---,0.00,VWS V14.01,2013-01-15 03:04:00,
2013-01-14 20:05:00,10.2,-2.3,29.82,ENE,62,0.0,3.1,56,0.00,,---,0.00,VWS V14.01,2013-01-15 03:05:00,
2013-01-14 20:06:00,10.4,-2.2,29.82,ENE,62,0.0,0.0,56,0.00,,---,0.00,VWS V14.01,2013-01-15 03:06:00,
2013-01-14 20:07:00,10.4,-2.2,29.82,ENE,62,0.0,0.0,56,0.00,,---,0.00,VWS V14.01,2013-01-15 03:07:00,
2013-01-14 20:08:00,10.4,-2.2,29.82,ENE,63,2.7,4.0,56,0.00,,---,0.00,VWS V14.01,2013-01-15 03:08:00,
2013-01-14 20:09:00,10.4,-2.2,29.82,ENE,64,2.2,2.7,56,0.00,,---,0.00,VWS V14.01,2013-01-15 03:09:00,
2013-01-14 20:10:00,10.4,-2.2,29.82,ENE,71,0.0,3.1,56,0.00,,---,0.00,VWS V14.01,2013-01-15 03:10:00,
2013-01-14 20:11:00,10.6,-2.0,29.82,East,79,3.1,3.1,56,0.00,,---,0.00,VWS V14.01,2013-01-15 03:11:00,
2013-01-14 20:12:00,10.6,-2.0,29.82,East,79,0.0,3.1,56,0.00,,---,0.00,VWS V14.01,2013-01-15 03:12:00,
2013-01-14 20:13:00,10.6,-2.0,29.82,East,79,2.7,2.7,56,0.00,,---,0.00,VWS V14.01,2013-01-15 03:13:00,
2013-01-14 20:14:00,10.8,-1.8,29.82,ENE,77,3.1,4.0,56,0.00,,---,0.00,VWS V14.01,2013-01-15 03:14:00,
2013-01-14 20:15:00,10.8,-1.8,29.82,East,91,3.6,3.6,56,0.00,,---,0.00,VWS V14.01,2013-01-15 03:15:00,
2013-01-14 20:16:00,10.8,-1.8,29.82,East,91,2.7,4.0,56,0.00,,---,0.00,VWS V14.01,2013-01-15 03:16:00,
2013-01-14 20:17:00,10.8,-1.8,29.82,East,88,3.1,3.1,56,0.00,,---,0.00,VWS V14.01,2013-01-15 03:17:00,
2013-01-14 20:18:00,10.8,-1.8,29.82,East,86,2.7,4.0,56,0.00,,---,0.00,VWS V14.01,2013-01-15 03:18:00,
2013-01-14 20:19:00,10.8,-1.8,29.82,East,86,2.7,3.6,56,0.00,,---,0.00,VWS V14.01,2013-01-15 03:19:00,
2013-01-14 20:20:00,10.8,-1.8,29.82,East,84,3.1,3.6,56,0.00,,---,0.00,VWS V14.01,2013-01-15 03:20:00,
2013-01-14 20:21:00,10.8,-1.8,29.82,ENE,68,3.6,4.0,56,0.00,,---,0.00,VWS V14.01,2013-01-15 03:21:00,
2013-01-14 20:22:00,10.9,-1.7,29.82,ENE,75,3.6,4.9,56,0.00,,---,0.00,VWS V14.01,2013-01-15 03:22:00,
2013-01-14 20:23:00,10.9,-1.7,29.82,East,81,0.0,4.0,56,0.00,,---,0.00,VWS V14.01,2013-01-15 03:23:00,
2013-01-14 20:24:00,10.9,-1.7,29.82,East,82,0.0,0.0,56,0.00,,---,0.00,VWS V14.01,2013-01-15 03:24:00,
2013-01-14 20:25:00,10.9,-1.7,29.82,East,82,0.0,0.0,56,0.00,,---,0.00,VWS V14.01,2013-01-15 03:25:00,
2013-01-14 20:26:00,10.9,-1.7,29.82,East,82,0.0,0.0,56,0.00,,---,0.00,VWS V14.01,2013-01-15 03:26:00,
2013-01-14 20:27:00,10.9,-1.7,29.82,East,82,0.0,0.0,56,0.00,,---,0.00,VWS V14.01,2013-01-15 03:27:00,
2013-01-14 20:28:00,10.9,-1.7,29.82,East,81,0.0,0.0,56,0.00,,---,0.00,VWS V14.01,2013-01-15 03:28:00,
2013-01-14 20:29:00,10.9,-1.7,29.82,ENE,73,2.7,4.0,56,0.00,,---,0.00,VWS V14.01,2013-01-15 03:29:00,
2013-01-14 20:30:00,10.9,-1.7,29.82,ENE,57,3.6,4.9,56,0.00,,---,0.00,VWS V14.01,2013-01-15 03:30:00,
2013-01-14 20:31:00,11.1,-1.5,29.82,NE,47,5.4,5.4,56,0.00,,---,0.00,VWS V14.01,2013-01-15 03:31:00,
2013-01-14 20:32:00,11.1,-1.5,29.85,NE,48,4.0,5.4,56,0.00,,---,0.00,VWS V14.01,2013-01-15 03:32:00,
2013-01-14 20:33:00,11.1,-1.5,29.85,NE,47,2.2,4.0,56,0.00,,---,0.00,VWS V14.01,2013-01-15 03:33:00,
2013-01-14 20:34:00,11.1,-1.5,29.85,NE,47,0.0,2.2,56,0.00,,---,0.00,VWS V14.01,2013-01-15 03:34:00,
2013-01-14 20:35:00,11.1,-1.5,29.85,NE,48,0.0,0.0,56,0.00,,---,0.00,VWS V14.01,2013-01-15 03:35:00,
2013-01-14 20:36:00,11.1,-1.5,29.85,NE,54,0.0,0.0,56,0.00,,---,0.00,VWS V14.01,2013-01-15 03:36:00,
2013-01-14 20:37:00,11.1,-1.5,29.85,NE,56,2.2,3.1,56,0.00,,---,0.00,VWS V14.01,2013-01-15 03:37:00,
2013-01-14 20:38:00,11.1,-1.5,29.85,ENE,57,0.0,2.2,56,0.00,,---,0.00,VWS V14.01,2013-01-15 03:38:00,
2013-01-14 20:39:00,11.1,-1.5,29.85,ENE,57,0.0,0.0,56,0.00,,---,0.00,VWS V14.01,2013-01-15 03:39:00,
2013-01-14 20:40:00,11.3,-1.3,29.85,ENE,57,0.0,0.0,56,0.00,,---,0.00,VWS V14.01,2013-01-15 03:40:00,
2013-01-14 20:41:00,11.3,-1.3,29.85,ENE,57,0.0,0.0,56,0.00,,---,0.00,VWS V14.01,2013-01-15 03:41:00,
2013-01-14 20:42:00,11.3,-1.3,29.85,ENE,64,4.0,4.0,56,0.00,,---,0.00,VWS V14.01,2013-01-15 03:42:00,
2013-01-14 20:43:00,11.3,-1.3,29.85,East,85,5.8,5.8,56,0.00,,---,0.00,VWS V14.01,2013-01-15 03:43:00,
2013-01-14 20:44:00,11.3,-1.3,29.85,East,92,3.6,6.3,56,0.00,,---,0.00,VWS V14.01,2013-01-15 03:44:00,
2013-01-14 20:45:00,11.3,-1.3,29.85,ENE,77,2.2,4.0,56,0.00,,---,0.00,VWS V14.01,2013-01-15 03:45:00,
2013-01-14 20:46:00,11.3,-1.3,29.85,ENE,77,0.0,2.2,56,0.00,,---,0.00,VWS V14.01,2013-01-15 03:46:00,
2013-01-14 20:47:00,11.3,-1.3,29.85,ENE,77,0.0,0.0,56,0.00,,---,0.00,VWS V14.01,2013-01-15 03:47:00,
2013-01-14 20:48:00,11.3,-1.3,29.85,ENE,77,0.0,2.2,56,0.00,,---,0.00,VWS V14.01,2013-01-15 03:48:00,
2013-01-14 20:49:00,11.3,-1.3,29.85,ENE,77,0.0,0.0,56,0.00,,---,0.00,VWS V14.01,2013-01-15 03:49:00,
2013-01-14 20:50:00,11.3,-1.3,29.85,ENE,75,4.9,4.9,56,0.00,,---,0.00,VWS V14.01,2013-01-15 03:50:00,
2013-01-14 20:51:00,11.3,-1.3,29.85,East,93,4.0,5.8,56,0.00,,---,0.00,VWS V14.01,2013-01-15 03:51:00,
2013-01-14 20:52:00,11.3,-1.3,29.85,ENE,76,3.6,4.0,56,0.00,,---,0.00,VWS V14.01,2013-01-15 03:52:00,
2013-01-14 20:53:00,11.3,-1.3,29.85,ENE,76,0.0,4.0,56,0.00,,---,0.00,VWS V14.01,2013-01-15 03:53:00,
2013-01-14 20:54:00,11.3,-1.3,29.85,ENE,75,2.2,3.6,56,0.00,,---,0.00,VWS V14.01,2013-01-15 03:54:00,
2013-01-14 20:55:00,11.3,-1.3,29.85,ENE,75,3.1,4.0,56,0.00,,---,0.00,VWS V14.01,2013-01-15 03:55:00,
2013-01-14 20:56:00,11.3,-1.3,29.85,ENE,74,3.1,3.6,56,0.00,,---,0.00,VWS V14.01,2013-01-15 03:56:00,
2013-01-14 20:57:00,11.3,-1.3,29.85,ENE,73,3.1,3.1,56,0.00,,---,0.00,VWS V14.01,2013-01-15 03:57:00,
2013-01-14 20:58:00,11.3,-1.3,29.85,East,92,2.7,6.3,56,0.00,,---,0.00,VWS V14.01,2013-01-15 03:58:00,
2013-01-14 20:59:00,11.3,-1.3,29.85,East,87,4.9,5.4,56,0.00,,---,0.00,VWS V14.01,2013-01-15 03:59:00,
2013-01-14 21:00:00,11.3,-1.3,29.85,East,87,0.0,4.9,56,0.00,,---,0.00,VWS V14.01,2013-01-15 04:00:00,
2013-01-14 21:01:00,11.3,-1.3,29.85,East,87,0.0,0.0,56,0.00,,---,0.00,VWS V14.01,2013-01-15 04:01:00,
2013-01-14 21:02:00,11.3,-1.3,29.85,East,84,3.6,4.0,56,0.00,,---,0.00,VWS V14.01,2013-01-15 04:02:00,
2013-01-14 21:03:00,11.3,-1.3,29.85,East,81,4.0,6.3,56,0.00,,---,0.00,VWS V14.01,2013-01-15 04:03:00,
2013-01-14 21:04:00,11.5,-1.2,29.85,ENE,58,3.1,6.3,56,0.00,,---,0.00,VWS V14.01,2013-01-15 04:04:00,
2013-01-14 21:05:00,11.5,-1.2,29.85,ENE,58,0.0,3.1,56,0.00,,---,0.00,VWS V14.01,2013-01-15 04:05:00,
2013-01-14 21:06:00,11.5,-1.2,29.85,NE,46,0.0,0.0,56,0.00,,---,0.00,VWS V14.01,2013-01-15 04:06:00,
2013-01-14 21:07:00,11.5,-1.2,29.85,NE,51,3.6,4.0,56,0.00,,---,0.00,VWS V14.01,2013-01-15 04:07:00,
2013-01-14 21:08:00,11.5,-1.2,29.85,NE,56,5.8,5.8,56,0.00,,---,0.00,VWS V14.01,2013-01-15 04:08:00,
2013-01-14 21:09:00,11.7,-1.0,29.85,NE,56,3.6,5.8,56,0.00,,---,0.00,VWS V14.01,2013-01-15 04:09:00,
2013-01-14 21:10:00,11.7,-1.0,29.85,NE,52,2.7,4.0,56,0.00,,---,0.00,VWS V14.01,2013-01-15 04:10:00,
2013-01-14 21:11:00,11.7,-1.0,29.85,NE,52,0.0,4.0,56,0.00,,---,0.00,VWS V14.01,2013-01-15 04:11:00,
2013-01-14 21:12:00,11.7,-1.0,29.85,NE,52,0.0,0.0,56,0.00,,---,0.00,VWS V14.01,2013-01-15 04:12:00,
2013-01-14 21:13:00,11.7,-1.0,29.85,ENE,57,0.0,0.0,56,0.00,,---,0.00,VWS V14.01,2013-01-15 04:13:00,
2013-01-14 21:14:00,11.7,-1.0,29.85,ENE,57,0.0,0.0,56,0.00,,---,0.00,VWS V14.01,2013-01-15 04:14:00,
2013-01-14 21:15:00,11.7,-1.0,29.85,ENE,57,0.0,0.0,56,0.00,,---,0.00,VWS V14.01,2013-01-15 04:15:00,
2013-01-14 21:16:00,11.7,-1.0,29.85,ENE,64,2.2,3.1,56,0.00,,---,0.00,VWS V14.01,2013-01-15 04:16:00,
2013-01-14 21:17:00,11.7,-1.0,29.85,ENE,63,2.7,3.1,56,0.00,,---,0.00,VWS V14.01,2013-01-15 04:17:00,
2013-01-14 21:18:00,11.7,-1.0,29.85,ENE,65,3.1,4.0,56,0.00,,---,0.00,VWS V14.01,2013-01-15 04:18:00,
2013-01-14 21:19:00,11.7,-1.0,29.85,ENE,61,3.6,5.4,56,0.00,,---,0.00,VWS V14.01,2013-01-15 04:19:00,
2013-01-14 21:20:00,11.8,-0.8,29.85,NE,51,2.7,3.6,56,0.00,,---,0.00,VWS V14.01,2013-01-15 04:20:00,
2013-01-14 21:21:00,11.8,-0.8,29.85,NE,51,0.0,3.1,56,0.00,,---,0.00,VWS V14.01,2013-01-15 04:21:00,
2013-01-14 21:22:00,11.8,-0.8,29.85,NE,51,0.0,0.0,56,0.00,,---,0.00,VWS V14.01,2013-01-15 04:22:00,
2013-01-14 21:23:00,11.8,-0.8,29.85,NE,51,0.0,0.0,56,0.00,,---,0.00,VWS V14.01,2013-01-15 04:23:00,
2013-01-14 21:24:00,11.8,-0.8,29.85,NE,51,0.0,0.0,56,0.00,,---,0.00,VWS V14.01,2013-01-15 04:24:00,
2013-01-14 21:25:00,11.8,-0.8,29.85,NE,51,0.0,0.0,56,0.00,,---,0.00,VWS V14.01,2013-01-15 04:25:00,
2013-01-14 21:26:00,11.8,-0.8,29.85,NE,51,0.0,0.0,56,0.00,,---,0.00,VWS V14.01,2013-01-15 04:26:00,
2013-01-14 21:27:00,11.8,-0.8,29.85,NE,51,4.0,4.0,56,0.00,,---,0.00,VWS V14.01,2013-01-15 04:27:00,
2013-01-14 21:28:00,11.8,-0.8,29.85,ENE,66,3.6,5.4,56,0.00,,---,0.00,VWS V14.01,2013-01-15 04:28:00,
2013-01-14 21:30:00,11.8,-0.8,29.85,East,87,2.7,4.9,56,0.00,,---,0.00,VWS V14.01,2013-01-15 04:30:00,
2013-01-14 21:31:00,11.8,-0.8,29.85,East,81,0.0,4.0,56,0.00,,---,0.00,VWS V14.01,2013-01-15 04:31:00,
2013-01-14 21:32:00,11.8,-0.8,29.85,East,81,0.0,0.0,56,0.00,,---,0.00,VWS V14.01,2013-01-15 04:32:00,
2013-01-14 21:33:00,11.8,-0.8,29.85,East,81,0.0,0.0,56,0.00,,---,0.00,VWS V14.01,2013-01-15 04:33:00,
2013-01-14 21:34:00,11.8,-0.8,29.85,East,81,0.0,0.0,56,0.00,,---,0.00,VWS V14.01,2013-01-15 04:34:00,
2013-01-14 21:35:00,11.8,-0.8,29.85,East,81,0.0,0.0,56,0.00,,---,0.00,VWS V14.01,2013-01-15 04:35:00,
2013-01-14 21:36:00,11.8,-0.8,29.85,East,97,4.9,5.4,56,0.00,,---,0.00,VWS V14.01,2013-01-15 04:36:00,
2013-01-14 21:37:00,11.8,-0.8,29.85,ENE,70,3.6,4.9,56,0.00,,---,0.00,VWS V14.01,2013-01-15 04:37:00,
2013-01-14 21:38:00,11.8,-0.8,29.85,ENE,68,0.0,3.6,56,0.00,,---,0.00,VWS V14.01,2013-01-15 04:38:00,
2013-01-14 21:39:00,11.8,-0.8,29.85,ENE,67,0.0,0.0,56,0.00,,---,0.00,VWS V14.01,2013-01-15 04:39:00,
2013-01-14 21:40:00,11.8,-0.8,29.85,ENE,67,0.0,0.0,56,0.00,,---,0.00,VWS V14.01,2013-01-15 04:40:00,
2013-01-14 21:41:00,11.8,-0.8,29.85,ENE,67,2.7,3.1,56,0.00,,---,0.00,VWS V14.01,2013-01-15 04:41:00,
2013-01-14 21:42:00,11.8,-0.8,29.85,ENE,67,2.7,3.6,56,0.00,,---,0.00,VWS V14.01,2013-01-15 04:42:00,
2013-01-14 21:43:00,11.8,-0.8,29.85,ENE,67,0.0,3.1,56,0.00,,---,0.00,VWS V14.01,2013-01-15 04:43:00,
2013-01-14 21:44:00,11.8,-0.8,29.85,ENE,68,0.0,0.0,56,0.00,,---,0.00,VWS V14.01,2013-01-15 04:44:00,
2013-01-14 21:45:00,11.8,-0.8,29.85,ENE,67,0.0,2.7,56,0.00,,---,0.00,VWS V14.01,2013-01-15 04:45:00,
2013-01-14 21:46:00,11.8,-0.8,29.85,ENE,68,0.0,0.0,56,0.00,,---,0.00,VWS V14.01,2013-01-15 04:46:00,
2013-01-14 21:47:00,11.8,-0.8,29.85,ENE,68,0.0,0.0,56,0.00,,---,0.00,VWS V14.01,2013-01-15 04:47:00,
2013-01-14 21:48:00,11.8,-0.8,29.85,ENE,68,0.0,0.0,56,0.00,,---,0.00,VWS V14.01,2013-01-15 04:48:00,
2013-01-14 21:49:00,11.8,-0.8,29.85,ENE,67,0.0,0.0,56,0.00,,---,0.00,VWS V14.01,2013-01-15 04:49:00,
2013-01-14 21:50:00,11.8,-0.8,29.85,ENE,67,0.0,0.0,56,0.00,,---,0.00,VWS V14.01,2013-01-15 04:50:00,
2013-01-14 21:51:00,11.8,-0.8,29.85,ENE,67,3.6,4.0,56,0.00,,---,0.00,VWS V14.01,2013-01-15 04:51:00,
2013-01-14 21:52:00,11.8,-0.8,29.85,ENE,67,0.0,3.6,56,0.00,,---,0.00,VWS V14.01,2013-01-15 04:52:00,
2013-01-14 21:53:00,11.8,-0.8,29.85,ENE,67,0.0,0.0,56,0.00,,---,0.00,VWS V14.01,2013-01-15 04:53:00,
2013-01-14 21:54:00,11.8,-0.8,29.85,ENE,67,0.0,0.0,56,0.00,,---,0.00,VWS V14.01,2013-01-15 04:54:00,
2013-01-14 21:55:00,11.8,-0.8,29.85,ENE,67,0.0,0.0,56,0.00,,---,0.00,VWS V14.01,2013-01-15 04:55:00,
2013-01-14 21:56:00,11.8,-0.8,29.85,ENE,67,0.0,0.0,56,0.00,,---,0.00,VWS V14.01,2013-01-15 04:56:00,
2013-01-14 21:57:00,11.8,-0.8,29.85,ENE,67,0.0,0.0,56,0.00,,---,0.00,VWS V14.01,2013-01-15 04:57:00,
2013-01-14 21:58:00,11.8,-0.8,29.85,ENE,67,0.0,0.0,56,0.00,,---,0.00,VWS V14.01,2013-01-15 04:58:00,
2013-01-14 21:59:00,11.8,-0.8,29.85,ENE,67,0.0,0.0,56,0.00,,---,0.00,VWS V14.01,2013-01-15 04:59:00,
2013-01-14 22:00:00,11.8,-0.8,29.85,ENE,68,0.0,0.0,56,0.00,,---,0.00,VWS V14.01,2013-01-15 05:00:00,
2013-01-14 22:01:00,11.8,-0.8,29.85,ENE,68,0.0,0.0,56,0.00,,---,0.00,VWS V14.01,2013-01-15 05:01:00,
2013-01-14 22:02:00,11.8,-0.8,29.85,ENE,68,0.0,0.0,56,0.00,,---,0.00,VWS V14.01,2013-01-15 05:02:00,
2013-01-14 22:03:00,11.8,-0.8,29.85,ENE,68,0.0,0.0,56,0.00,,---,0.00,VWS V14.01,2013-01-15 05:03:00,
2013-01-14 22:04:00,11.8,-0.8,29.85,ENE,68,0.0,0.0,56,0.00,,---,0.00,VWS V14.01,2013-01-15 05:04:00,
2013-01-14 22:05:00,11.8,-0.8,29.85,ENE,67,0.0,0.0,56,0.00,,---,0.00,VWS V14.01,2013-01-15 05:05:00,
2013-01-14 22:06:00,11.8,-0.8,29.85,ENE,67,0.0,0.0,56,0.00,,---,0.00,VWS V14.01,2013-01-15 05:06:00,
2013-01-14 22:07:00,11.8,-0.8,29.85,ENE,68,0.0,0.0,56,0.00,,---,0.00,VWS V14.01,2013-01-15 05:07:00,
2013-01-14 22:08:00,11.8,-0.8,29.85,ENE,71,2.7,2.7,56,0.00,,---,0.00,VWS V14.01,2013-01-15 05:08:00,
2013-01-14 22:09:00,12.0,-0.6,29.85,ENE,73,0.0,2.7,56,0.00,,---,0.00,VWS V14.01,2013-01-15 05:09:00,
2013-01-14 22:10:00,12.0,-0.6,29.85,ENE,72,0.0,3.1,56,0.00,,---,0.00,VWS V14.01,2013-01-15 05:10:00,
2013-01-14 22:11:00,12.0,-0.6,29.85,ENE,72,0.0,0.0,56,0.00,,---,0.00,VWS V14.01,2013-01-15 05:11:00,
2013-01-14 22:12:00,12.0,-0.6,29.85,ENE,72,0.0,0.0,56,0.00,,---,0.00,VWS V14.01,2013-01-15 05:12:00,
2013-01-14 22:13:00,11.8,-0.8,29.85,ENE,73,0.0,0.0,56,0.00,,---,0.00,VWS V14.01,2013-01-15 05:13:00,
2013-01-14 22:14:00,11.8,-0.8,29.85,ENE,73,0.0,0.0,56,0.00,,---,0.00,VWS V14.01,2013-01-15 05:14:00,
2013-01-14 22:15:00,11.8,-0.8,29.85,ENE,72,0.0,0.0,56,0.00,,---,0.00,VWS V14.01,2013-01-15 05:15:00,
2013-01-14 22:16:00,12.0,-0.6,29.85,ENE,73,3.1,3.1,56,0.00,,---,0.00,VWS V14.01,2013-01-15 05:16:00,
2013-01-14 22:17:00,12.0,-0.6,29.85,ENE,71,4.0,4.0,56,0.00,,---,0.00,VWS V14.01,2013-01-15 05:17:00,
2013-01-14 22:18:00,12.0,-0.6,29.85,ENE,71,4.0,4.0,56,0.00,,---,0.00,VWS V14.01,2013-01-15 05:18:00,
2013-01-14 22:19:00,12.0,-0.6,29.85,ENE,71,3.6,4.0,56,0.00,,---,0.00,VWS V14.01,2013-01-15 05:19:00,
2013-01-14 22:20:00,12.0,-0.6,29.85,ENE,70,0.0,4.0,56,0.00,,---,0.00,VWS V14.01,2013-01-15 05:20:00,
2013-01-14 22:21:00,12.0,-0.6,29.85,ENE,70,0.0,0.0,56,0.00,,---,0.00,VWS V14.01,2013-01-15 05:21:00,
2013-01-14 22:22:00,12.0,-0.6,29.85,ENE,70,0.0,0.0,56,0.00,,---,0.00,VWS V14.01,2013-01-15 05:22:00,
2013-01-14 22:23:00,12.0,-0.6,29.85,ENE,70,0.0,0.0,56,0.00,,---,0.00,VWS V14.01,2013-01-15 05:23:00,
2013-01-14 22:24:00,12.0,-0.6,29.85,ENE,70,0.0,0.0,56,0.00,,---,0.00,VWS V14.01,2013-01-15 05:24:00,
2013-01-14 22:25:00,12.0,-0.6,29.85,ENE,71,2.7,2.7,56,0.00,,---,0.00,VWS V14.01,2013-01-15 05:25:00,
2013-01-14 22:26:00,12.0,-0.6,29.85,ENE,77,4.0,4.0,56,0.00,,---,0.00,VWS V14.01,2013-01-15 05:26:00,
2013-01-14 22:27:00,12.0,-0.6,29.85,East,93,3.6,4.9,56,0.00,,---,0.00,VWS V14.01,2013-01-15 05:27:00,
2013-01-14 22:28:00,12.0,-0.6,29.85,East,96,3.1,3.6,56,0.00,,---,0.00,VWS V14.01,2013-01-15 05:28:00,
2013-01-14 22:29:00,12.0,-0.6,29.85,East,95,0.0,3.1,56,0.00,,---,0.00,VWS V14.01,2013-01-15 05:29:00,
2013-01-14 22:30:00,12.0,-0.6,29.85,East,95,0.0,0.0,56,0.00,,---,0.00,VWS V14.01,2013-01-15 05:30:00,
2013-01-14 22:31:00,12.0,-0.6,29.85,East,94,0.0,0.0,56,0.00,,---,0.00,VWS V14.01,2013-01-15 05:31:00,
2013-01-14 22:32:00,12.0,-0.6,29.85,East,94,0.0,0.0,56,0.00,,---,0.00,VWS V14.01,2013-01-15 05:32:00,
2013-01-14 22:33:00,12.0,-0.6,29.85,East,92,3.1,3.1,56,0.00,,---,0.00,VWS V14.01,2013-01-15 05:33:00,
2013-01-14 22:34:00,12.0,-0.6,29.85,East,92,3.1,3.1,56,0.00,,---,0.00,VWS V14.01,2013-01-15 05:34:00,
2013-01-14 22:35:00,12.0,-0.6,29.85,East,91,2.7,3.1,56,0.00,,---,0.00,VWS V14.01,2013-01-15 05:35:00,
2013-01-14 22:36:00,12.0,-0.6,29.85,ENE,62,3.6,3.6,56,0.00,,---,0.00,VWS V14.01,2013-01-15 05:36:00,
2013-01-14 22:37:00,12.0,-0.6,29.85,ENE,68,4.0,4.0,56,0.00,,---,0.00,VWS V14.01,2013-01-15 05:37:00,
2013-01-14 22:38:00,12.0,-0.6,29.85,East,89,3.6,4.9,56,0.00,,---,0.00,VWS V14.01,2013-01-15 05:38:00,
2013-01-14 22:39:00,12.0,-0.6,29.85,East,80,3.6,5.4,56,0.00,,---,0.00,VWS V14.01,2013-01-15 05:39:00,
2013-01-14 22:40:00,12.0,-0.6,29.85,ENE,62,4.0,4.9,56,0.00,,---,0.00,VWS V14.01,2013-01-15 05:40:00,
2013-01-14 22:41:00,12.0,-0.6,29.85,ENE,63,0.0,4.0,56,0.00,,---,0.00,VWS V14.01,2013-01-15 05:41:00,
2013-01-14 22:42:00,12.0,-0.6,29.85,ENE,63,0.0,0.0,56,0.00,,---,0.00,VWS V14.01,2013-01-15 05:42:00,
2013-01-14 22:43:00,12.0,-0.6,29.85,ENE,63,0.0,0.0,56,0.00,,---,0.00,VWS V14.01,2013-01-15 05:43:00,
2013-01-14 22:44:00,12.0,-0.6,29.85,ENE,65,3.6,3.6,56,0.00,,---,0.00,VWS V14.01,2013-01-15 05:44:00,
2013-01-14 22:45:00,12.0,-0.6,29.85,ENE,64,4.9,4.9,56,0.00,,---,0.00,VWS V14.01,2013-01-15 05:45:00,
2013-01-14 22:46:00,12.0,-0.6,29.85,ENE,62,3.6,4.9,56,0.00,,---,0.00,VWS V14.01,2013-01-15 05:46:00,
2013-01-14 22:47:00,12.0,-0.6,29.85,ENE,66,3.1,4.0,56,0.00,,---,0.00,VWS V14.01,2013-01-15 05:47:00,
2013-01-14 22:48:00,12.0,-0.6,29.85,ENE,74,4.9,4.9,56,0.00,,---,0.00,VWS V14.01,2013-01-15 05:48:00,
2013-01-14 22:49:00,12.0,-0.6,29.85,ENE,68,2.2,4.9,56,0.00,,---,0.00,VWS V14.01,2013-01-15 05:49:00,
2013-01-14 22:50:00,12.2,-0.5,29.85,ENE,68,2.7,3.6,56,0.00,,---,0.00,VWS V14.01,2013-01-15 05:50:00,
2013-01-14 22:51:00,12.2,-0.5,29.85,ENE,75,4.0,4.9,56,0.00,,---,0.00,VWS V14.01,2013-01-15 05:51:00,
2013-01-14 22:52:00,12.2,-0.5,29.85,East,80,6.3,6.3,56,0.00,,---,0.00,VWS V14.01,2013-01-15 05:52:00,
2013-01-14 22:53:00,12.0,-0.6,29.85,East,82,4.9,6.3,56,0.00,,---,0.00,VWS V14.01,2013-01-15 05:53:00,
2013-01-14 22:54:00,12.0,-0.6,29.85,ENE,78,3.6,5.8,56,0.00,,---,0.00,VWS V14.01,2013-01-15 05:54:00,
2013-01-14 22:55:00,12.0,-0.6,29.85,East,89,3.1,5.8,56,0.00,,---,0.00,VWS V14.01,2013-01-15 05:55:00,
2013-01-14 22:56:00,12.0,-0.6,29.85,ENE,71,3.1,4.0,56,0.00,,---,0.00,VWS V14.01,2013-01-15 05:56:00,
2013-01-14 22:57:00,12.0,-0.6,29.85,NE,50,5.4,5.4,56,0.00,,---,0.00,VWS V14.01,2013-01-15 05:57:00,
2013-01-14 22:58:00,12.0,-0.6,29.85,ENE,78,5.8,5.8,56,0.00,,---,0.00,VWS V14.01,2013-01-15 05:58:00,
2013-01-14 22:59:00,12.0,-0.6,29.85,East,85,6.3,6.3,56,0.00,,---,0.00,VWS V14.01,2013-01-15 05:59:00,
2013-01-14 23:00:00,12.0,-0.6,29.85,ENE,78,5.8,6.3,56,0.00,,---,0.00,VWS V14.01,2013-01-15 06:00:00,
2013-01-14 23:01:00,12.2,-0.5,29.85,East,81,3.1,6.3,56,0.00,,---,0.00,VWS V14.01,2013-01-15 06:01:00,
2013-01-14 23:02:00,12.0,-0.6,29.85,East,93,4.0,4.0,56,0.00,,---,0.00,VWS V14.01,2013-01-15 06:02:00,
2013-01-14 23:03:00,12.2,-0.5,29.85,ENE,64,2.7,4.0,56,0.00,,---,0.00,VWS V14.01,2013-01-15 06:03:00,
2013-01-14 23:04:00,12.2,-0.5,29.85,ENE,77,3.6,4.0,56,0.00,,---,0.00,VWS V14.01,2013-01-15 06:04:00,
2013-01-14 23:05:00,12.2,-0.5,29.85,ENE,71,0.0,4.9,56,0.00,,---,0.00,VWS V14.01,2013-01-15 06:05:00,
2013-01-14 23:06:00,12.2,-0.5,29.85,ENE,71,0.0,0.0,56,0.00,,---,0.00,VWS V14.01,2013-01-15 06:06:00,
2013-01-14 23:07:00,12.2,-0.5,29.85,SE,124,4.0,4.0,56,0.00,,---,0.00,VWS V14.01,2013-01-15 06:07:00,
2013-01-14 23:08:00,12.0,-0.6,29.85,ESE,123,3.1,5.4,56,0.00,,---,0.00,VWS V14.01,2013-01-15 06:08:00,
2013-01-14 23:09:00,12.0,-0.6,29.85,ESE,121,0.0,4.0,56,0.00,,---,0.00,VWS V14.01,2013-01-15 06:09:00,
2013-01-14 23:10:00,12.0,-0.6,29.85,SE,125,3.6,4.0,56,0.00,,---,0.00,VWS V14.01,2013-01-15 06:10:00,
2013-01-14 23:11:00,12.0,-0.6,29.85,SE,124,3.1,4.9,56,0.00,,---,0.00,VWS V14.01,2013-01-15 06:11:00,
2013-01-14 23:12:00,12.0,-0.6,29.85,SE,127,2.7,5.4,56,0.00,,---,0.00,VWS V14.01,2013-01-15 06:12:00,
2013-01-14 23:13:00,12.0,-0.6,29.85,SE,124,2.7,2.7,56,0.00,,---,0.00,VWS V14.01,2013-01-15 06:13:00,
2013-01-14 23:14:00,12.0,-0.6,29.85,ESE,105,4.0,4.0,56,0.00,,---,0.00,VWS V14.01,2013-01-15 06:14:00,
2013-01-14 23:15:00,12.0,-0.6,29.85,ENE,68,3.6,4.9,56,0.00,,---,0.00,VWS V14.01,2013-01-15 06:15:00,
2013-01-14 23:16:00,12.0,-0.6,29.85,ENE,67,4.0,4.0,56,0.00,,---,0.00,VWS V14.01,2013-01-15 06:16:00,
2013-01-14 23:17:00,12.0,-0.6,29.85,ENE,67,2.7,4.0,56,0.00,,---,0.00,VWS V14.01,2013-01-15 06:17:00,
2013-01-14 23:18:00,12.0,-0.6,29.88,ENE,67,2.7,3.1,56,0.00,,---,0.00,VWS V14.01,2013-01-15 06:18:00,
2013-01-14 23:19:00,12.2,-0.5,29.88,ENE,72,2.7,3.6,56,0.00,,---,0.00,VWS V14.01,2013-01-15 06:19:00,
2013-01-14 23:20:00,12.2,-0.5,29.88,East,79,2.7,3.6,56,0.00,,---,0.00,VWS V14.01,2013-01-15 06:20:00,
2013-01-14 23:21:00,12.2,-0.5,29.88,ENE,77,3.1,4.0,56,0.00,,---,0.00,VWS V14.01,2013-01-15 06:21:00,
2013-01-14 23:22:00,12.2,-0.5,29.88,ENE,77,2.7,3.1,56,0.00,,---,0.00,VWS V14.01,2013-01-15 06:22:00,
2013-01-14 23:23:00,12.2,-0.5,29.88,ENE,77,4.0,4.0,56,0.00,,---,0.00,VWS V14.01,2013-01-15 06:23:00,
2013-01-14 23:24:00,12.2,-0.5,29.88,ENE,77,2.7,4.0,56,0.00,,---,0.00,VWS V14.01,2013-01-15 06:24:00,
2013-01-14 23:25:00,12.2,-0.5,29.88,ENE,77,0.0,2.7,56,0.00,,---,0.00,VWS V14.01,2013-01-15 06:25:00,
2013-01-14 23:26:00,12.2,-0.5,29.88,ENE,77,0.0,0.0,56,0.00,,---,0.00,VWS V14.01,2013-01-15 06:26:00,
2013-01-14 23:27:00,12.4,-0.3,29.88,ENE,77,0.0,0.0,56,0.00,,---,0.00,VWS V14.01,2013-01-15 06:27:00,
2013-01-14 23:28:00,12.2,-0.5,29.88,ESE,113,4.0,4.5,56,0.00,,---,0.00,VWS V14.01,2013-01-15 06:28:00,
2013-01-14 23:29:00,12.2,-0.5,29.88,ESE,123,4.9,4.9,56,0.00,,---,0.00,VWS V14.01,2013-01-15 06:29:00,
2013-01-14 23:30:00,12.2,-0.5,29.88,ESE,123,4.0,5.4,56,0.00,,---,0.00,VWS V14.01,2013-01-15 06:30:00,
2013-01-14 23:31:00,12.2,-0.5,29.88,ESE,123,5.4,5.4,56,0.00,,---,0.00,VWS V14.01,2013-01-15 06:31:00,
2013-01-14 23:32:00,12.2,-0.5,29.88,SE,124,3.6,6.3,56,0.00,,---,0.00,VWS V14.01,2013-01-15 06:32:00,
2013-01-14 23:33:00,12.2,-0.5,29.85,SE,124,0.0,3.6,56,0.00,,---,0.00,VWS V14.01,2013-01-15 06:33:00,
2013-01-14 23:34:00,12.4,-0.3,29.85,SE,124,4.0,4.0,56,0.00,,---,0.00,VWS V14.01,2013-01-15 06:34:00,
2013-01-14 23:35:00,12.4,-0.3,29.85,ESE,122,3.6,4.0,56,0.00,,---,0.00,VWS V14.01,2013-01-15 06:35:00,
2013-01-14 23:36:00,12.4,-0.3,29.85,ESE,121,2.7,6.3,56,0.00,,---,0.00,VWS V14.01,2013-01-15 06:36:00,
2013-01-14 23:37:00,12.4,-0.3,29.85,ESE,121,0.0,4.9,56,0.00,,---,0.00,VWS V14.01,2013-01-15 06:37:00,
2013-01-14 23:38:00,12.4,-0.3,29.85,SE,125,0.0,0.0,56,0.00,,---,0.00,VWS V14.01,2013-01-15 06:38:00,
2013-01-14 23:39:00,12.4,-0.3,29.85,SE,125,0.0,0.0,56,0.00,,---,0.00,VWS V14.01,2013-01-15 06:39:00,
2013-01-14 23:40:00,12.6,-0.2,29.85,SE,125,0.0,3.1,56,0.00,,---,0.00,VWS V14.01,2013-01-15 06:40:00,
2013-01-14 23:41:00,12.6,-0.2,29.85,SE,128,3.1,3.6,56,0.00,,---,0.00,VWS V14.01,2013-01-15 06:41:00,
2013-01-14 23:42:00,12.6,-0.2,29.85,SE,131,0.0,3.6,56,0.00,,---,0.00,VWS V14.01,2013-01-15 06:42:00,
2013-01-14 23:43:00,12.6,-0.2,29.85,SE,131,0.0,0.0,56,0.00,,---,0.00,VWS V14.01,2013-01-15 06:43:00,
2013-01-14 23:44:00,12.6,-0.2,29.85,SE,130,0.0,0.0,56,0.00,,---,0.00,VWS V14.01,2013-01-15 06:44:00,
2013-01-14 23:45:00,12.6,-0.2,29.85,SE,130,0.0,0.0,56,0.00,,---,0.00,VWS V14.01,2013-01-15 06:45:00,
2013-01-14 23:46:00,12.6,-0.2,29.85,SE,130,0.0,0.0,56,0.00,,---,0.00,VWS V14.01,2013-01-15 06:46:00,
2013-01-14 23:47:00,12.6,-0.2,29.88,SE,128,4.0,4.0,56,0.00,,---,0.00,VWS V14.01,2013-01-15 06:47:00,
2013-01-14 23:48:00,12.6,-0.2,29.88,SE,127,2.2,4.0,56,0.00,,---,0.00,VWS V14.01,2013-01-15 06:48:00,
2013-01-14 23:49:00,12.6,-0.2,29.88,SE,126,3.1,3.1,56,0.00,,---,0.00,VWS V14.01,2013-01-15 06:49:00,
2013-01-14 23:50:00,12.7,0.0,29.88,East,83,0.0,5.8,56,0.00,,---,0.00,VWS V14.01,2013-01-15 06:50:00,
2013-01-14 23:51:00,12.7,0.0,29.88,East,87,2.7,4.0,56,0.00,,---,0.00,VWS V14.01,2013-01-15 06:51:00,
2013-01-14 23:52:00,12.7,0.0,29.88,ENE,76,3.1,4.0,56,0.00,,---,0.00,VWS V14.01,2013-01-15 06:52:00,
2013-01-14 23:53:00,12.7,0.0,29.88,East,84,3.6,4.0,56,0.00,,---,0.00,VWS V14.01,2013-01-15 06:53:00,
2013-01-14 23:54:00,12.7,0.0,29.88,East,84,2.7,3.6,56,0.00,,---,0.00,VWS V14.01,2013-01-15 06:54:00,
2013-01-14 23:55:00,12.7,0.0,29.88,East,89,3.6,4.0,56,0.00,,---,0.00,VWS V14.01,2013-01-15 06:55:00,
2013-01-14 23:56:00,12.7,0.0,29.88,ESE,112,0.0,4.0,56,0.00,,---,0.00,VWS V14.01,2013-01-15 06:56:00,
2013-01-14 23:57:00,12.7,0.0,29.88,ESE,120,4.0,6.3,56,0.00,,---,0.00,VWS V14.01,2013-01-15 06:57:00,
2013-01-14 23:58:00,12.7,0.0,29.88,ESE,111,0.0,4.9,56,0.00,,---,0.00,VWS V14.01,2013-01-15 06:58:00,
2013-01-14 23:59:00,12.7,0.0,29.88,ESE,111,0.0,2.7,56,0.00,,---,0.00,VWS V14.01,2013-01-15 06:59:00,